<?xml version="1.0" encoding="UTF-8" standalone="no" ?>
<gpx xmlns="http://www.topografix.com/GPX/1/1" xmlns:xsi="http://www.w3.org/2001/XMLSchema-instance" xsi:schemaLocation="http://www.topografix.com/GPX/1/1 http://www.topografix.com/GPX/1/1/gpx.xsd" version="1.1" creator="VisuGPX - https://www.visugpx.com">
  <metadata>
    <name>Angoustrine / estany Rouge, col Rouge</name>
    <desc><![CDATA[départ du parking de la chapelle san Marti au-dessus du village d'Angoustrine, par une piste (quelques passages un peu difficiles) fermée pendant la saison d'été (2,2km); belle rando sur piste jusqu'au réservoir (moitié de l'aller), puis il faut monter avec l'aide de qq rares cairns, en direction du col Rouge que l'on aperçoit de temps en temps: mieux vaut avoir une trace. Depuis l'estany, vue magnifique sur la Cerdagne et ses sommets, mais sublime depuis le col ou le Pic Roig oriental d'accès assez aisé si on les prends largement à droite du Pic, après les éboulis; très belle rando, mais attention, à partir de l'Estany, c'est la Montagne!]]></desc>
  </metadata>
  <trk>
    <name><![CDATA[col rouge]]></name>
    <cmt><![CDATA[8 oct. 2017 à 08:31:18]]></cmt>
    <trkseg>
      <trkpt lat="42.51534" lon="1.95614">
        <ele>1571</ele>
        <time>2017-10-08T06:31:19Z</time>
      </trkpt>
      <trkpt lat="42.51533" lon="1.9562">
        <ele>1571</ele>
        <time>2017-10-08T06:31:20Z</time>
      </trkpt>
      <trkpt lat="42.51529" lon="1.95626">
        <ele>1573</ele>
        <time>2017-10-08T06:31:47Z</time>
      </trkpt>
      <trkpt lat="42.51528" lon="1.95632">
        <ele>1575</ele>
        <time>2017-10-08T06:32:32Z</time>
      </trkpt>
      <trkpt lat="42.51533" lon="1.95632">
        <ele>1575</ele>
        <time>2017-10-08T06:33:11Z</time>
      </trkpt>
      <trkpt lat="42.51539" lon="1.95641">
        <ele>1577</ele>
        <time>2017-10-08T06:33:32Z</time>
      </trkpt>
      <trkpt lat="42.51542" lon="1.95655">
        <ele>1577</ele>
        <time>2017-10-08T06:33:40Z</time>
      </trkpt>
      <trkpt lat="42.51546" lon="1.95664">
        <ele>1578</ele>
        <time>2017-10-08T06:33:53Z</time>
      </trkpt>
      <trkpt lat="42.5155" lon="1.95664">
        <ele>1578</ele>
        <time>2017-10-08T06:33:59Z</time>
      </trkpt>
      <trkpt lat="42.5156" lon="1.9566">
        <ele>1579</ele>
        <time>2017-10-08T06:34:08Z</time>
      </trkpt>
      <trkpt lat="42.51564" lon="1.95657">
        <ele>1580</ele>
        <time>2017-10-08T06:34:13Z</time>
      </trkpt>
      <trkpt lat="42.51568" lon="1.95652">
        <ele>1581</ele>
        <time>2017-10-08T06:34:18Z</time>
      </trkpt>
      <trkpt lat="42.51573" lon="1.95645">
        <ele>1582</ele>
        <time>2017-10-08T06:34:34Z</time>
      </trkpt>
      <trkpt lat="42.51577" lon="1.95639">
        <ele>1583</ele>
        <time>2017-10-08T06:34:39Z</time>
      </trkpt>
      <trkpt lat="42.51585" lon="1.95633">
        <ele>1585</ele>
        <time>2017-10-08T06:34:49Z</time>
      </trkpt>
      <trkpt lat="42.51593" lon="1.95624">
        <ele>1586</ele>
        <time>2017-10-08T06:34:58Z</time>
      </trkpt>
      <trkpt lat="42.51596" lon="1.95618">
        <ele>1588</ele>
        <time>2017-10-08T06:35:04Z</time>
      </trkpt>
      <trkpt lat="42.516" lon="1.95614">
        <ele>1588</ele>
        <time>2017-10-08T06:35:13Z</time>
      </trkpt>
      <trkpt lat="42.51601" lon="1.95608">
        <ele>1590</ele>
        <time>2017-10-08T06:35:29Z</time>
      </trkpt>
      <trkpt lat="42.51606" lon="1.95608">
        <ele>1590</ele>
        <time>2017-10-08T06:35:34Z</time>
      </trkpt>
      <trkpt lat="42.51611" lon="1.95609">
        <ele>1591</ele>
        <time>2017-10-08T06:35:40Z</time>
      </trkpt>
      <trkpt lat="42.51615" lon="1.95606">
        <ele>1591</ele>
        <time>2017-10-08T06:35:46Z</time>
      </trkpt>
      <trkpt lat="42.51617" lon="1.95599">
        <ele>1592</ele>
        <time>2017-10-08T06:35:52Z</time>
      </trkpt>
      <trkpt lat="42.51622" lon="1.95597">
        <ele>1593</ele>
        <time>2017-10-08T06:35:58Z</time>
      </trkpt>
      <trkpt lat="42.51624" lon="1.95592">
        <ele>1594</ele>
        <time>2017-10-08T06:36:12Z</time>
      </trkpt>
      <trkpt lat="42.5162" lon="1.95585">
        <ele>1594</ele>
        <time>2017-10-08T06:36:45Z</time>
      </trkpt>
      <trkpt lat="42.51608" lon="1.95574">
        <ele>1594</ele>
        <time>2017-10-08T06:36:58Z</time>
      </trkpt>
      <trkpt lat="42.51605" lon="1.95568">
        <ele>1594</ele>
        <time>2017-10-08T06:37:03Z</time>
      </trkpt>
      <trkpt lat="42.51601" lon="1.95565">
        <ele>1594</ele>
        <time>2017-10-08T06:37:07Z</time>
      </trkpt>
      <trkpt lat="42.51591" lon="1.9556">
        <ele>1594</ele>
        <time>2017-10-08T06:37:15Z</time>
      </trkpt>
      <trkpt lat="42.51588" lon="1.95554">
        <ele>1594</ele>
        <time>2017-10-08T06:37:20Z</time>
      </trkpt>
      <trkpt lat="42.51584" lon="1.95557">
        <ele>1594</ele>
        <time>2017-10-08T06:38:20Z</time>
      </trkpt>
      <trkpt lat="42.51581" lon="1.95547">
        <ele>1594</ele>
        <time>2017-10-08T06:38:37Z</time>
      </trkpt>
      <trkpt lat="42.51583" lon="1.95535">
        <ele>1596</ele>
        <time>2017-10-08T06:38:51Z</time>
      </trkpt>
      <trkpt lat="42.51591" lon="1.95532">
        <ele>1598</ele>
        <time>2017-10-08T06:39:26Z</time>
      </trkpt>
      <trkpt lat="42.51597" lon="1.95526">
        <ele>1600</ele>
        <time>2017-10-08T06:39:39Z</time>
      </trkpt>
      <trkpt lat="42.51598" lon="1.9552">
        <ele>1601</ele>
        <time>2017-10-08T06:39:45Z</time>
      </trkpt>
      <trkpt lat="42.51597" lon="1.95514">
        <ele>1602</ele>
        <time>2017-10-08T06:39:53Z</time>
      </trkpt>
      <trkpt lat="42.51594" lon="1.95509">
        <ele>1605</ele>
        <time>2017-10-08T06:40:03Z</time>
      </trkpt>
      <trkpt lat="42.5159" lon="1.95498">
        <ele>1608</ele>
        <time>2017-10-08T06:40:25Z</time>
      </trkpt>
      <trkpt lat="42.51584" lon="1.95494">
        <ele>1608</ele>
        <time>2017-10-08T06:40:37Z</time>
      </trkpt>
      <trkpt lat="42.51579" lon="1.95494">
        <ele>1608</ele>
        <time>2017-10-08T06:40:42Z</time>
      </trkpt>
      <trkpt lat="42.51574" lon="1.95493">
        <ele>1608</ele>
        <time>2017-10-08T06:40:47Z</time>
      </trkpt>
      <trkpt lat="42.5157" lon="1.95488">
        <ele>1609</ele>
        <time>2017-10-08T06:40:54Z</time>
      </trkpt>
      <trkpt lat="42.51569" lon="1.95481">
        <ele>1609</ele>
        <time>2017-10-08T06:41:01Z</time>
      </trkpt>
      <trkpt lat="42.51566" lon="1.95476">
        <ele>1609</ele>
        <time>2017-10-08T06:41:07Z</time>
      </trkpt>
      <trkpt lat="42.51565" lon="1.9547">
        <ele>1609</ele>
        <time>2017-10-08T06:41:13Z</time>
      </trkpt>
      <trkpt lat="42.51565" lon="1.95463">
        <ele>1610</ele>
        <time>2017-10-08T06:41:20Z</time>
      </trkpt>
      <trkpt lat="42.51562" lon="1.95457">
        <ele>1610</ele>
        <time>2017-10-08T06:41:25Z</time>
      </trkpt>
      <trkpt lat="42.51564" lon="1.95445">
        <ele>1613</ele>
        <time>2017-10-08T06:41:45Z</time>
      </trkpt>
      <trkpt lat="42.51569" lon="1.9544">
        <ele>1616</ele>
        <time>2017-10-08T06:42:03Z</time>
      </trkpt>
      <trkpt lat="42.51573" lon="1.95439">
        <ele>1618</ele>
        <time>2017-10-08T06:42:11Z</time>
      </trkpt>
      <trkpt lat="42.51579" lon="1.95439">
        <ele>1620</ele>
        <time>2017-10-08T06:42:28Z</time>
      </trkpt>
      <trkpt lat="42.51584" lon="1.9544">
        <ele>1623</ele>
        <time>2017-10-08T06:42:43Z</time>
      </trkpt>
      <trkpt lat="42.51582" lon="1.95433">
        <ele>1624</ele>
        <time>2017-10-08T06:42:55Z</time>
      </trkpt>
      <trkpt lat="42.51581" lon="1.95427">
        <ele>1626</ele>
        <time>2017-10-08T06:43:04Z</time>
      </trkpt>
      <trkpt lat="42.51577" lon="1.9542">
        <ele>1628</ele>
        <time>2017-10-08T06:43:20Z</time>
      </trkpt>
      <trkpt lat="42.51575" lon="1.95414">
        <ele>1631</ele>
        <time>2017-10-08T06:43:32Z</time>
      </trkpt>
      <trkpt lat="42.51566" lon="1.95396">
        <ele>1637</ele>
        <time>2017-10-08T06:44:19Z</time>
      </trkpt>
      <trkpt lat="42.51561" lon="1.95394">
        <ele>1639</ele>
        <time>2017-10-08T06:44:26Z</time>
      </trkpt>
      <trkpt lat="42.51558" lon="1.9539">
        <ele>1640</ele>
        <time>2017-10-08T06:44:34Z</time>
      </trkpt>
      <trkpt lat="42.51553" lon="1.95388">
        <ele>1641</ele>
        <time>2017-10-08T06:44:41Z</time>
      </trkpt>
      <trkpt lat="42.51546" lon="1.95378">
        <ele>1643</ele>
        <time>2017-10-08T06:45:08Z</time>
      </trkpt>
      <trkpt lat="42.5154" lon="1.95376">
        <ele>1644</ele>
        <time>2017-10-08T06:45:22Z</time>
      </trkpt>
      <trkpt lat="42.51532" lon="1.95368">
        <ele>1647</ele>
        <time>2017-10-08T06:45:42Z</time>
      </trkpt>
      <trkpt lat="42.51527" lon="1.95365">
        <ele>1648</ele>
        <time>2017-10-08T06:45:47Z</time>
      </trkpt>
      <trkpt lat="42.51512" lon="1.95354">
        <ele>1651</ele>
        <time>2017-10-08T06:46:13Z</time>
      </trkpt>
      <trkpt lat="42.51509" lon="1.95349">
        <ele>1652</ele>
        <time>2017-10-08T06:46:19Z</time>
      </trkpt>
      <trkpt lat="42.515" lon="1.95344">
        <ele>1653</ele>
        <time>2017-10-08T06:46:33Z</time>
      </trkpt>
      <trkpt lat="42.51492" lon="1.95342">
        <ele>1655</ele>
        <time>2017-10-08T06:46:49Z</time>
      </trkpt>
      <trkpt lat="42.5148" lon="1.95332">
        <ele>1658</ele>
        <time>2017-10-08T06:47:09Z</time>
      </trkpt>
      <trkpt lat="42.51473" lon="1.95319">
        <ele>1662</ele>
        <time>2017-10-08T06:47:36Z</time>
      </trkpt>
      <trkpt lat="42.51461" lon="1.95309">
        <ele>1667</ele>
        <time>2017-10-08T06:48:21Z</time>
      </trkpt>
      <trkpt lat="42.51457" lon="1.95306">
        <ele>1668</ele>
        <time>2017-10-08T06:48:29Z</time>
      </trkpt>
      <trkpt lat="42.51454" lon="1.95299">
        <ele>1671</ele>
        <time>2017-10-08T06:48:43Z</time>
      </trkpt>
      <trkpt lat="42.51449" lon="1.95299">
        <ele>1671</ele>
        <time>2017-10-08T06:48:50Z</time>
      </trkpt>
      <trkpt lat="42.51444" lon="1.95296">
        <ele>1673</ele>
        <time>2017-10-08T06:48:56Z</time>
      </trkpt>
      <trkpt lat="42.51439" lon="1.95288">
        <ele>1677</ele>
        <time>2017-10-08T06:49:17Z</time>
      </trkpt>
      <trkpt lat="42.51435" lon="1.95285">
        <ele>1677</ele>
        <time>2017-10-08T06:49:26Z</time>
      </trkpt>
      <trkpt lat="42.51425" lon="1.95272">
        <ele>1683</ele>
        <time>2017-10-08T06:50:03Z</time>
      </trkpt>
      <trkpt lat="42.51414" lon="1.9527">
        <ele>1686</ele>
        <time>2017-10-08T06:50:23Z</time>
      </trkpt>
      <trkpt lat="42.51399" lon="1.95262">
        <ele>1690</ele>
        <time>2017-10-08T06:50:53Z</time>
      </trkpt>
      <trkpt lat="42.5139" lon="1.95261">
        <ele>1692</ele>
        <time>2017-10-08T06:51:06Z</time>
      </trkpt>
      <trkpt lat="42.51385" lon="1.95258">
        <ele>1692</ele>
        <time>2017-10-08T06:51:12Z</time>
      </trkpt>
      <trkpt lat="42.5138" lon="1.95257">
        <ele>1693</ele>
        <time>2017-10-08T06:51:17Z</time>
      </trkpt>
      <trkpt lat="42.51368" lon="1.95247">
        <ele>1696</ele>
        <time>2017-10-08T06:51:39Z</time>
      </trkpt>
      <trkpt lat="42.5136" lon="1.95238">
        <ele>1699</ele>
        <time>2017-10-08T06:51:57Z</time>
      </trkpt>
      <trkpt lat="42.51351" lon="1.95237">
        <ele>1701</ele>
        <time>2017-10-08T06:52:12Z</time>
      </trkpt>
      <trkpt lat="42.51336" lon="1.95225">
        <ele>1704</ele>
        <time>2017-10-08T06:52:44Z</time>
      </trkpt>
      <trkpt lat="42.51326" lon="1.95225">
        <ele>1706</ele>
        <time>2017-10-08T06:53:14Z</time>
      </trkpt>
      <trkpt lat="42.51322" lon="1.95222">
        <ele>1706</ele>
        <time>2017-10-08T06:53:19Z</time>
      </trkpt>
      <trkpt lat="42.51318" lon="1.95223">
        <ele>1706</ele>
        <time>2017-10-08T06:53:23Z</time>
      </trkpt>
      <trkpt lat="42.51308" lon="1.95217">
        <ele>1707</ele>
        <time>2017-10-08T06:53:33Z</time>
      </trkpt>
      <trkpt lat="42.51299" lon="1.95204">
        <ele>1711</ele>
        <time>2017-10-08T06:54:27Z</time>
      </trkpt>
      <trkpt lat="42.51291" lon="1.95196">
        <ele>1713</ele>
        <time>2017-10-08T06:54:40Z</time>
      </trkpt>
      <trkpt lat="42.51283" lon="1.95193">
        <ele>1716</ele>
        <time>2017-10-08T06:54:56Z</time>
      </trkpt>
      <trkpt lat="42.5127" lon="1.95177">
        <ele>1721</ele>
        <time>2017-10-08T06:55:26Z</time>
      </trkpt>
      <trkpt lat="42.51248" lon="1.95166">
        <ele>1725</ele>
        <time>2017-10-08T06:55:57Z</time>
      </trkpt>
      <trkpt lat="42.51237" lon="1.95161">
        <ele>1728</ele>
        <time>2017-10-08T06:56:34Z</time>
      </trkpt>
      <trkpt lat="42.51233" lon="1.95157">
        <ele>1730</ele>
        <time>2017-10-08T06:56:44Z</time>
      </trkpt>
      <trkpt lat="42.51229" lon="1.95152">
        <ele>1731</ele>
        <time>2017-10-08T06:56:59Z</time>
      </trkpt>
      <trkpt lat="42.51228" lon="1.95145">
        <ele>1734</ele>
        <time>2017-10-08T06:57:08Z</time>
      </trkpt>
      <trkpt lat="42.51224" lon="1.95144">
        <ele>1735</ele>
        <time>2017-10-08T06:57:17Z</time>
      </trkpt>
      <trkpt lat="42.51216" lon="1.9513">
        <ele>1740</ele>
        <time>2017-10-08T06:57:55Z</time>
      </trkpt>
      <trkpt lat="42.51211" lon="1.95125">
        <ele>1742</ele>
        <time>2017-10-08T06:58:11Z</time>
      </trkpt>
      <trkpt lat="42.51217" lon="1.95122">
        <ele>1744</ele>
        <time>2017-10-08T06:58:43Z</time>
      </trkpt>
      <trkpt lat="42.51224" lon="1.95114">
        <ele>1749</ele>
        <time>2017-10-08T06:59:13Z</time>
      </trkpt>
      <trkpt lat="42.51229" lon="1.95108">
        <ele>1753</ele>
        <time>2017-10-08T06:59:30Z</time>
      </trkpt>
      <trkpt lat="42.51231" lon="1.95102">
        <ele>1754</ele>
        <time>2017-10-08T06:59:57Z</time>
      </trkpt>
      <trkpt lat="42.51228" lon="1.95098">
        <ele>1757</ele>
        <time>2017-10-08T07:03:04Z</time>
      </trkpt>
      <trkpt lat="42.51225" lon="1.95094">
        <ele>1761</ele>
        <time>2017-10-08T07:03:22Z</time>
      </trkpt>
      <trkpt lat="42.51223" lon="1.95084">
        <ele>1763</ele>
        <time>2017-10-08T07:03:40Z</time>
      </trkpt>
      <trkpt lat="42.51221" lon="1.95078">
        <ele>1764</ele>
        <time>2017-10-08T07:03:46Z</time>
      </trkpt>
      <trkpt lat="42.51215" lon="1.95067">
        <ele>1765</ele>
        <time>2017-10-08T07:03:57Z</time>
      </trkpt>
      <trkpt lat="42.51214" lon="1.95061">
        <ele>1766</ele>
        <time>2017-10-08T07:04:03Z</time>
      </trkpt>
      <trkpt lat="42.5122" lon="1.95058">
        <ele>1767</ele>
        <time>2017-10-08T07:04:23Z</time>
      </trkpt>
      <trkpt lat="42.51229" lon="1.95062">
        <ele>1768</ele>
        <time>2017-10-08T07:04:40Z</time>
      </trkpt>
      <trkpt lat="42.51233" lon="1.95059">
        <ele>1770</ele>
        <time>2017-10-08T07:04:46Z</time>
      </trkpt>
      <trkpt lat="42.51238" lon="1.95051">
        <ele>1773</ele>
        <time>2017-10-08T07:05:55Z</time>
      </trkpt>
      <trkpt lat="42.51243" lon="1.95043">
        <ele>1773</ele>
        <time>2017-10-08T07:06:14Z</time>
      </trkpt>
      <trkpt lat="42.51243" lon="1.95035">
        <ele>1774</ele>
        <time>2017-10-08T07:06:32Z</time>
      </trkpt>
      <trkpt lat="42.51247" lon="1.95033">
        <ele>1774</ele>
        <time>2017-10-08T07:06:37Z</time>
      </trkpt>
      <trkpt lat="42.51252" lon="1.9503">
        <ele>1775</ele>
        <time>2017-10-08T07:06:42Z</time>
      </trkpt>
      <trkpt lat="42.51266" lon="1.95028">
        <ele>1776</ele>
        <time>2017-10-08T07:06:55Z</time>
      </trkpt>
      <trkpt lat="42.51271" lon="1.9503">
        <ele>1777</ele>
        <time>2017-10-08T07:07:01Z</time>
      </trkpt>
      <trkpt lat="42.51276" lon="1.95029">
        <ele>1777</ele>
        <time>2017-10-08T07:07:06Z</time>
      </trkpt>
      <trkpt lat="42.51281" lon="1.9503">
        <ele>1778</ele>
        <time>2017-10-08T07:07:11Z</time>
      </trkpt>
      <trkpt lat="42.51286" lon="1.9503">
        <ele>1778</ele>
        <time>2017-10-08T07:07:16Z</time>
      </trkpt>
      <trkpt lat="42.51291" lon="1.9503">
        <ele>1778</ele>
        <time>2017-10-08T07:07:27Z</time>
      </trkpt>
      <trkpt lat="42.51306" lon="1.95024">
        <ele>1779</ele>
        <time>2017-10-08T07:07:41Z</time>
      </trkpt>
      <trkpt lat="42.51316" lon="1.95025">
        <ele>1779</ele>
        <time>2017-10-08T07:07:51Z</time>
      </trkpt>
      <trkpt lat="42.51321" lon="1.95027">
        <ele>1779</ele>
        <time>2017-10-08T07:07:56Z</time>
      </trkpt>
      <trkpt lat="42.51343" lon="1.95026">
        <ele>1780</ele>
        <time>2017-10-08T07:08:30Z</time>
      </trkpt>
      <trkpt lat="42.51372" lon="1.95017">
        <ele>1781</ele>
        <time>2017-10-08T07:08:57Z</time>
      </trkpt>
      <trkpt lat="42.51378" lon="1.95018">
        <ele>1781</ele>
        <time>2017-10-08T07:09:02Z</time>
      </trkpt>
      <trkpt lat="42.51382" lon="1.95021">
        <ele>1782</ele>
        <time>2017-10-08T07:09:07Z</time>
      </trkpt>
      <trkpt lat="42.51392" lon="1.95024">
        <ele>1782</ele>
        <time>2017-10-08T07:09:16Z</time>
      </trkpt>
      <trkpt lat="42.51397" lon="1.95024">
        <ele>1783</ele>
        <time>2017-10-08T07:09:21Z</time>
      </trkpt>
      <trkpt lat="42.51401" lon="1.95022">
        <ele>1783</ele>
        <time>2017-10-08T07:09:26Z</time>
      </trkpt>
      <trkpt lat="42.51416" lon="1.95015">
        <ele>1784</ele>
        <time>2017-10-08T07:09:42Z</time>
      </trkpt>
      <trkpt lat="42.51428" lon="1.95004">
        <ele>1785</ele>
        <time>2017-10-08T07:09:58Z</time>
      </trkpt>
      <trkpt lat="42.51431" lon="1.94998">
        <ele>1786</ele>
        <time>2017-10-08T07:10:04Z</time>
      </trkpt>
      <trkpt lat="42.51436" lon="1.94987">
        <ele>1788</ele>
        <time>2017-10-08T07:10:17Z</time>
      </trkpt>
      <trkpt lat="42.51439" lon="1.94982">
        <ele>1788</ele>
        <time>2017-10-08T07:10:22Z</time>
      </trkpt>
      <trkpt lat="42.51441" lon="1.94976">
        <ele>1788</ele>
        <time>2017-10-08T07:10:29Z</time>
      </trkpt>
      <trkpt lat="42.51446" lon="1.94977">
        <ele>1789</ele>
        <time>2017-10-08T07:10:34Z</time>
      </trkpt>
      <trkpt lat="42.5146" lon="1.94981">
        <ele>1789</ele>
        <time>2017-10-08T07:10:49Z</time>
      </trkpt>
      <trkpt lat="42.51464" lon="1.94984">
        <ele>1789</ele>
        <time>2017-10-08T07:10:53Z</time>
      </trkpt>
      <trkpt lat="42.51469" lon="1.94985">
        <ele>1790</ele>
        <time>2017-10-08T07:10:58Z</time>
      </trkpt>
      <trkpt lat="42.51473" lon="1.94984">
        <ele>1790</ele>
        <time>2017-10-08T07:11:04Z</time>
      </trkpt>
      <trkpt lat="42.51478" lon="1.94984">
        <ele>1791</ele>
        <time>2017-10-08T07:11:10Z</time>
      </trkpt>
      <trkpt lat="42.51496" lon="1.94994">
        <ele>1793</ele>
        <time>2017-10-08T07:11:36Z</time>
      </trkpt>
      <trkpt lat="42.51501" lon="1.94995">
        <ele>1793</ele>
        <time>2017-10-08T07:11:43Z</time>
      </trkpt>
      <trkpt lat="42.51506" lon="1.94995">
        <ele>1795</ele>
        <time>2017-10-08T07:11:49Z</time>
      </trkpt>
      <trkpt lat="42.51512" lon="1.94995">
        <ele>1796</ele>
        <time>2017-10-08T07:12:06Z</time>
      </trkpt>
      <trkpt lat="42.51514" lon="1.9499">
        <ele>1798</ele>
        <time>2017-10-08T07:12:13Z</time>
      </trkpt>
      <trkpt lat="42.51518" lon="1.94985">
        <ele>1799</ele>
        <time>2017-10-08T07:12:26Z</time>
      </trkpt>
      <trkpt lat="42.51523" lon="1.94987">
        <ele>1800</ele>
        <time>2017-10-08T07:12:35Z</time>
      </trkpt>
      <trkpt lat="42.51526" lon="1.94991">
        <ele>1802</ele>
        <time>2017-10-08T07:12:45Z</time>
      </trkpt>
      <trkpt lat="42.51542" lon="1.95003">
        <ele>1806</ele>
        <time>2017-10-08T07:13:26Z</time>
      </trkpt>
      <trkpt lat="42.51547" lon="1.95009">
        <ele>1809</ele>
        <time>2017-10-08T07:13:42Z</time>
      </trkpt>
      <trkpt lat="42.51558" lon="1.95009">
        <ele>1812</ele>
        <time>2017-10-08T07:14:06Z</time>
      </trkpt>
      <trkpt lat="42.51572" lon="1.95016">
        <ele>1818</ele>
        <time>2017-10-08T07:14:38Z</time>
      </trkpt>
      <trkpt lat="42.51587" lon="1.95015">
        <ele>1824</ele>
        <time>2017-10-08T07:15:20Z</time>
      </trkpt>
      <trkpt lat="42.51583" lon="1.95011">
        <ele>1825</ele>
        <time>2017-10-08T07:16:33Z</time>
      </trkpt>
      <trkpt lat="42.51584" lon="1.95017">
        <ele>1829</ele>
        <time>2017-10-08T07:19:33Z</time>
      </trkpt>
      <trkpt lat="42.51611" lon="1.95036">
        <ele>1833</ele>
        <time>2017-10-08T07:20:05Z</time>
      </trkpt>
      <trkpt lat="42.51648" lon="1.95048">
        <ele>1837</ele>
        <time>2017-10-08T07:20:38Z</time>
      </trkpt>
      <trkpt lat="42.51653" lon="1.95049">
        <ele>1838</ele>
        <time>2017-10-08T07:20:43Z</time>
      </trkpt>
      <trkpt lat="42.51666" lon="1.95057">
        <ele>1839</ele>
        <time>2017-10-08T07:20:55Z</time>
      </trkpt>
      <trkpt lat="42.51673" lon="1.95064">
        <ele>1840</ele>
        <time>2017-10-08T07:21:05Z</time>
      </trkpt>
      <trkpt lat="42.51692" lon="1.95072">
        <ele>1843</ele>
        <time>2017-10-08T07:21:26Z</time>
      </trkpt>
      <trkpt lat="42.51696" lon="1.95076">
        <ele>1844</ele>
        <time>2017-10-08T07:21:30Z</time>
      </trkpt>
      <trkpt lat="42.51701" lon="1.95078">
        <ele>1844</ele>
        <time>2017-10-08T07:21:35Z</time>
      </trkpt>
      <trkpt lat="42.51705" lon="1.95083">
        <ele>1846</ele>
        <time>2017-10-08T07:22:02Z</time>
      </trkpt>
      <trkpt lat="42.51709" lon="1.95087">
        <ele>1846</ele>
        <time>2017-10-08T07:22:07Z</time>
      </trkpt>
      <trkpt lat="42.51715" lon="1.95089">
        <ele>1847</ele>
        <time>2017-10-08T07:22:11Z</time>
      </trkpt>
      <trkpt lat="42.51728" lon="1.95099">
        <ele>1848</ele>
        <time>2017-10-08T07:22:25Z</time>
      </trkpt>
      <trkpt lat="42.51741" lon="1.95122">
        <ele>1848</ele>
        <time>2017-10-08T07:22:42Z</time>
      </trkpt>
      <trkpt lat="42.5176" lon="1.95139">
        <ele>1849</ele>
        <time>2017-10-08T07:23:17Z</time>
      </trkpt>
      <trkpt lat="42.51765" lon="1.95142">
        <ele>1849</ele>
        <time>2017-10-08T07:23:22Z</time>
      </trkpt>
      <trkpt lat="42.51772" lon="1.95144">
        <ele>1849</ele>
        <time>2017-10-08T07:23:37Z</time>
      </trkpt>
      <trkpt lat="42.51777" lon="1.95147">
        <ele>1849</ele>
        <time>2017-10-08T07:23:41Z</time>
      </trkpt>
      <trkpt lat="42.51797" lon="1.95165">
        <ele>1850</ele>
        <time>2017-10-08T07:24:05Z</time>
      </trkpt>
      <trkpt lat="42.51817" lon="1.95196">
        <ele>1851</ele>
        <time>2017-10-08T07:24:29Z</time>
      </trkpt>
      <trkpt lat="42.5182" lon="1.95204">
        <ele>1851</ele>
        <time>2017-10-08T07:24:45Z</time>
      </trkpt>
      <trkpt lat="42.51824" lon="1.95206">
        <ele>1852</ele>
        <time>2017-10-08T07:24:58Z</time>
      </trkpt>
      <trkpt lat="42.51828" lon="1.9521">
        <ele>1852</ele>
        <time>2017-10-08T07:25:04Z</time>
      </trkpt>
      <trkpt lat="42.51833" lon="1.95207">
        <ele>1853</ele>
        <time>2017-10-08T07:27:48Z</time>
      </trkpt>
      <trkpt lat="42.51836" lon="1.952">
        <ele>1854</ele>
        <time>2017-10-08T07:27:57Z</time>
      </trkpt>
      <trkpt lat="42.5184" lon="1.95204">
        <ele>1854</ele>
        <time>2017-10-08T07:28:39Z</time>
      </trkpt>
      <trkpt lat="42.5186" lon="1.95198">
        <ele>1855</ele>
        <time>2017-10-08T07:28:56Z</time>
      </trkpt>
      <trkpt lat="42.51871" lon="1.95191">
        <ele>1856</ele>
        <time>2017-10-08T07:29:05Z</time>
      </trkpt>
      <trkpt lat="42.51881" lon="1.95188">
        <ele>1856</ele>
        <time>2017-10-08T07:29:14Z</time>
      </trkpt>
      <trkpt lat="42.51886" lon="1.95184">
        <ele>1857</ele>
        <time>2017-10-08T07:29:19Z</time>
      </trkpt>
      <trkpt lat="42.51901" lon="1.95184">
        <ele>1857</ele>
        <time>2017-10-08T07:29:32Z</time>
      </trkpt>
      <trkpt lat="42.51912" lon="1.95187">
        <ele>1857</ele>
        <time>2017-10-08T07:29:40Z</time>
      </trkpt>
      <trkpt lat="42.51939" lon="1.95207">
        <ele>1858</ele>
        <time>2017-10-08T07:30:04Z</time>
      </trkpt>
      <trkpt lat="42.5195" lon="1.95221">
        <ele>1859</ele>
        <time>2017-10-08T07:30:16Z</time>
      </trkpt>
      <trkpt lat="42.51962" lon="1.95243">
        <ele>1859</ele>
        <time>2017-10-08T07:30:46Z</time>
      </trkpt>
      <trkpt lat="42.51971" lon="1.95251">
        <ele>1859</ele>
        <time>2017-10-08T07:30:55Z</time>
      </trkpt>
      <trkpt lat="42.5198" lon="1.95255">
        <ele>1860</ele>
        <time>2017-10-08T07:31:06Z</time>
      </trkpt>
      <trkpt lat="42.52001" lon="1.95257">
        <ele>1862</ele>
        <time>2017-10-08T07:31:25Z</time>
      </trkpt>
      <trkpt lat="42.52035" lon="1.95248">
        <ele>1866</ele>
        <time>2017-10-08T07:31:55Z</time>
      </trkpt>
      <trkpt lat="42.5204" lon="1.95246">
        <ele>1866</ele>
        <time>2017-10-08T07:32:00Z</time>
      </trkpt>
      <trkpt lat="42.52054" lon="1.95246">
        <ele>1867</ele>
        <time>2017-10-08T07:32:14Z</time>
      </trkpt>
      <trkpt lat="42.52074" lon="1.95249">
        <ele>1869</ele>
        <time>2017-10-08T07:32:34Z</time>
      </trkpt>
      <trkpt lat="42.52093" lon="1.95241">
        <ele>1871</ele>
        <time>2017-10-08T07:32:53Z</time>
      </trkpt>
      <trkpt lat="42.52117" lon="1.95267">
        <ele>1874</ele>
        <time>2017-10-08T07:33:24Z</time>
      </trkpt>
      <trkpt lat="42.52126" lon="1.95276">
        <ele>1875</ele>
        <time>2017-10-08T07:33:34Z</time>
      </trkpt>
      <trkpt lat="42.52128" lon="1.95281">
        <ele>1876</ele>
        <time>2017-10-08T07:33:39Z</time>
      </trkpt>
      <trkpt lat="42.52133" lon="1.95286">
        <ele>1876</ele>
        <time>2017-10-08T07:33:57Z</time>
      </trkpt>
      <trkpt lat="42.52155" lon="1.95322">
        <ele>1879</ele>
        <time>2017-10-08T07:34:30Z</time>
      </trkpt>
      <trkpt lat="42.52158" lon="1.95328">
        <ele>1880</ele>
        <time>2017-10-08T07:34:35Z</time>
      </trkpt>
      <trkpt lat="42.52166" lon="1.95339">
        <ele>1882</ele>
        <time>2017-10-08T07:35:24Z</time>
      </trkpt>
      <trkpt lat="42.52168" lon="1.95345">
        <ele>1882</ele>
        <time>2017-10-08T07:35:29Z</time>
      </trkpt>
      <trkpt lat="42.52192" lon="1.95378">
        <ele>1885</ele>
        <time>2017-10-08T07:35:59Z</time>
      </trkpt>
      <trkpt lat="42.52196" lon="1.95383">
        <ele>1885</ele>
        <time>2017-10-08T07:36:04Z</time>
      </trkpt>
      <trkpt lat="42.522" lon="1.95391">
        <ele>1886</ele>
        <time>2017-10-08T07:36:16Z</time>
      </trkpt>
      <trkpt lat="42.52204" lon="1.95393">
        <ele>1886</ele>
        <time>2017-10-08T07:36:20Z</time>
      </trkpt>
      <trkpt lat="42.52215" lon="1.95393">
        <ele>1888</ele>
        <time>2017-10-08T07:36:30Z</time>
      </trkpt>
      <trkpt lat="42.52219" lon="1.95392">
        <ele>1888</ele>
        <time>2017-10-08T07:36:34Z</time>
      </trkpt>
      <trkpt lat="42.52239" lon="1.95395">
        <ele>1890</ele>
        <time>2017-10-08T07:36:52Z</time>
      </trkpt>
      <trkpt lat="42.52244" lon="1.95395">
        <ele>1891</ele>
        <time>2017-10-08T07:36:59Z</time>
      </trkpt>
      <trkpt lat="42.52252" lon="1.95391">
        <ele>1892</ele>
        <time>2017-10-08T07:37:22Z</time>
      </trkpt>
      <trkpt lat="42.52268" lon="1.95388">
        <ele>1893</ele>
        <time>2017-10-08T07:37:35Z</time>
      </trkpt>
      <trkpt lat="42.52272" lon="1.95383">
        <ele>1893</ele>
        <time>2017-10-08T07:37:40Z</time>
      </trkpt>
      <trkpt lat="42.52283" lon="1.9538">
        <ele>1894</ele>
        <time>2017-10-08T07:37:50Z</time>
      </trkpt>
      <trkpt lat="42.52286" lon="1.95374">
        <ele>1894</ele>
        <time>2017-10-08T07:37:54Z</time>
      </trkpt>
      <trkpt lat="42.52294" lon="1.95367">
        <ele>1895</ele>
        <time>2017-10-08T07:38:02Z</time>
      </trkpt>
      <trkpt lat="42.52297" lon="1.9536">
        <ele>1895</ele>
        <time>2017-10-08T07:38:07Z</time>
      </trkpt>
      <trkpt lat="42.52316" lon="1.95331">
        <ele>1899</ele>
        <time>2017-10-08T07:38:33Z</time>
      </trkpt>
      <trkpt lat="42.52316" lon="1.95323">
        <ele>1900</ele>
        <time>2017-10-08T07:38:49Z</time>
      </trkpt>
      <trkpt lat="42.52323" lon="1.95318">
        <ele>1900</ele>
        <time>2017-10-08T07:39:01Z</time>
      </trkpt>
      <trkpt lat="42.5233" lon="1.9531">
        <ele>1900</ele>
        <time>2017-10-08T07:39:16Z</time>
      </trkpt>
      <trkpt lat="42.5234" lon="1.9531">
        <ele>1901</ele>
        <time>2017-10-08T07:39:45Z</time>
      </trkpt>
      <trkpt lat="42.52342" lon="1.95305">
        <ele>1902</ele>
        <time>2017-10-08T07:39:52Z</time>
      </trkpt>
      <trkpt lat="42.52347" lon="1.95302">
        <ele>1902</ele>
        <time>2017-10-08T07:39:57Z</time>
      </trkpt>
      <trkpt lat="42.52348" lon="1.95295">
        <ele>1903</ele>
        <time>2017-10-08T07:40:05Z</time>
      </trkpt>
      <trkpt lat="42.52353" lon="1.95298">
        <ele>1903</ele>
        <time>2017-10-08T07:40:17Z</time>
      </trkpt>
      <trkpt lat="42.52367" lon="1.95291">
        <ele>1904</ele>
        <time>2017-10-08T07:40:32Z</time>
      </trkpt>
      <trkpt lat="42.52372" lon="1.9529">
        <ele>1905</ele>
        <time>2017-10-08T07:40:52Z</time>
      </trkpt>
      <trkpt lat="42.52381" lon="1.95283">
        <ele>1906</ele>
        <time>2017-10-08T07:41:04Z</time>
      </trkpt>
      <trkpt lat="42.52386" lon="1.95282">
        <ele>1906</ele>
        <time>2017-10-08T07:41:08Z</time>
      </trkpt>
      <trkpt lat="42.52396" lon="1.95278">
        <ele>1907</ele>
        <time>2017-10-08T07:41:18Z</time>
      </trkpt>
      <trkpt lat="42.52417" lon="1.95277">
        <ele>1909</ele>
        <time>2017-10-08T07:41:38Z</time>
      </trkpt>
      <trkpt lat="42.52423" lon="1.95274">
        <ele>1909</ele>
        <time>2017-10-08T07:41:52Z</time>
      </trkpt>
      <trkpt lat="42.52434" lon="1.9527">
        <ele>1910</ele>
        <time>2017-10-08T07:42:28Z</time>
      </trkpt>
      <trkpt lat="42.52439" lon="1.9527">
        <ele>1911</ele>
        <time>2017-10-08T07:42:34Z</time>
      </trkpt>
      <trkpt lat="42.52444" lon="1.95269">
        <ele>1911</ele>
        <time>2017-10-08T07:42:40Z</time>
      </trkpt>
      <trkpt lat="42.52454" lon="1.95272">
        <ele>1912</ele>
        <time>2017-10-08T07:43:00Z</time>
      </trkpt>
      <trkpt lat="42.52458" lon="1.95261">
        <ele>1913</ele>
        <time>2017-10-08T07:43:42Z</time>
      </trkpt>
      <trkpt lat="42.52462" lon="1.95259">
        <ele>1913</ele>
        <time>2017-10-08T07:43:47Z</time>
      </trkpt>
      <trkpt lat="42.52468" lon="1.95258">
        <ele>1914</ele>
        <time>2017-10-08T07:43:53Z</time>
      </trkpt>
      <trkpt lat="42.52469" lon="1.95252">
        <ele>1914</ele>
        <time>2017-10-08T07:43:57Z</time>
      </trkpt>
      <trkpt lat="42.52473" lon="1.95247">
        <ele>1914</ele>
        <time>2017-10-08T07:44:01Z</time>
      </trkpt>
      <trkpt lat="42.52479" lon="1.95235">
        <ele>1915</ele>
        <time>2017-10-08T07:44:09Z</time>
      </trkpt>
      <trkpt lat="42.52489" lon="1.95233">
        <ele>1916</ele>
        <time>2017-10-08T07:44:16Z</time>
      </trkpt>
      <trkpt lat="42.52493" lon="1.95228">
        <ele>1916</ele>
        <time>2017-10-08T07:44:21Z</time>
      </trkpt>
      <trkpt lat="42.52496" lon="1.95223">
        <ele>1917</ele>
        <time>2017-10-08T07:44:24Z</time>
      </trkpt>
      <trkpt lat="42.52501" lon="1.9521">
        <ele>1918</ele>
        <time>2017-10-08T07:44:34Z</time>
      </trkpt>
      <trkpt lat="42.52504" lon="1.95205">
        <ele>1918</ele>
        <time>2017-10-08T07:44:38Z</time>
      </trkpt>
      <trkpt lat="42.52507" lon="1.95201">
        <ele>1919</ele>
        <time>2017-10-08T07:44:42Z</time>
      </trkpt>
      <trkpt lat="42.5251" lon="1.95195">
        <ele>1919</ele>
        <time>2017-10-08T07:44:47Z</time>
      </trkpt>
      <trkpt lat="42.52518" lon="1.95186">
        <ele>1921</ele>
        <time>2017-10-08T07:44:57Z</time>
      </trkpt>
      <trkpt lat="42.52519" lon="1.9518">
        <ele>1921</ele>
        <time>2017-10-08T07:45:07Z</time>
      </trkpt>
      <trkpt lat="42.52523" lon="1.95176">
        <ele>1922</ele>
        <time>2017-10-08T07:45:14Z</time>
      </trkpt>
      <trkpt lat="42.5253" lon="1.95158">
        <ele>1923</ele>
        <time>2017-10-08T07:45:29Z</time>
      </trkpt>
      <trkpt lat="42.52533" lon="1.95152">
        <ele>1923</ele>
        <time>2017-10-08T07:45:35Z</time>
      </trkpt>
      <trkpt lat="42.52538" lon="1.95137">
        <ele>1923</ele>
        <time>2017-10-08T07:45:54Z</time>
      </trkpt>
      <trkpt lat="42.52543" lon="1.95135">
        <ele>1923</ele>
        <time>2017-10-08T07:45:59Z</time>
      </trkpt>
      <trkpt lat="42.52548" lon="1.95123">
        <ele>1924</ele>
        <time>2017-10-08T07:46:09Z</time>
      </trkpt>
      <trkpt lat="42.5255" lon="1.95108">
        <ele>1924</ele>
        <time>2017-10-08T07:46:25Z</time>
      </trkpt>
      <trkpt lat="42.52552" lon="1.95102">
        <ele>1925</ele>
        <time>2017-10-08T07:46:31Z</time>
      </trkpt>
      <trkpt lat="42.52557" lon="1.951">
        <ele>1925</ele>
        <time>2017-10-08T07:46:36Z</time>
      </trkpt>
      <trkpt lat="42.52566" lon="1.95075">
        <ele>1927</ele>
        <time>2017-10-08T07:46:54Z</time>
      </trkpt>
      <trkpt lat="42.52576" lon="1.95062">
        <ele>1928</ele>
        <time>2017-10-08T07:47:11Z</time>
      </trkpt>
      <trkpt lat="42.52578" lon="1.95056">
        <ele>1929</ele>
        <time>2017-10-08T07:47:16Z</time>
      </trkpt>
      <trkpt lat="42.5258" lon="1.9505">
        <ele>1929</ele>
        <time>2017-10-08T07:47:21Z</time>
      </trkpt>
      <trkpt lat="42.52584" lon="1.95046">
        <ele>1930</ele>
        <time>2017-10-08T07:47:25Z</time>
      </trkpt>
      <trkpt lat="42.52594" lon="1.95046">
        <ele>1931</ele>
        <time>2017-10-08T07:47:49Z</time>
      </trkpt>
      <trkpt lat="42.52599" lon="1.95051">
        <ele>1931</ele>
        <time>2017-10-08T07:47:54Z</time>
      </trkpt>
      <trkpt lat="42.52611" lon="1.95073">
        <ele>1933</ele>
        <time>2017-10-08T07:48:11Z</time>
      </trkpt>
      <trkpt lat="42.52616" lon="1.95075">
        <ele>1933</ele>
        <time>2017-10-08T07:48:15Z</time>
      </trkpt>
      <trkpt lat="42.52626" lon="1.95077">
        <ele>1935</ele>
        <time>2017-10-08T07:48:23Z</time>
      </trkpt>
      <trkpt lat="42.52643" lon="1.95091">
        <ele>1938</ele>
        <time>2017-10-08T07:48:42Z</time>
      </trkpt>
      <trkpt lat="42.52662" lon="1.95123">
        <ele>1940</ele>
        <time>2017-10-08T07:49:09Z</time>
      </trkpt>
      <trkpt lat="42.52665" lon="1.95129">
        <ele>1940</ele>
        <time>2017-10-08T07:49:13Z</time>
      </trkpt>
      <trkpt lat="42.52668" lon="1.95134">
        <ele>1941</ele>
        <time>2017-10-08T07:49:18Z</time>
      </trkpt>
      <trkpt lat="42.52671" lon="1.95141">
        <ele>1941</ele>
        <time>2017-10-08T07:49:23Z</time>
      </trkpt>
      <trkpt lat="42.52691" lon="1.95178">
        <ele>1945</ele>
        <time>2017-10-08T07:49:55Z</time>
      </trkpt>
      <trkpt lat="42.52708" lon="1.95221">
        <ele>1947</ele>
        <time>2017-10-08T07:50:26Z</time>
      </trkpt>
      <trkpt lat="42.52719" lon="1.95249">
        <ele>1948</ele>
        <time>2017-10-08T07:51:01Z</time>
      </trkpt>
      <trkpt lat="42.52725" lon="1.95267">
        <ele>1950</ele>
        <time>2017-10-08T07:51:14Z</time>
      </trkpt>
      <trkpt lat="42.52724" lon="1.95273">
        <ele>1950</ele>
        <time>2017-10-08T07:51:18Z</time>
      </trkpt>
      <trkpt lat="42.52728" lon="1.95287">
        <ele>1951</ele>
        <time>2017-10-08T07:51:28Z</time>
      </trkpt>
      <trkpt lat="42.5273" lon="1.95293">
        <ele>1952</ele>
        <time>2017-10-08T07:51:32Z</time>
      </trkpt>
      <trkpt lat="42.52731" lon="1.95326">
        <ele>1953</ele>
        <time>2017-10-08T07:51:56Z</time>
      </trkpt>
      <trkpt lat="42.52734" lon="1.95338">
        <ele>1954</ele>
        <time>2017-10-08T07:52:05Z</time>
      </trkpt>
      <trkpt lat="42.52738" lon="1.95386">
        <ele>1958</ele>
        <time>2017-10-08T07:52:40Z</time>
      </trkpt>
      <trkpt lat="42.52736" lon="1.95392">
        <ele>1959</ele>
        <time>2017-10-08T07:52:46Z</time>
      </trkpt>
      <trkpt lat="42.52736" lon="1.95399">
        <ele>1959</ele>
        <time>2017-10-08T07:52:51Z</time>
      </trkpt>
      <trkpt lat="42.52737" lon="1.95406">
        <ele>1960</ele>
        <time>2017-10-08T07:53:39Z</time>
      </trkpt>
      <trkpt lat="42.52739" lon="1.95414">
        <ele>1960</ele>
        <time>2017-10-08T07:53:44Z</time>
      </trkpt>
      <trkpt lat="42.52737" lon="1.95469">
        <ele>1963</ele>
        <time>2017-10-08T07:54:17Z</time>
      </trkpt>
      <trkpt lat="42.52738" lon="1.95479">
        <ele>1963</ele>
        <time>2017-10-08T07:55:01Z</time>
      </trkpt>
      <trkpt lat="42.52737" lon="1.95487">
        <ele>1963</ele>
        <time>2017-10-08T07:55:05Z</time>
      </trkpt>
      <trkpt lat="42.52737" lon="1.95515">
        <ele>1964</ele>
        <time>2017-10-08T07:55:21Z</time>
      </trkpt>
      <trkpt lat="42.52744" lon="1.95546">
        <ele>1967</ele>
        <time>2017-10-08T07:55:45Z</time>
      </trkpt>
      <trkpt lat="42.52747" lon="1.95552">
        <ele>1968</ele>
        <time>2017-10-08T07:55:49Z</time>
      </trkpt>
      <trkpt lat="42.5275" lon="1.95565">
        <ele>1969</ele>
        <time>2017-10-08T07:55:59Z</time>
      </trkpt>
      <trkpt lat="42.52759" lon="1.95588">
        <ele>1972</ele>
        <time>2017-10-08T07:56:20Z</time>
      </trkpt>
      <trkpt lat="42.5276" lon="1.95595">
        <ele>1973</ele>
        <time>2017-10-08T07:56:25Z</time>
      </trkpt>
      <trkpt lat="42.52763" lon="1.95601">
        <ele>1974</ele>
        <time>2017-10-08T07:56:30Z</time>
      </trkpt>
      <trkpt lat="42.52763" lon="1.95608">
        <ele>1974</ele>
        <time>2017-10-08T07:56:36Z</time>
      </trkpt>
      <trkpt lat="42.52765" lon="1.95622">
        <ele>1975</ele>
        <time>2017-10-08T07:56:46Z</time>
      </trkpt>
      <trkpt lat="42.52769" lon="1.95668">
        <ele>1978</ele>
        <time>2017-10-08T07:57:20Z</time>
      </trkpt>
      <trkpt lat="42.52768" lon="1.95675">
        <ele>1978</ele>
        <time>2017-10-08T07:57:25Z</time>
      </trkpt>
      <trkpt lat="42.52771" lon="1.9568">
        <ele>1979</ele>
        <time>2017-10-08T07:57:29Z</time>
      </trkpt>
      <trkpt lat="42.52776" lon="1.95684">
        <ele>1979</ele>
        <time>2017-10-08T07:57:34Z</time>
      </trkpt>
      <trkpt lat="42.5278" lon="1.95681">
        <ele>1980</ele>
        <time>2017-10-08T07:57:39Z</time>
      </trkpt>
      <trkpt lat="42.52782" lon="1.95675">
        <ele>1980</ele>
        <time>2017-10-08T07:57:44Z</time>
      </trkpt>
      <trkpt lat="42.52781" lon="1.95668">
        <ele>1981</ele>
        <time>2017-10-08T07:57:50Z</time>
      </trkpt>
      <trkpt lat="42.52784" lon="1.95653">
        <ele>1982</ele>
        <time>2017-10-08T07:58:10Z</time>
      </trkpt>
      <trkpt lat="42.52791" lon="1.95635">
        <ele>1983</ele>
        <time>2017-10-08T07:58:27Z</time>
      </trkpt>
      <trkpt lat="42.52791" lon="1.95628">
        <ele>1984</ele>
        <time>2017-10-08T07:58:31Z</time>
      </trkpt>
      <trkpt lat="42.52802" lon="1.95585">
        <ele>1986</ele>
        <time>2017-10-08T07:59:05Z</time>
      </trkpt>
      <trkpt lat="42.52804" lon="1.95579">
        <ele>1986</ele>
        <time>2017-10-08T07:59:10Z</time>
      </trkpt>
      <trkpt lat="42.52811" lon="1.95546">
        <ele>1987</ele>
        <time>2017-10-08T07:59:35Z</time>
      </trkpt>
      <trkpt lat="42.52813" lon="1.95527">
        <ele>1988</ele>
        <time>2017-10-08T07:59:49Z</time>
      </trkpt>
      <trkpt lat="42.52814" lon="1.95521">
        <ele>1988</ele>
        <time>2017-10-08T07:59:54Z</time>
      </trkpt>
      <trkpt lat="42.52817" lon="1.95515">
        <ele>1989</ele>
        <time>2017-10-08T08:00:00Z</time>
      </trkpt>
      <trkpt lat="42.52818" lon="1.95508">
        <ele>1989</ele>
        <time>2017-10-08T08:00:05Z</time>
      </trkpt>
      <trkpt lat="42.52821" lon="1.95502">
        <ele>1989</ele>
        <time>2017-10-08T08:00:11Z</time>
      </trkpt>
      <trkpt lat="42.52826" lon="1.95482">
        <ele>1990</ele>
        <time>2017-10-08T08:00:45Z</time>
      </trkpt>
      <trkpt lat="42.52829" lon="1.95477">
        <ele>1990</ele>
        <time>2017-10-08T08:00:49Z</time>
      </trkpt>
      <trkpt lat="42.52839" lon="1.95451">
        <ele>1992</ele>
        <time>2017-10-08T08:01:09Z</time>
      </trkpt>
      <trkpt lat="42.52842" lon="1.95447">
        <ele>1993</ele>
        <time>2017-10-08T08:01:14Z</time>
      </trkpt>
      <trkpt lat="42.52851" lon="1.95423">
        <ele>1997</ele>
        <time>2017-10-08T08:01:47Z</time>
      </trkpt>
      <trkpt lat="42.52853" lon="1.95417">
        <ele>1997</ele>
        <time>2017-10-08T08:01:55Z</time>
      </trkpt>
      <trkpt lat="42.52853" lon="1.9541">
        <ele>1998</ele>
        <time>2017-10-08T08:02:00Z</time>
      </trkpt>
      <trkpt lat="42.52853" lon="1.95403">
        <ele>1998</ele>
        <time>2017-10-08T08:02:04Z</time>
      </trkpt>
      <trkpt lat="42.52858" lon="1.95399">
        <ele>1999</ele>
        <time>2017-10-08T08:02:10Z</time>
      </trkpt>
      <trkpt lat="42.52861" lon="1.95393">
        <ele>1999</ele>
        <time>2017-10-08T08:02:16Z</time>
      </trkpt>
      <trkpt lat="42.52862" lon="1.95386">
        <ele>2000</ele>
        <time>2017-10-08T08:02:21Z</time>
      </trkpt>
      <trkpt lat="42.52878" lon="1.95343">
        <ele>2004</ele>
        <time>2017-10-08T08:02:55Z</time>
      </trkpt>
      <trkpt lat="42.52883" lon="1.95331">
        <ele>2005</ele>
        <time>2017-10-08T08:03:05Z</time>
      </trkpt>
      <trkpt lat="42.52887" lon="1.95326">
        <ele>2005</ele>
        <time>2017-10-08T08:03:10Z</time>
      </trkpt>
      <trkpt lat="42.52893" lon="1.95322">
        <ele>2006</ele>
        <time>2017-10-08T08:04:14Z</time>
      </trkpt>
      <trkpt lat="42.52917" lon="1.95314">
        <ele>2009</ele>
        <time>2017-10-08T08:04:38Z</time>
      </trkpt>
      <trkpt lat="42.52935" lon="1.95304">
        <ele>2011</ele>
        <time>2017-10-08T08:04:56Z</time>
      </trkpt>
      <trkpt lat="42.52955" lon="1.95272">
        <ele>2015</ele>
        <time>2017-10-08T08:05:28Z</time>
      </trkpt>
      <trkpt lat="42.52959" lon="1.95268">
        <ele>2015</ele>
        <time>2017-10-08T08:05:33Z</time>
      </trkpt>
      <trkpt lat="42.52968" lon="1.95252">
        <ele>2016</ele>
        <time>2017-10-08T08:05:46Z</time>
      </trkpt>
      <trkpt lat="42.5297" lon="1.9524">
        <ele>2016</ele>
        <time>2017-10-08T08:05:54Z</time>
      </trkpt>
      <trkpt lat="42.52967" lon="1.95198">
        <ele>2017</ele>
        <time>2017-10-08T08:06:21Z</time>
      </trkpt>
      <trkpt lat="42.52972" lon="1.95178">
        <ele>2018</ele>
        <time>2017-10-08T08:06:36Z</time>
      </trkpt>
      <trkpt lat="42.52972" lon="1.95165">
        <ele>2018</ele>
        <time>2017-10-08T08:06:44Z</time>
      </trkpt>
      <trkpt lat="42.52973" lon="1.95159">
        <ele>2018</ele>
        <time>2017-10-08T08:06:48Z</time>
      </trkpt>
      <trkpt lat="42.52975" lon="1.95125">
        <ele>2019</ele>
        <time>2017-10-08T08:07:10Z</time>
      </trkpt>
      <trkpt lat="42.52978" lon="1.95111">
        <ele>2019</ele>
        <time>2017-10-08T08:07:19Z</time>
      </trkpt>
      <trkpt lat="42.52979" lon="1.95098">
        <ele>2019</ele>
        <time>2017-10-08T08:07:28Z</time>
      </trkpt>
      <trkpt lat="42.52985" lon="1.95086">
        <ele>2020</ele>
        <time>2017-10-08T08:07:38Z</time>
      </trkpt>
      <trkpt lat="42.52991" lon="1.95077">
        <ele>2020</ele>
        <time>2017-10-08T08:07:46Z</time>
      </trkpt>
      <trkpt lat="42.53" lon="1.95055">
        <ele>2021</ele>
        <time>2017-10-08T08:08:06Z</time>
      </trkpt>
      <trkpt lat="42.53006" lon="1.95021">
        <ele>2023</ele>
        <time>2017-10-08T08:08:29Z</time>
      </trkpt>
      <trkpt lat="42.53013" lon="1.95004">
        <ele>2024</ele>
        <time>2017-10-08T08:08:42Z</time>
      </trkpt>
      <trkpt lat="42.53017" lon="1.94978">
        <ele>2026</ele>
        <time>2017-10-08T08:09:00Z</time>
      </trkpt>
      <trkpt lat="42.5302" lon="1.94972">
        <ele>2026</ele>
        <time>2017-10-08T08:09:06Z</time>
      </trkpt>
      <trkpt lat="42.53026" lon="1.9496">
        <ele>2028</ele>
        <time>2017-10-08T08:09:16Z</time>
      </trkpt>
      <trkpt lat="42.53029" lon="1.94955">
        <ele>2028</ele>
        <time>2017-10-08T08:09:21Z</time>
      </trkpt>
      <trkpt lat="42.53032" lon="1.94951">
        <ele>2029</ele>
        <time>2017-10-08T08:09:25Z</time>
      </trkpt>
      <trkpt lat="42.53036" lon="1.94942">
        <ele>2034</ele>
        <time>2017-10-08T08:12:39Z</time>
      </trkpt>
      <trkpt lat="42.53041" lon="1.94938">
        <ele>2035</ele>
        <time>2017-10-08T08:12:44Z</time>
      </trkpt>
      <trkpt lat="42.53066" lon="1.94906">
        <ele>2037</ele>
        <time>2017-10-08T08:13:15Z</time>
      </trkpt>
      <trkpt lat="42.53087" lon="1.94884">
        <ele>2039</ele>
        <time>2017-10-08T08:13:35Z</time>
      </trkpt>
      <trkpt lat="42.53097" lon="1.94878">
        <ele>2040</ele>
        <time>2017-10-08T08:13:43Z</time>
      </trkpt>
      <trkpt lat="42.53117" lon="1.94874">
        <ele>2042</ele>
        <time>2017-10-08T08:14:00Z</time>
      </trkpt>
      <trkpt lat="42.53126" lon="1.94869">
        <ele>2043</ele>
        <time>2017-10-08T08:14:09Z</time>
      </trkpt>
      <trkpt lat="42.53135" lon="1.94862">
        <ele>2044</ele>
        <time>2017-10-08T08:14:17Z</time>
      </trkpt>
      <trkpt lat="42.53138" lon="1.94856">
        <ele>2044</ele>
        <time>2017-10-08T08:14:21Z</time>
      </trkpt>
      <trkpt lat="42.53143" lon="1.94853">
        <ele>2045</ele>
        <time>2017-10-08T08:14:25Z</time>
      </trkpt>
      <trkpt lat="42.53167" lon="1.94829">
        <ele>2047</ele>
        <time>2017-10-08T08:14:50Z</time>
      </trkpt>
      <trkpt lat="42.53172" lon="1.94827">
        <ele>2048</ele>
        <time>2017-10-08T08:14:54Z</time>
      </trkpt>
      <trkpt lat="42.53175" lon="1.94822">
        <ele>2048</ele>
        <time>2017-10-08T08:14:58Z</time>
      </trkpt>
      <trkpt lat="42.53188" lon="1.94784">
        <ele>2050</ele>
        <time>2017-10-08T08:15:26Z</time>
      </trkpt>
      <trkpt lat="42.53188" lon="1.94778">
        <ele>2050</ele>
        <time>2017-10-08T08:15:30Z</time>
      </trkpt>
      <trkpt lat="42.53202" lon="1.94733">
        <ele>2051</ele>
        <time>2017-10-08T08:16:01Z</time>
      </trkpt>
      <trkpt lat="42.5321" lon="1.94687">
        <ele>2053</ele>
        <time>2017-10-08T08:16:31Z</time>
      </trkpt>
      <trkpt lat="42.53215" lon="1.94668">
        <ele>2054</ele>
        <time>2017-10-08T08:16:44Z</time>
      </trkpt>
      <trkpt lat="42.53223" lon="1.9465">
        <ele>2055</ele>
        <time>2017-10-08T08:17:01Z</time>
      </trkpt>
      <trkpt lat="42.53225" lon="1.9464">
        <ele>2056</ele>
        <time>2017-10-08T08:17:26Z</time>
      </trkpt>
      <trkpt lat="42.53224" lon="1.94634">
        <ele>2056</ele>
        <time>2017-10-08T08:17:30Z</time>
      </trkpt>
      <trkpt lat="42.5323" lon="1.94608">
        <ele>2057</ele>
        <time>2017-10-08T08:17:49Z</time>
      </trkpt>
      <trkpt lat="42.53233" lon="1.94587">
        <ele>2058</ele>
        <time>2017-10-08T08:18:04Z</time>
      </trkpt>
      <trkpt lat="42.53241" lon="1.94564">
        <ele>2060</ele>
        <time>2017-10-08T08:18:24Z</time>
      </trkpt>
      <trkpt lat="42.5324" lon="1.94558">
        <ele>2061</ele>
        <time>2017-10-08T08:18:29Z</time>
      </trkpt>
      <trkpt lat="42.53243" lon="1.94552">
        <ele>2061</ele>
        <time>2017-10-08T08:18:34Z</time>
      </trkpt>
      <trkpt lat="42.53244" lon="1.94546">
        <ele>2062</ele>
        <time>2017-10-08T08:18:40Z</time>
      </trkpt>
      <trkpt lat="42.53248" lon="1.94534">
        <ele>2063</ele>
        <time>2017-10-08T08:18:51Z</time>
      </trkpt>
      <trkpt lat="42.53248" lon="1.94527">
        <ele>2063</ele>
        <time>2017-10-08T08:18:56Z</time>
      </trkpt>
      <trkpt lat="42.53253" lon="1.94509">
        <ele>2065</ele>
        <time>2017-10-08T08:19:21Z</time>
      </trkpt>
      <trkpt lat="42.53256" lon="1.94503">
        <ele>2065</ele>
        <time>2017-10-08T08:19:26Z</time>
      </trkpt>
      <trkpt lat="42.53257" lon="1.94497">
        <ele>2065</ele>
        <time>2017-10-08T08:19:30Z</time>
      </trkpt>
      <trkpt lat="42.53261" lon="1.94485">
        <ele>2065</ele>
        <time>2017-10-08T08:19:39Z</time>
      </trkpt>
      <trkpt lat="42.53264" lon="1.94466">
        <ele>2066</ele>
        <time>2017-10-08T08:19:54Z</time>
      </trkpt>
      <trkpt lat="42.53268" lon="1.94453">
        <ele>2067</ele>
        <time>2017-10-08T08:20:03Z</time>
      </trkpt>
      <trkpt lat="42.53271" lon="1.94448">
        <ele>2068</ele>
        <time>2017-10-08T08:20:12Z</time>
      </trkpt>
      <trkpt lat="42.53279" lon="1.94448">
        <ele>2068</ele>
        <time>2017-10-08T08:20:28Z</time>
      </trkpt>
      <trkpt lat="42.53285" lon="1.94446">
        <ele>2068</ele>
        <time>2017-10-08T08:20:39Z</time>
      </trkpt>
      <trkpt lat="42.53292" lon="1.94442">
        <ele>2069</ele>
        <time>2017-10-08T08:20:50Z</time>
      </trkpt>
      <trkpt lat="42.53299" lon="1.94447">
        <ele>2070</ele>
        <time>2017-10-08T08:21:47Z</time>
      </trkpt>
      <trkpt lat="42.53307" lon="1.94441">
        <ele>2073</ele>
        <time>2017-10-08T08:27:14Z</time>
      </trkpt>
      <trkpt lat="42.5331" lon="1.94436">
        <ele>2073</ele>
        <time>2017-10-08T08:27:19Z</time>
      </trkpt>
      <trkpt lat="42.53318" lon="1.94427">
        <ele>2073</ele>
        <time>2017-10-08T08:27:29Z</time>
      </trkpt>
      <trkpt lat="42.53322" lon="1.94421">
        <ele>2074</ele>
        <time>2017-10-08T08:27:55Z</time>
      </trkpt>
      <trkpt lat="42.53327" lon="1.94417">
        <ele>2074</ele>
        <time>2017-10-08T08:28:07Z</time>
      </trkpt>
      <trkpt lat="42.53332" lon="1.94415">
        <ele>2074</ele>
        <time>2017-10-08T08:28:13Z</time>
      </trkpt>
      <trkpt lat="42.53336" lon="1.94412">
        <ele>2075</ele>
        <time>2017-10-08T08:28:21Z</time>
      </trkpt>
      <trkpt lat="42.53345" lon="1.94416">
        <ele>2077</ele>
        <time>2017-10-08T08:28:38Z</time>
      </trkpt>
      <trkpt lat="42.5336" lon="1.94416">
        <ele>2079</ele>
        <time>2017-10-08T08:29:04Z</time>
      </trkpt>
      <trkpt lat="42.53364" lon="1.94413">
        <ele>2080</ele>
        <time>2017-10-08T08:29:11Z</time>
      </trkpt>
      <trkpt lat="42.53369" lon="1.94414">
        <ele>2080</ele>
        <time>2017-10-08T08:29:17Z</time>
      </trkpt>
      <trkpt lat="42.53373" lon="1.94412">
        <ele>2081</ele>
        <time>2017-10-08T08:29:24Z</time>
      </trkpt>
      <trkpt lat="42.53389" lon="1.94417">
        <ele>2084</ele>
        <time>2017-10-08T08:29:55Z</time>
      </trkpt>
      <trkpt lat="42.53405" lon="1.94421">
        <ele>2089</ele>
        <time>2017-10-08T08:30:30Z</time>
      </trkpt>
      <trkpt lat="42.5341" lon="1.94423">
        <ele>2090</ele>
        <time>2017-10-08T08:30:40Z</time>
      </trkpt>
      <trkpt lat="42.53417" lon="1.94424">
        <ele>2091</ele>
        <time>2017-10-08T08:30:54Z</time>
      </trkpt>
      <trkpt lat="42.53426" lon="1.94429">
        <ele>2093</ele>
        <time>2017-10-08T08:31:10Z</time>
      </trkpt>
      <trkpt lat="42.53431" lon="1.94431">
        <ele>2094</ele>
        <time>2017-10-08T08:31:16Z</time>
      </trkpt>
      <trkpt lat="42.53444" lon="1.94439">
        <ele>2097</ele>
        <time>2017-10-08T08:31:40Z</time>
      </trkpt>
      <trkpt lat="42.53453" lon="1.94443">
        <ele>2099</ele>
        <time>2017-10-08T08:31:55Z</time>
      </trkpt>
      <trkpt lat="42.53466" lon="1.94451">
        <ele>2100</ele>
        <time>2017-10-08T08:32:12Z</time>
      </trkpt>
      <trkpt lat="42.53487" lon="1.94454">
        <ele>2106</ele>
        <time>2017-10-08T08:33:42Z</time>
      </trkpt>
      <trkpt lat="42.53501" lon="1.94448">
        <ele>2108</ele>
        <time>2017-10-08T08:34:04Z</time>
      </trkpt>
      <trkpt lat="42.53513" lon="1.94451">
        <ele>2109</ele>
        <time>2017-10-08T08:34:27Z</time>
      </trkpt>
      <trkpt lat="42.53517" lon="1.94455">
        <ele>2109</ele>
        <time>2017-10-08T08:34:33Z</time>
      </trkpt>
      <trkpt lat="42.53522" lon="1.94454">
        <ele>2109</ele>
        <time>2017-10-08T08:34:40Z</time>
      </trkpt>
      <trkpt lat="42.53526" lon="1.94457">
        <ele>2109</ele>
        <time>2017-10-08T08:34:47Z</time>
      </trkpt>
      <trkpt lat="42.53535" lon="1.94462">
        <ele>2111</ele>
        <time>2017-10-08T08:35:10Z</time>
      </trkpt>
      <trkpt lat="42.5354" lon="1.9446">
        <ele>2112</ele>
        <time>2017-10-08T08:35:25Z</time>
      </trkpt>
      <trkpt lat="42.53543" lon="1.94455">
        <ele>2113</ele>
        <time>2017-10-08T08:35:37Z</time>
      </trkpt>
      <trkpt lat="42.5355" lon="1.94457">
        <ele>2114</ele>
        <time>2017-10-08T08:35:53Z</time>
      </trkpt>
      <trkpt lat="42.53555" lon="1.9446">
        <ele>2117</ele>
        <time>2017-10-08T08:36:08Z</time>
      </trkpt>
      <trkpt lat="42.53559" lon="1.94456">
        <ele>2118</ele>
        <time>2017-10-08T08:36:24Z</time>
      </trkpt>
      <trkpt lat="42.53565" lon="1.94457">
        <ele>2119</ele>
        <time>2017-10-08T08:36:39Z</time>
      </trkpt>
      <trkpt lat="42.53569" lon="1.94453">
        <ele>2120</ele>
        <time>2017-10-08T08:36:53Z</time>
      </trkpt>
      <trkpt lat="42.53581" lon="1.94447">
        <ele>2123</ele>
        <time>2017-10-08T08:37:24Z</time>
      </trkpt>
      <trkpt lat="42.53585" lon="1.9445">
        <ele>2124</ele>
        <time>2017-10-08T08:37:31Z</time>
      </trkpt>
      <trkpt lat="42.53597" lon="1.94457">
        <ele>2127</ele>
        <time>2017-10-08T08:38:10Z</time>
      </trkpt>
      <trkpt lat="42.53602" lon="1.94462">
        <ele>2129</ele>
        <time>2017-10-08T08:38:43Z</time>
      </trkpt>
      <trkpt lat="42.53609" lon="1.94461">
        <ele>2132</ele>
        <time>2017-10-08T08:38:57Z</time>
      </trkpt>
      <trkpt lat="42.5361" lon="1.94467">
        <ele>2134</ele>
        <time>2017-10-08T08:39:37Z</time>
      </trkpt>
      <trkpt lat="42.5361" lon="1.94476">
        <ele>2138</ele>
        <time>2017-10-08T08:39:53Z</time>
      </trkpt>
      <trkpt lat="42.53614" lon="1.94484">
        <ele>2140</ele>
        <time>2017-10-08T08:40:09Z</time>
      </trkpt>
      <trkpt lat="42.53619" lon="1.94488">
        <ele>2143</ele>
        <time>2017-10-08T08:40:24Z</time>
      </trkpt>
      <trkpt lat="42.53624" lon="1.94488">
        <ele>2145</ele>
        <time>2017-10-08T08:41:09Z</time>
      </trkpt>
      <trkpt lat="42.53629" lon="1.94493">
        <ele>2147</ele>
        <time>2017-10-08T08:41:19Z</time>
      </trkpt>
      <trkpt lat="42.53629" lon="1.94486">
        <ele>2148</ele>
        <time>2017-10-08T08:41:43Z</time>
      </trkpt>
      <trkpt lat="42.53638" lon="1.94485">
        <ele>2151</ele>
        <time>2017-10-08T08:42:16Z</time>
      </trkpt>
      <trkpt lat="42.53642" lon="1.94481">
        <ele>2154</ele>
        <time>2017-10-08T08:42:26Z</time>
      </trkpt>
      <trkpt lat="42.53648" lon="1.94484">
        <ele>2156</ele>
        <time>2017-10-08T08:42:47Z</time>
      </trkpt>
      <trkpt lat="42.53656" lon="1.94483">
        <ele>2159</ele>
        <time>2017-10-08T08:43:08Z</time>
      </trkpt>
      <trkpt lat="42.53659" lon="1.94473">
        <ele>2162</ele>
        <time>2017-10-08T08:43:40Z</time>
      </trkpt>
      <trkpt lat="42.53653" lon="1.94466">
        <ele>2163</ele>
        <time>2017-10-08T08:43:55Z</time>
      </trkpt>
      <trkpt lat="42.53653" lon="1.9446">
        <ele>2162</ele>
        <time>2017-10-08T08:44:01Z</time>
      </trkpt>
      <trkpt lat="42.53649" lon="1.94456">
        <ele>2161</ele>
        <time>2017-10-08T08:44:08Z</time>
      </trkpt>
      <trkpt lat="42.53656" lon="1.94451">
        <ele>2162</ele>
        <time>2017-10-08T08:47:23Z</time>
      </trkpt>
      <trkpt lat="42.53662" lon="1.94447">
        <ele>2164</ele>
        <time>2017-10-08T08:47:40Z</time>
      </trkpt>
      <trkpt lat="42.53667" lon="1.94449">
        <ele>2164</ele>
        <time>2017-10-08T08:47:46Z</time>
      </trkpt>
      <trkpt lat="42.53673" lon="1.94448">
        <ele>2167</ele>
        <time>2017-10-08T08:48:08Z</time>
      </trkpt>
      <trkpt lat="42.53672" lon="1.9444">
        <ele>2168</ele>
        <time>2017-10-08T08:48:21Z</time>
      </trkpt>
      <trkpt lat="42.53683" lon="1.94436">
        <ele>2172</ele>
        <time>2017-10-08T08:48:54Z</time>
      </trkpt>
      <trkpt lat="42.53685" lon="1.94426">
        <ele>2174</ele>
        <time>2017-10-08T08:49:12Z</time>
      </trkpt>
      <trkpt lat="42.53692" lon="1.94419">
        <ele>2178</ele>
        <time>2017-10-08T08:49:37Z</time>
      </trkpt>
      <trkpt lat="42.53697" lon="1.94418">
        <ele>2180</ele>
        <time>2017-10-08T08:49:46Z</time>
      </trkpt>
      <trkpt lat="42.53701" lon="1.94415">
        <ele>2181</ele>
        <time>2017-10-08T08:49:54Z</time>
      </trkpt>
      <trkpt lat="42.53704" lon="1.94407">
        <ele>2182</ele>
        <time>2017-10-08T08:50:08Z</time>
      </trkpt>
      <trkpt lat="42.53712" lon="1.94408">
        <ele>2185</ele>
        <time>2017-10-08T08:50:23Z</time>
      </trkpt>
      <trkpt lat="42.53716" lon="1.94406">
        <ele>2187</ele>
        <time>2017-10-08T08:50:31Z</time>
      </trkpt>
      <trkpt lat="42.53718" lon="1.94399">
        <ele>2189</ele>
        <time>2017-10-08T08:50:55Z</time>
      </trkpt>
      <trkpt lat="42.53715" lon="1.94394">
        <ele>2190</ele>
        <time>2017-10-08T08:51:33Z</time>
      </trkpt>
      <trkpt lat="42.53723" lon="1.94397">
        <ele>2191</ele>
        <time>2017-10-08T08:51:52Z</time>
      </trkpt>
      <trkpt lat="42.53727" lon="1.94394">
        <ele>2192</ele>
        <time>2017-10-08T08:51:59Z</time>
      </trkpt>
      <trkpt lat="42.5373" lon="1.94388">
        <ele>2193</ele>
        <time>2017-10-08T08:52:06Z</time>
      </trkpt>
      <trkpt lat="42.53733" lon="1.94383">
        <ele>2193</ele>
        <time>2017-10-08T08:52:14Z</time>
      </trkpt>
      <trkpt lat="42.5374" lon="1.94381">
        <ele>2193</ele>
        <time>2017-10-08T08:52:31Z</time>
      </trkpt>
      <trkpt lat="42.5374" lon="1.94385">
        <ele>2192</ele>
        <time>2017-10-08T08:54:06Z</time>
      </trkpt>
      <trkpt lat="42.53738" lon="1.9439">
        <ele>2194</ele>
        <time>2017-10-08T08:54:14Z</time>
      </trkpt>
      <trkpt lat="42.5374" lon="1.944">
        <ele>2195</ele>
        <time>2017-10-08T08:54:27Z</time>
      </trkpt>
      <trkpt lat="42.53747" lon="1.9441">
        <ele>2195</ele>
        <time>2017-10-08T08:54:38Z</time>
      </trkpt>
      <trkpt lat="42.5375" lon="1.94414">
        <ele>2195</ele>
        <time>2017-10-08T08:54:47Z</time>
      </trkpt>
      <trkpt lat="42.53755" lon="1.94414">
        <ele>2194</ele>
        <time>2017-10-08T08:54:55Z</time>
      </trkpt>
      <trkpt lat="42.5376" lon="1.94411">
        <ele>2194</ele>
        <time>2017-10-08T08:55:01Z</time>
      </trkpt>
      <trkpt lat="42.53765" lon="1.94412">
        <ele>2194</ele>
        <time>2017-10-08T08:55:08Z</time>
      </trkpt>
      <trkpt lat="42.53769" lon="1.94413">
        <ele>2194</ele>
        <time>2017-10-08T08:55:14Z</time>
      </trkpt>
      <trkpt lat="42.53774" lon="1.94412">
        <ele>2195</ele>
        <time>2017-10-08T08:55:22Z</time>
      </trkpt>
      <trkpt lat="42.53776" lon="1.94406">
        <ele>2195</ele>
        <time>2017-10-08T08:55:29Z</time>
      </trkpt>
      <trkpt lat="42.53779" lon="1.94401">
        <ele>2196</ele>
        <time>2017-10-08T08:55:36Z</time>
      </trkpt>
      <trkpt lat="42.53784" lon="1.94399">
        <ele>2196</ele>
        <time>2017-10-08T08:55:42Z</time>
      </trkpt>
      <trkpt lat="42.53787" lon="1.94395">
        <ele>2197</ele>
        <time>2017-10-08T08:55:48Z</time>
      </trkpt>
      <trkpt lat="42.53792" lon="1.94392">
        <ele>2197</ele>
        <time>2017-10-08T08:55:54Z</time>
      </trkpt>
      <trkpt lat="42.53797" lon="1.94392">
        <ele>2198</ele>
        <time>2017-10-08T08:56:00Z</time>
      </trkpt>
      <trkpt lat="42.53802" lon="1.9439">
        <ele>2198</ele>
        <time>2017-10-08T08:56:07Z</time>
      </trkpt>
      <trkpt lat="42.53805" lon="1.94385">
        <ele>2199</ele>
        <time>2017-10-08T08:56:13Z</time>
      </trkpt>
      <trkpt lat="42.53808" lon="1.9438">
        <ele>2199</ele>
        <time>2017-10-08T08:56:20Z</time>
      </trkpt>
      <trkpt lat="42.5381" lon="1.94374">
        <ele>2198</ele>
        <time>2017-10-08T08:56:26Z</time>
      </trkpt>
      <trkpt lat="42.53812" lon="1.94368">
        <ele>2199</ele>
        <time>2017-10-08T08:56:32Z</time>
      </trkpt>
      <trkpt lat="42.53812" lon="1.94361">
        <ele>2200</ele>
        <time>2017-10-08T08:56:41Z</time>
      </trkpt>
      <trkpt lat="42.53813" lon="1.94354">
        <ele>2200</ele>
        <time>2017-10-08T08:56:57Z</time>
      </trkpt>
      <trkpt lat="42.53821" lon="1.9435">
        <ele>2201</ele>
        <time>2017-10-08T08:57:17Z</time>
      </trkpt>
      <trkpt lat="42.53823" lon="1.94345">
        <ele>2202</ele>
        <time>2017-10-08T08:57:26Z</time>
      </trkpt>
      <trkpt lat="42.53827" lon="1.9434">
        <ele>2202</ele>
        <time>2017-10-08T08:57:34Z</time>
      </trkpt>
      <trkpt lat="42.53829" lon="1.94332">
        <ele>2204</ele>
        <time>2017-10-08T08:57:49Z</time>
      </trkpt>
      <trkpt lat="42.53833" lon="1.94328">
        <ele>2205</ele>
        <time>2017-10-08T08:57:57Z</time>
      </trkpt>
      <trkpt lat="42.53837" lon="1.94317">
        <ele>2206</ele>
        <time>2017-10-08T08:58:11Z</time>
      </trkpt>
      <trkpt lat="42.53838" lon="1.9431">
        <ele>2207</ele>
        <time>2017-10-08T08:58:18Z</time>
      </trkpt>
      <trkpt lat="42.53833" lon="1.94306">
        <ele>2208</ele>
        <time>2017-10-08T08:58:32Z</time>
      </trkpt>
      <trkpt lat="42.53834" lon="1.94297">
        <ele>2208</ele>
        <time>2017-10-08T08:58:45Z</time>
      </trkpt>
      <trkpt lat="42.53835" lon="1.94291">
        <ele>2210</ele>
        <time>2017-10-08T08:58:54Z</time>
      </trkpt>
      <trkpt lat="42.53834" lon="1.94285">
        <ele>2210</ele>
        <time>2017-10-08T08:59:02Z</time>
      </trkpt>
      <trkpt lat="42.53837" lon="1.94275">
        <ele>2212</ele>
        <time>2017-10-08T08:59:32Z</time>
      </trkpt>
      <trkpt lat="42.53842" lon="1.94269">
        <ele>2215</ele>
        <time>2017-10-08T08:59:48Z</time>
      </trkpt>
      <trkpt lat="42.53849" lon="1.94257">
        <ele>2217</ele>
        <time>2017-10-08T09:00:14Z</time>
      </trkpt>
      <trkpt lat="42.53852" lon="1.94248">
        <ele>2220</ele>
        <time>2017-10-08T09:00:31Z</time>
      </trkpt>
      <trkpt lat="42.53853" lon="1.94241">
        <ele>2221</ele>
        <time>2017-10-08T09:00:47Z</time>
      </trkpt>
      <trkpt lat="42.53856" lon="1.94236">
        <ele>2223</ele>
        <time>2017-10-08T09:01:03Z</time>
      </trkpt>
      <trkpt lat="42.53859" lon="1.94229">
        <ele>2224</ele>
        <time>2017-10-08T09:01:25Z</time>
      </trkpt>
      <trkpt lat="42.53863" lon="1.94233">
        <ele>2227</ele>
        <time>2017-10-08T09:03:31Z</time>
      </trkpt>
      <trkpt lat="42.53867" lon="1.94226">
        <ele>2227</ele>
        <time>2017-10-08T09:03:45Z</time>
      </trkpt>
      <trkpt lat="42.5387" lon="1.9422">
        <ele>2229</ele>
        <time>2017-10-08T09:03:51Z</time>
      </trkpt>
      <trkpt lat="42.53877" lon="1.94214">
        <ele>2231</ele>
        <time>2017-10-08T09:04:17Z</time>
      </trkpt>
      <trkpt lat="42.53884" lon="1.94205">
        <ele>2233</ele>
        <time>2017-10-08T09:04:33Z</time>
      </trkpt>
      <trkpt lat="42.53895" lon="1.94199">
        <ele>2234</ele>
        <time>2017-10-08T09:05:00Z</time>
      </trkpt>
      <trkpt lat="42.539" lon="1.94197">
        <ele>2236</ele>
        <time>2017-10-08T09:05:12Z</time>
      </trkpt>
      <trkpt lat="42.53907" lon="1.9419">
        <ele>2238</ele>
        <time>2017-10-08T09:05:46Z</time>
      </trkpt>
      <trkpt lat="42.53912" lon="1.94174">
        <ele>2243</ele>
        <time>2017-10-08T09:06:29Z</time>
      </trkpt>
      <trkpt lat="42.5392" lon="1.9416">
        <ele>2246</ele>
        <time>2017-10-08T09:06:54Z</time>
      </trkpt>
      <trkpt lat="42.53918" lon="1.9415">
        <ele>2248</ele>
        <time>2017-10-08T09:07:15Z</time>
      </trkpt>
      <trkpt lat="42.53924" lon="1.9415">
        <ele>2249</ele>
        <time>2017-10-08T09:07:30Z</time>
      </trkpt>
      <trkpt lat="42.53928" lon="1.94146">
        <ele>2255</ele>
        <time>2017-10-08T09:08:17Z</time>
      </trkpt>
      <trkpt lat="42.53928" lon="1.94139">
        <ele>2255</ele>
        <time>2017-10-08T09:08:25Z</time>
      </trkpt>
      <trkpt lat="42.53931" lon="1.94133">
        <ele>2257</ele>
        <time>2017-10-08T09:08:37Z</time>
      </trkpt>
      <trkpt lat="42.53931" lon="1.94126">
        <ele>2259</ele>
        <time>2017-10-08T09:09:06Z</time>
      </trkpt>
      <trkpt lat="42.53937" lon="1.94122">
        <ele>2260</ele>
        <time>2017-10-08T09:09:25Z</time>
      </trkpt>
      <trkpt lat="42.53941" lon="1.94121">
        <ele>2262</ele>
        <time>2017-10-08T09:09:34Z</time>
      </trkpt>
      <trkpt lat="42.53941" lon="1.94113">
        <ele>2262</ele>
        <time>2017-10-08T09:09:47Z</time>
      </trkpt>
      <trkpt lat="42.53946" lon="1.94105">
        <ele>2264</ele>
        <time>2017-10-08T09:10:09Z</time>
      </trkpt>
      <trkpt lat="42.53944" lon="1.941">
        <ele>2264</ele>
        <time>2017-10-08T09:10:15Z</time>
      </trkpt>
      <trkpt lat="42.53948" lon="1.94095">
        <ele>2267</ele>
        <time>2017-10-08T09:10:32Z</time>
      </trkpt>
      <trkpt lat="42.53947" lon="1.94087">
        <ele>2268</ele>
        <time>2017-10-08T09:11:00Z</time>
      </trkpt>
      <trkpt lat="42.53949" lon="1.94081">
        <ele>2269</ele>
        <time>2017-10-08T09:11:10Z</time>
      </trkpt>
      <trkpt lat="42.53953" lon="1.94074">
        <ele>2271</ele>
        <time>2017-10-08T09:11:25Z</time>
      </trkpt>
      <trkpt lat="42.53962" lon="1.94075">
        <ele>2272</ele>
        <time>2017-10-08T09:11:43Z</time>
      </trkpt>
      <trkpt lat="42.53966" lon="1.94077">
        <ele>2273</ele>
        <time>2017-10-08T09:11:51Z</time>
      </trkpt>
      <trkpt lat="42.53976" lon="1.94078">
        <ele>2274</ele>
        <time>2017-10-08T09:12:05Z</time>
      </trkpt>
      <trkpt lat="42.5398" lon="1.94076">
        <ele>2275</ele>
        <time>2017-10-08T09:12:13Z</time>
      </trkpt>
      <trkpt lat="42.53983" lon="1.94071">
        <ele>2275</ele>
        <time>2017-10-08T09:12:23Z</time>
      </trkpt>
      <trkpt lat="42.53989" lon="1.94055">
        <ele>2279</ele>
        <time>2017-10-08T09:13:06Z</time>
      </trkpt>
      <trkpt lat="42.53999" lon="1.94049">
        <ele>2283</ele>
        <time>2017-10-08T09:13:41Z</time>
      </trkpt>
      <trkpt lat="42.54" lon="1.94043">
        <ele>2284</ele>
        <time>2017-10-08T09:13:51Z</time>
      </trkpt>
      <trkpt lat="42.54002" lon="1.94031">
        <ele>2286</ele>
        <time>2017-10-08T09:14:11Z</time>
      </trkpt>
      <trkpt lat="42.54003" lon="1.94025">
        <ele>2289</ele>
        <time>2017-10-08T09:14:27Z</time>
      </trkpt>
      <trkpt lat="42.54006" lon="1.94016">
        <ele>2290</ele>
        <time>2017-10-08T09:14:56Z</time>
      </trkpt>
      <trkpt lat="42.54005" lon="1.94007">
        <ele>2291</ele>
        <time>2017-10-08T09:15:28Z</time>
      </trkpt>
      <trkpt lat="42.54001" lon="1.93992">
        <ele>2295</ele>
        <time>2017-10-08T09:16:33Z</time>
      </trkpt>
      <trkpt lat="42.53999" lon="1.93983">
        <ele>2296</ele>
        <time>2017-10-08T09:16:46Z</time>
      </trkpt>
      <trkpt lat="42.54" lon="1.9397">
        <ele>2298</ele>
        <time>2017-10-08T09:16:57Z</time>
      </trkpt>
      <trkpt lat="42.54005" lon="1.93959">
        <ele>2299</ele>
        <time>2017-10-08T09:17:10Z</time>
      </trkpt>
      <trkpt lat="42.54004" lon="1.93953">
        <ele>2301</ele>
        <time>2017-10-08T09:17:16Z</time>
      </trkpt>
      <trkpt lat="42.54004" lon="1.93946">
        <ele>2302</ele>
        <time>2017-10-08T09:17:23Z</time>
      </trkpt>
      <trkpt lat="42.54006" lon="1.93934">
        <ele>2305</ele>
        <time>2017-10-08T09:17:41Z</time>
      </trkpt>
      <trkpt lat="42.54006" lon="1.93928">
        <ele>2306</ele>
        <time>2017-10-08T09:17:49Z</time>
      </trkpt>
      <trkpt lat="42.54009" lon="1.93916">
        <ele>2308</ele>
        <time>2017-10-08T09:18:06Z</time>
      </trkpt>
      <trkpt lat="42.54009" lon="1.93909">
        <ele>2308</ele>
        <time>2017-10-08T09:18:14Z</time>
      </trkpt>
      <trkpt lat="42.54011" lon="1.93903">
        <ele>2309</ele>
        <time>2017-10-08T09:18:20Z</time>
      </trkpt>
      <trkpt lat="42.54011" lon="1.93896">
        <ele>2310</ele>
        <time>2017-10-08T09:18:27Z</time>
      </trkpt>
      <trkpt lat="42.54016" lon="1.93878">
        <ele>2313</ele>
        <time>2017-10-08T09:18:52Z</time>
      </trkpt>
      <trkpt lat="42.54019" lon="1.93873">
        <ele>2313</ele>
        <time>2017-10-08T09:19:00Z</time>
      </trkpt>
      <trkpt lat="42.54021" lon="1.93866">
        <ele>2314</ele>
        <time>2017-10-08T09:19:08Z</time>
      </trkpt>
      <trkpt lat="42.54025" lon="1.93855">
        <ele>2317</ele>
        <time>2017-10-08T09:19:26Z</time>
      </trkpt>
      <trkpt lat="42.54027" lon="1.93849">
        <ele>2317</ele>
        <time>2017-10-08T09:19:33Z</time>
      </trkpt>
      <trkpt lat="42.54033" lon="1.93842">
        <ele>2319</ele>
        <time>2017-10-08T09:20:19Z</time>
      </trkpt>
      <trkpt lat="42.54036" lon="1.93837">
        <ele>2320</ele>
        <time>2017-10-08T09:20:26Z</time>
      </trkpt>
      <trkpt lat="42.54041" lon="1.93826">
        <ele>2322</ele>
        <time>2017-10-08T09:20:39Z</time>
      </trkpt>
      <trkpt lat="42.54045" lon="1.93808">
        <ele>2324</ele>
        <time>2017-10-08T09:21:03Z</time>
      </trkpt>
      <trkpt lat="42.54053" lon="1.93791">
        <ele>2327</ele>
        <time>2017-10-08T09:21:29Z</time>
      </trkpt>
      <trkpt lat="42.54053" lon="1.93784">
        <ele>2328</ele>
        <time>2017-10-08T09:21:38Z</time>
      </trkpt>
      <trkpt lat="42.54056" lon="1.93779">
        <ele>2329</ele>
        <time>2017-10-08T09:21:47Z</time>
      </trkpt>
      <trkpt lat="42.54057" lon="1.93773">
        <ele>2330</ele>
        <time>2017-10-08T09:21:55Z</time>
      </trkpt>
      <trkpt lat="42.54065" lon="1.93757">
        <ele>2334</ele>
        <time>2017-10-08T09:22:20Z</time>
      </trkpt>
      <trkpt lat="42.54067" lon="1.93743">
        <ele>2335</ele>
        <time>2017-10-08T09:22:35Z</time>
      </trkpt>
      <trkpt lat="42.5407" lon="1.93738">
        <ele>2336</ele>
        <time>2017-10-08T09:22:42Z</time>
      </trkpt>
      <trkpt lat="42.54073" lon="1.93716">
        <ele>2339</ele>
        <time>2017-10-08T09:23:08Z</time>
      </trkpt>
      <trkpt lat="42.54078" lon="1.93718">
        <ele>2340</ele>
        <time>2017-10-08T09:23:13Z</time>
      </trkpt>
      <trkpt lat="42.54081" lon="1.93721">
        <ele>2341</ele>
        <time>2017-10-08T09:23:19Z</time>
      </trkpt>
      <trkpt lat="42.54086" lon="1.93718">
        <ele>2343</ele>
        <time>2017-10-08T09:23:52Z</time>
      </trkpt>
      <trkpt lat="42.5409" lon="1.93714">
        <ele>2344</ele>
        <time>2017-10-08T09:24:00Z</time>
      </trkpt>
      <trkpt lat="42.54094" lon="1.93711">
        <ele>2344</ele>
        <time>2017-10-08T09:24:07Z</time>
      </trkpt>
      <trkpt lat="42.54098" lon="1.93706">
        <ele>2344</ele>
        <time>2017-10-08T09:24:13Z</time>
      </trkpt>
      <trkpt lat="42.54107" lon="1.93699">
        <ele>2345</ele>
        <time>2017-10-08T09:24:24Z</time>
      </trkpt>
      <trkpt lat="42.54117" lon="1.93697">
        <ele>2345</ele>
        <time>2017-10-08T09:24:43Z</time>
      </trkpt>
      <trkpt lat="42.54133" lon="1.93682">
        <ele>2346</ele>
        <time>2017-10-08T09:25:07Z</time>
      </trkpt>
      <trkpt lat="42.54138" lon="1.9368">
        <ele>2346</ele>
        <time>2017-10-08T09:25:12Z</time>
      </trkpt>
      <trkpt lat="42.54142" lon="1.93676">
        <ele>2347</ele>
        <time>2017-10-08T09:25:18Z</time>
      </trkpt>
      <trkpt lat="42.54146" lon="1.93673">
        <ele>2347</ele>
        <time>2017-10-08T09:25:24Z</time>
      </trkpt>
      <trkpt lat="42.54165" lon="1.93665">
        <ele>2348</ele>
        <time>2017-10-08T09:25:46Z</time>
      </trkpt>
      <trkpt lat="42.54178" lon="1.93656">
        <ele>2349</ele>
        <time>2017-10-08T09:26:04Z</time>
      </trkpt>
      <trkpt lat="42.54185" lon="1.93646">
        <ele>2349</ele>
        <time>2017-10-08T09:26:15Z</time>
      </trkpt>
      <trkpt lat="42.5419" lon="1.93645">
        <ele>2349</ele>
        <time>2017-10-08T09:26:20Z</time>
      </trkpt>
      <trkpt lat="42.54195" lon="1.93645">
        <ele>2350</ele>
        <time>2017-10-08T09:26:25Z</time>
      </trkpt>
      <trkpt lat="42.542" lon="1.93643">
        <ele>2350</ele>
        <time>2017-10-08T09:26:30Z</time>
      </trkpt>
      <trkpt lat="42.54213" lon="1.93632">
        <ele>2350</ele>
        <time>2017-10-08T09:26:46Z</time>
      </trkpt>
      <trkpt lat="42.54216" lon="1.93621">
        <ele>2352</ele>
        <time>2017-10-08T09:27:01Z</time>
      </trkpt>
      <trkpt lat="42.54219" lon="1.93616">
        <ele>2353</ele>
        <time>2017-10-08T09:27:08Z</time>
      </trkpt>
      <trkpt lat="42.54221" lon="1.9361">
        <ele>2353</ele>
        <time>2017-10-08T09:27:14Z</time>
      </trkpt>
      <trkpt lat="42.54223" lon="1.93605">
        <ele>2354</ele>
        <time>2017-10-08T09:27:21Z</time>
      </trkpt>
      <trkpt lat="42.54227" lon="1.936">
        <ele>2355</ele>
        <time>2017-10-08T09:27:27Z</time>
      </trkpt>
      <trkpt lat="42.54231" lon="1.93597">
        <ele>2356</ele>
        <time>2017-10-08T09:27:34Z</time>
      </trkpt>
      <trkpt lat="42.54231" lon="1.93585">
        <ele>2357</ele>
        <time>2017-10-08T09:27:52Z</time>
      </trkpt>
      <trkpt lat="42.54234" lon="1.93579">
        <ele>2357</ele>
        <time>2017-10-08T09:27:59Z</time>
      </trkpt>
      <trkpt lat="42.54236" lon="1.93573">
        <ele>2358</ele>
        <time>2017-10-08T09:28:05Z</time>
      </trkpt>
      <trkpt lat="42.5424" lon="1.93569">
        <ele>2358</ele>
        <time>2017-10-08T09:28:11Z</time>
      </trkpt>
      <trkpt lat="42.54246" lon="1.93558">
        <ele>2359</ele>
        <time>2017-10-08T09:28:24Z</time>
      </trkpt>
      <trkpt lat="42.54247" lon="1.93551">
        <ele>2360</ele>
        <time>2017-10-08T09:28:35Z</time>
      </trkpt>
      <trkpt lat="42.54264" lon="1.93528">
        <ele>2362</ele>
        <time>2017-10-08T09:29:05Z</time>
      </trkpt>
      <trkpt lat="42.54266" lon="1.93522">
        <ele>2362</ele>
        <time>2017-10-08T09:29:10Z</time>
      </trkpt>
      <trkpt lat="42.54269" lon="1.93518">
        <ele>2363</ele>
        <time>2017-10-08T09:29:16Z</time>
      </trkpt>
      <trkpt lat="42.54271" lon="1.93511">
        <ele>2364</ele>
        <time>2017-10-08T09:29:23Z</time>
      </trkpt>
      <trkpt lat="42.54272" lon="1.93505">
        <ele>2364</ele>
        <time>2017-10-08T09:29:30Z</time>
      </trkpt>
      <trkpt lat="42.54281" lon="1.93489">
        <ele>2366</ele>
        <time>2017-10-08T09:29:48Z</time>
      </trkpt>
      <trkpt lat="42.54285" lon="1.93486">
        <ele>2366</ele>
        <time>2017-10-08T09:29:54Z</time>
      </trkpt>
      <trkpt lat="42.54288" lon="1.93481">
        <ele>2366</ele>
        <time>2017-10-08T09:30:01Z</time>
      </trkpt>
      <trkpt lat="42.54293" lon="1.93479">
        <ele>2367</ele>
        <time>2017-10-08T09:30:10Z</time>
      </trkpt>
      <trkpt lat="42.54299" lon="1.93471">
        <ele>2368</ele>
        <time>2017-10-08T09:30:25Z</time>
      </trkpt>
      <trkpt lat="42.54304" lon="1.93468">
        <ele>2369</ele>
        <time>2017-10-08T09:30:31Z</time>
      </trkpt>
      <trkpt lat="42.54315" lon="1.93454">
        <ele>2371</ele>
        <time>2017-10-08T09:31:00Z</time>
      </trkpt>
      <trkpt lat="42.54319" lon="1.9345">
        <ele>2372</ele>
        <time>2017-10-08T09:31:07Z</time>
      </trkpt>
      <trkpt lat="42.54323" lon="1.93447">
        <ele>2373</ele>
        <time>2017-10-08T09:31:13Z</time>
      </trkpt>
      <trkpt lat="42.5433" lon="1.93438">
        <ele>2374</ele>
        <time>2017-10-08T09:31:31Z</time>
      </trkpt>
      <trkpt lat="42.54333" lon="1.93432">
        <ele>2375</ele>
        <time>2017-10-08T09:31:39Z</time>
      </trkpt>
      <trkpt lat="42.54337" lon="1.93428">
        <ele>2375</ele>
        <time>2017-10-08T09:31:46Z</time>
      </trkpt>
      <trkpt lat="42.5434" lon="1.93423">
        <ele>2376</ele>
        <time>2017-10-08T09:31:53Z</time>
      </trkpt>
      <trkpt lat="42.54355" lon="1.93407">
        <ele>2379</ele>
        <time>2017-10-08T09:32:24Z</time>
      </trkpt>
      <trkpt lat="42.54359" lon="1.93403">
        <ele>2379</ele>
        <time>2017-10-08T09:32:31Z</time>
      </trkpt>
      <trkpt lat="42.54362" lon="1.93398">
        <ele>2379</ele>
        <time>2017-10-08T09:32:37Z</time>
      </trkpt>
      <trkpt lat="42.54366" lon="1.93394">
        <ele>2380</ele>
        <time>2017-10-08T09:32:44Z</time>
      </trkpt>
      <trkpt lat="42.5437" lon="1.9339">
        <ele>2380</ele>
        <time>2017-10-08T09:32:51Z</time>
      </trkpt>
      <trkpt lat="42.54373" lon="1.93385">
        <ele>2381</ele>
        <time>2017-10-08T09:32:59Z</time>
      </trkpt>
      <trkpt lat="42.54387" lon="1.93367">
        <ele>2383</ele>
        <time>2017-10-08T09:33:29Z</time>
      </trkpt>
      <trkpt lat="42.54392" lon="1.93365">
        <ele>2384</ele>
        <time>2017-10-08T09:33:42Z</time>
      </trkpt>
      <trkpt lat="42.54405" lon="1.93357">
        <ele>2386</ele>
        <time>2017-10-08T09:34:05Z</time>
      </trkpt>
      <trkpt lat="42.54415" lon="1.93353">
        <ele>2387</ele>
        <time>2017-10-08T09:34:18Z</time>
      </trkpt>
      <trkpt lat="42.5442" lon="1.93353">
        <ele>2387</ele>
        <time>2017-10-08T09:34:27Z</time>
      </trkpt>
      <trkpt lat="42.54433" lon="1.93344">
        <ele>2390</ele>
        <time>2017-10-08T09:35:03Z</time>
      </trkpt>
      <trkpt lat="42.54437" lon="1.93336">
        <ele>2392</ele>
        <time>2017-10-08T09:35:18Z</time>
      </trkpt>
      <trkpt lat="42.5444" lon="1.93332">
        <ele>2393</ele>
        <time>2017-10-08T09:35:25Z</time>
      </trkpt>
      <trkpt lat="42.54443" lon="1.93323">
        <ele>2394</ele>
        <time>2017-10-08T09:35:40Z</time>
      </trkpt>
      <trkpt lat="42.54449" lon="1.93317">
        <ele>2395</ele>
        <time>2017-10-08T09:35:52Z</time>
      </trkpt>
      <trkpt lat="42.54453" lon="1.93313">
        <ele>2396</ele>
        <time>2017-10-08T09:36:00Z</time>
      </trkpt>
      <trkpt lat="42.54456" lon="1.93308">
        <ele>2397</ele>
        <time>2017-10-08T09:36:10Z</time>
      </trkpt>
      <trkpt lat="42.5446" lon="1.93304">
        <ele>2397</ele>
        <time>2017-10-08T09:36:16Z</time>
      </trkpt>
      <trkpt lat="42.54467" lon="1.93298">
        <ele>2400</ele>
        <time>2017-10-08T09:36:37Z</time>
      </trkpt>
      <trkpt lat="42.54486" lon="1.93289">
        <ele>2405</ele>
        <time>2017-10-08T09:37:15Z</time>
      </trkpt>
      <trkpt lat="42.54491" lon="1.93287">
        <ele>2406</ele>
        <time>2017-10-08T09:37:23Z</time>
      </trkpt>
      <trkpt lat="42.54496" lon="1.93282">
        <ele>2409</ele>
        <time>2017-10-08T09:37:39Z</time>
      </trkpt>
      <trkpt lat="42.54501" lon="1.9328">
        <ele>2410</ele>
        <time>2017-10-08T09:38:12Z</time>
      </trkpt>
      <trkpt lat="42.54505" lon="1.93275">
        <ele>2411</ele>
        <time>2017-10-08T09:38:17Z</time>
      </trkpt>
      <trkpt lat="42.54514" lon="1.93269">
        <ele>2413</ele>
        <time>2017-10-08T09:38:32Z</time>
      </trkpt>
      <trkpt lat="42.54518" lon="1.93264">
        <ele>2413</ele>
        <time>2017-10-08T09:38:54Z</time>
      </trkpt>
      <trkpt lat="42.54522" lon="1.93259">
        <ele>2412</ele>
        <time>2017-10-08T09:39:00Z</time>
      </trkpt>
      <trkpt lat="42.54526" lon="1.93256">
        <ele>2413</ele>
        <time>2017-10-08T09:39:07Z</time>
      </trkpt>
      <trkpt lat="42.54533" lon="1.93244">
        <ele>2416</ele>
        <time>2017-10-08T09:39:29Z</time>
      </trkpt>
      <trkpt lat="42.54541" lon="1.93233">
        <ele>2419</ele>
        <time>2017-10-08T09:39:49Z</time>
      </trkpt>
      <trkpt lat="42.54551" lon="1.93229">
        <ele>2421</ele>
        <time>2017-10-08T09:40:04Z</time>
      </trkpt>
      <trkpt lat="42.54554" lon="1.93224">
        <ele>2422</ele>
        <time>2017-10-08T09:40:12Z</time>
      </trkpt>
      <trkpt lat="42.54558" lon="1.9322">
        <ele>2423</ele>
        <time>2017-10-08T09:40:21Z</time>
      </trkpt>
      <trkpt lat="42.54562" lon="1.93214">
        <ele>2424</ele>
        <time>2017-10-08T09:40:36Z</time>
      </trkpt>
      <trkpt lat="42.54563" lon="1.93207">
        <ele>2424</ele>
        <time>2017-10-08T09:40:44Z</time>
      </trkpt>
      <trkpt lat="42.54567" lon="1.932">
        <ele>2426</ele>
        <time>2017-10-08T09:40:56Z</time>
      </trkpt>
      <trkpt lat="42.54569" lon="1.93194">
        <ele>2427</ele>
        <time>2017-10-08T09:41:05Z</time>
      </trkpt>
      <trkpt lat="42.54567" lon="1.93182">
        <ele>2428</ele>
        <time>2017-10-08T09:41:21Z</time>
      </trkpt>
      <trkpt lat="42.54571" lon="1.93169">
        <ele>2431</ele>
        <time>2017-10-08T09:41:37Z</time>
      </trkpt>
      <trkpt lat="42.54571" lon="1.93163">
        <ele>2432</ele>
        <time>2017-10-08T09:41:47Z</time>
      </trkpt>
      <trkpt lat="42.54569" lon="1.93157">
        <ele>2433</ele>
        <time>2017-10-08T09:41:56Z</time>
      </trkpt>
      <trkpt lat="42.54571" lon="1.93149">
        <ele>2435</ele>
        <time>2017-10-08T09:42:12Z</time>
      </trkpt>
      <trkpt lat="42.5457" lon="1.93143">
        <ele>2436</ele>
        <time>2017-10-08T09:42:21Z</time>
      </trkpt>
      <trkpt lat="42.54566" lon="1.93138">
        <ele>2437</ele>
        <time>2017-10-08T09:42:29Z</time>
      </trkpt>
      <trkpt lat="42.5457" lon="1.93134">
        <ele>2437</ele>
        <time>2017-10-08T09:42:37Z</time>
      </trkpt>
      <trkpt lat="42.54573" lon="1.93129">
        <ele>2438</ele>
        <time>2017-10-08T09:42:45Z</time>
      </trkpt>
      <trkpt lat="42.54573" lon="1.93122">
        <ele>2438</ele>
        <time>2017-10-08T09:42:52Z</time>
      </trkpt>
      <trkpt lat="42.54578" lon="1.93112">
        <ele>2440</ele>
        <time>2017-10-08T09:43:09Z</time>
      </trkpt>
      <trkpt lat="42.54582" lon="1.93109">
        <ele>2441</ele>
        <time>2017-10-08T09:43:23Z</time>
      </trkpt>
      <trkpt lat="42.54587" lon="1.93106">
        <ele>2441</ele>
        <time>2017-10-08T09:43:35Z</time>
      </trkpt>
      <trkpt lat="42.54598" lon="1.93102">
        <ele>2442</ele>
        <time>2017-10-08T09:44:05Z</time>
      </trkpt>
      <trkpt lat="42.54604" lon="1.93099">
        <ele>2444</ele>
        <time>2017-10-08T09:44:26Z</time>
      </trkpt>
      <trkpt lat="42.54609" lon="1.93099">
        <ele>2445</ele>
        <time>2017-10-08T09:44:33Z</time>
      </trkpt>
      <trkpt lat="42.54613" lon="1.93095">
        <ele>2445</ele>
        <time>2017-10-08T09:44:41Z</time>
      </trkpt>
      <trkpt lat="42.54618" lon="1.93093">
        <ele>2445</ele>
        <time>2017-10-08T09:44:47Z</time>
      </trkpt>
      <trkpt lat="42.54635" lon="1.93079">
        <ele>2447</ele>
        <time>2017-10-08T09:45:14Z</time>
      </trkpt>
      <trkpt lat="42.54637" lon="1.93067">
        <ele>2449</ele>
        <time>2017-10-08T09:45:32Z</time>
      </trkpt>
      <trkpt lat="42.54639" lon="1.93061">
        <ele>2449</ele>
        <time>2017-10-08T09:45:41Z</time>
      </trkpt>
      <trkpt lat="42.54642" lon="1.93056">
        <ele>2450</ele>
        <time>2017-10-08T09:45:49Z</time>
      </trkpt>
      <trkpt lat="42.54646" lon="1.93033">
        <ele>2454</ele>
        <time>2017-10-08T09:46:35Z</time>
      </trkpt>
      <trkpt lat="42.54646" lon="1.93026">
        <ele>2454</ele>
        <time>2017-10-08T09:46:41Z</time>
      </trkpt>
      <trkpt lat="42.54649" lon="1.9302">
        <ele>2455</ele>
        <time>2017-10-08T09:46:47Z</time>
      </trkpt>
      <trkpt lat="42.54651" lon="1.93014">
        <ele>2455</ele>
        <time>2017-10-08T09:46:54Z</time>
      </trkpt>
      <trkpt lat="42.54651" lon="1.93007">
        <ele>2455</ele>
        <time>2017-10-08T09:47:01Z</time>
      </trkpt>
      <trkpt lat="42.54655" lon="1.93003">
        <ele>2456</ele>
        <time>2017-10-08T09:47:08Z</time>
      </trkpt>
      <trkpt lat="42.54656" lon="1.92997">
        <ele>2457</ele>
        <time>2017-10-08T09:47:14Z</time>
      </trkpt>
      <trkpt lat="42.54656" lon="1.9299">
        <ele>2458</ele>
        <time>2017-10-08T09:47:21Z</time>
      </trkpt>
      <trkpt lat="42.54659" lon="1.92982">
        <ele>2459</ele>
        <time>2017-10-08T09:47:36Z</time>
      </trkpt>
      <trkpt lat="42.5466" lon="1.9297">
        <ele>2463</ele>
        <time>2017-10-08T09:47:52Z</time>
      </trkpt>
      <trkpt lat="42.54662" lon="1.92964">
        <ele>2464</ele>
        <time>2017-10-08T09:47:59Z</time>
      </trkpt>
      <trkpt lat="42.54662" lon="1.92957">
        <ele>2465</ele>
        <time>2017-10-08T09:48:08Z</time>
      </trkpt>
      <trkpt lat="42.54662" lon="1.92951">
        <ele>2466</ele>
        <time>2017-10-08T09:48:18Z</time>
      </trkpt>
      <trkpt lat="42.54662" lon="1.92944">
        <ele>2466</ele>
        <time>2017-10-08T09:49:13Z</time>
      </trkpt>
      <trkpt lat="42.54666" lon="1.92938">
        <ele>2466</ele>
        <time>2017-10-08T09:49:19Z</time>
      </trkpt>
      <trkpt lat="42.5467" lon="1.92934">
        <ele>2466</ele>
        <time>2017-10-08T09:49:26Z</time>
      </trkpt>
      <trkpt lat="42.54676" lon="1.92923">
        <ele>2466</ele>
        <time>2017-10-08T09:49:36Z</time>
      </trkpt>
      <trkpt lat="42.5468" lon="1.92917">
        <ele>2466</ele>
        <time>2017-10-08T09:49:41Z</time>
      </trkpt>
      <trkpt lat="42.5468" lon="1.9291">
        <ele>2466</ele>
        <time>2017-10-08T09:49:46Z</time>
      </trkpt>
      <trkpt lat="42.54684" lon="1.92897">
        <ele>2466</ele>
        <time>2017-10-08T09:49:56Z</time>
      </trkpt>
      <trkpt lat="42.54682" lon="1.92885">
        <ele>2467</ele>
        <time>2017-10-08T09:50:07Z</time>
      </trkpt>
      <trkpt lat="42.54683" lon="1.92879">
        <ele>2467</ele>
        <time>2017-10-08T09:50:13Z</time>
      </trkpt>
      <trkpt lat="42.5468" lon="1.92874">
        <ele>2468</ele>
        <time>2017-10-08T09:50:18Z</time>
      </trkpt>
      <trkpt lat="42.54677" lon="1.92868">
        <ele>2468</ele>
        <time>2017-10-08T09:50:24Z</time>
      </trkpt>
      <trkpt lat="42.54674" lon="1.92865">
        <ele>2469</ele>
        <time>2017-10-08T09:50:29Z</time>
      </trkpt>
      <trkpt lat="42.54672" lon="1.92859">
        <ele>2469</ele>
        <time>2017-10-08T09:50:35Z</time>
      </trkpt>
      <trkpt lat="42.54669" lon="1.92854">
        <ele>2469</ele>
        <time>2017-10-08T09:50:41Z</time>
      </trkpt>
      <trkpt lat="42.5466" lon="1.92848">
        <ele>2470</ele>
        <time>2017-10-08T09:50:53Z</time>
      </trkpt>
      <trkpt lat="42.54657" lon="1.92843">
        <ele>2469</ele>
        <time>2017-10-08T09:50:58Z</time>
      </trkpt>
      <trkpt lat="42.54648" lon="1.92839">
        <ele>2469</ele>
        <time>2017-10-08T09:51:09Z</time>
      </trkpt>
      <trkpt lat="42.54643" lon="1.92839">
        <ele>2469</ele>
        <time>2017-10-08T09:51:16Z</time>
      </trkpt>
      <trkpt lat="42.54644" lon="1.92833">
        <ele>2469</ele>
        <time>2017-10-08T09:52:41Z</time>
      </trkpt>
      <trkpt lat="42.54648" lon="1.92829">
        <ele>2470</ele>
        <time>2017-10-08T09:52:47Z</time>
      </trkpt>
      <trkpt lat="42.54657" lon="1.92828">
        <ele>2470</ele>
        <time>2017-10-08T09:52:57Z</time>
      </trkpt>
      <trkpt lat="42.54662" lon="1.92825">
        <ele>2470</ele>
        <time>2017-10-08T09:53:04Z</time>
      </trkpt>
      <trkpt lat="42.54666" lon="1.92822">
        <ele>2470</ele>
        <time>2017-10-08T09:53:09Z</time>
      </trkpt>
      <trkpt lat="42.5467" lon="1.92819">
        <ele>2470</ele>
        <time>2017-10-08T09:53:13Z</time>
      </trkpt>
      <trkpt lat="42.5468" lon="1.92818">
        <ele>2470</ele>
        <time>2017-10-08T09:53:23Z</time>
      </trkpt>
      <trkpt lat="42.54685" lon="1.92818">
        <ele>2470</ele>
        <time>2017-10-08T09:53:29Z</time>
      </trkpt>
      <trkpt lat="42.5469" lon="1.9282">
        <ele>2470</ele>
        <time>2017-10-08T09:53:36Z</time>
      </trkpt>
      <trkpt lat="42.54695" lon="1.92822">
        <ele>2468</ele>
        <time>2017-10-08T09:53:42Z</time>
      </trkpt>
      <trkpt lat="42.54698" lon="1.92827">
        <ele>2468</ele>
        <time>2017-10-08T09:53:48Z</time>
      </trkpt>
      <trkpt lat="42.547" lon="1.92833">
        <ele>2467</ele>
        <time>2017-10-08T09:53:53Z</time>
      </trkpt>
      <trkpt lat="42.54706" lon="1.92844">
        <ele>2466</ele>
        <time>2017-10-08T09:54:04Z</time>
      </trkpt>
      <trkpt lat="42.54722" lon="1.9286">
        <ele>2463</ele>
        <time>2017-10-08T09:54:26Z</time>
      </trkpt>
      <trkpt lat="42.54725" lon="1.92866">
        <ele>2463</ele>
        <time>2017-10-08T09:54:31Z</time>
      </trkpt>
      <trkpt lat="42.54727" lon="1.92872">
        <ele>2463</ele>
        <time>2017-10-08T09:54:36Z</time>
      </trkpt>
      <trkpt lat="42.54728" lon="1.92879">
        <ele>2463</ele>
        <time>2017-10-08T09:54:42Z</time>
      </trkpt>
      <trkpt lat="42.54741" lon="1.929">
        <ele>2464</ele>
        <time>2017-10-08T09:55:03Z</time>
      </trkpt>
      <trkpt lat="42.54745" lon="1.92906">
        <ele>2464</ele>
        <time>2017-10-08T09:55:17Z</time>
      </trkpt>
      <trkpt lat="42.54751" lon="1.92899">
        <ele>2465</ele>
        <time>2017-10-08T09:55:45Z</time>
      </trkpt>
      <trkpt lat="42.54753" lon="1.92894">
        <ele>2466</ele>
        <time>2017-10-08T09:55:54Z</time>
      </trkpt>
      <trkpt lat="42.54757" lon="1.9289">
        <ele>2467</ele>
        <time>2017-10-08T09:56:10Z</time>
      </trkpt>
      <trkpt lat="42.54761" lon="1.92887">
        <ele>2468</ele>
        <time>2017-10-08T09:56:20Z</time>
      </trkpt>
      <trkpt lat="42.54765" lon="1.92881">
        <ele>2471</ele>
        <time>2017-10-08T09:56:48Z</time>
      </trkpt>
      <trkpt lat="42.54771" lon="1.9288">
        <ele>2472</ele>
        <time>2017-10-08T09:57:33Z</time>
      </trkpt>
      <trkpt lat="42.54775" lon="1.92884">
        <ele>2473</ele>
        <time>2017-10-08T09:58:01Z</time>
      </trkpt>
      <trkpt lat="42.54777" lon="1.92891">
        <ele>2473</ele>
        <time>2017-10-08T09:58:59Z</time>
      </trkpt>
      <trkpt lat="42.54782" lon="1.92893">
        <ele>2476</ele>
        <time>2017-10-08T10:00:31Z</time>
      </trkpt>
      <trkpt lat="42.54784" lon="1.92899">
        <ele>2476</ele>
        <time>2017-10-08T10:01:02Z</time>
      </trkpt>
      <trkpt lat="42.54787" lon="1.92904">
        <ele>2475</ele>
        <time>2017-10-08T10:01:37Z</time>
      </trkpt>
      <trkpt lat="42.54789" lon="1.9291">
        <ele>2475</ele>
        <time>2017-10-08T10:02:54Z</time>
      </trkpt>
      <trkpt lat="42.54789" lon="1.92916">
        <ele>2474</ele>
        <time>2017-10-08T10:03:34Z</time>
      </trkpt>
      <trkpt lat="42.54793" lon="1.92923">
        <ele>2474</ele>
        <time>2017-10-08T10:05:05Z</time>
      </trkpt>
      <trkpt lat="42.548" lon="1.9293">
        <ele>2475</ele>
        <time>2017-10-08T10:05:33Z</time>
      </trkpt>
      <trkpt lat="42.54807" lon="1.92932">
        <ele>2477</ele>
        <time>2017-10-08T10:05:49Z</time>
      </trkpt>
      <trkpt lat="42.54812" lon="1.92932">
        <ele>2480</ele>
        <time>2017-10-08T10:06:13Z</time>
      </trkpt>
      <trkpt lat="42.54818" lon="1.92931">
        <ele>2481</ele>
        <time>2017-10-08T10:06:45Z</time>
      </trkpt>
      <trkpt lat="42.54819" lon="1.92924">
        <ele>2483</ele>
        <time>2017-10-08T10:07:27Z</time>
      </trkpt>
      <trkpt lat="42.54822" lon="1.92917">
        <ele>2485</ele>
        <time>2017-10-08T10:07:45Z</time>
      </trkpt>
      <trkpt lat="42.54824" lon="1.92923">
        <ele>2487</ele>
        <time>2017-10-08T10:08:03Z</time>
      </trkpt>
      <trkpt lat="42.54829" lon="1.92923">
        <ele>2490</ele>
        <time>2017-10-08T10:09:01Z</time>
      </trkpt>
      <trkpt lat="42.54833" lon="1.92926">
        <ele>2495</ele>
        <time>2017-10-08T10:09:23Z</time>
      </trkpt>
      <trkpt lat="42.54837" lon="1.92929">
        <ele>2496</ele>
        <time>2017-10-08T10:09:33Z</time>
      </trkpt>
      <trkpt lat="42.54842" lon="1.92929">
        <ele>2499</ele>
        <time>2017-10-08T10:09:48Z</time>
      </trkpt>
      <trkpt lat="42.54846" lon="1.92934">
        <ele>2502</ele>
        <time>2017-10-08T10:10:22Z</time>
      </trkpt>
      <trkpt lat="42.54854" lon="1.92933">
        <ele>2508</ele>
        <time>2017-10-08T10:10:56Z</time>
      </trkpt>
      <trkpt lat="42.54863" lon="1.9294">
        <ele>2512</ele>
        <time>2017-10-08T10:11:18Z</time>
      </trkpt>
      <trkpt lat="42.54868" lon="1.92938">
        <ele>2513</ele>
        <time>2017-10-08T10:11:35Z</time>
      </trkpt>
      <trkpt lat="42.54874" lon="1.92934">
        <ele>2516</ele>
        <time>2017-10-08T10:11:50Z</time>
      </trkpt>
      <trkpt lat="42.54877" lon="1.92929">
        <ele>2518</ele>
        <time>2017-10-08T10:12:13Z</time>
      </trkpt>
      <trkpt lat="42.54886" lon="1.92925">
        <ele>2521</ele>
        <time>2017-10-08T10:12:36Z</time>
      </trkpt>
      <trkpt lat="42.5489" lon="1.92922">
        <ele>2522</ele>
        <time>2017-10-08T10:12:45Z</time>
      </trkpt>
      <trkpt lat="42.5489" lon="1.92913">
        <ele>2524</ele>
        <time>2017-10-08T10:13:31Z</time>
      </trkpt>
      <trkpt lat="42.54894" lon="1.92909">
        <ele>2525</ele>
        <time>2017-10-08T10:13:47Z</time>
      </trkpt>
      <trkpt lat="42.54899" lon="1.92897">
        <ele>2530</ele>
        <time>2017-10-08T10:14:12Z</time>
      </trkpt>
      <trkpt lat="42.54902" lon="1.9289">
        <ele>2532</ele>
        <time>2017-10-08T10:14:29Z</time>
      </trkpt>
      <trkpt lat="42.54903" lon="1.92882">
        <ele>2533</ele>
        <time>2017-10-08T10:14:56Z</time>
      </trkpt>
      <trkpt lat="42.54904" lon="1.92876">
        <ele>2535</ele>
        <time>2017-10-08T10:15:08Z</time>
      </trkpt>
      <trkpt lat="42.54909" lon="1.92874">
        <ele>2536</ele>
        <time>2017-10-08T10:15:24Z</time>
      </trkpt>
      <trkpt lat="42.54914" lon="1.92871">
        <ele>2541</ele>
        <time>2017-10-08T10:15:47Z</time>
      </trkpt>
      <trkpt lat="42.54911" lon="1.92865">
        <ele>2541</ele>
        <time>2017-10-08T10:16:05Z</time>
      </trkpt>
      <trkpt lat="42.5491" lon="1.92859">
        <ele>2544</ele>
        <time>2017-10-08T10:16:33Z</time>
      </trkpt>
      <trkpt lat="42.54913" lon="1.92851">
        <ele>2546</ele>
        <time>2017-10-08T10:17:16Z</time>
      </trkpt>
      <trkpt lat="42.54916" lon="1.92843">
        <ele>2551</ele>
        <time>2017-10-08T10:17:43Z</time>
      </trkpt>
      <trkpt lat="42.54919" lon="1.92837">
        <ele>2553</ele>
        <time>2017-10-08T10:18:10Z</time>
      </trkpt>
      <trkpt lat="42.54933" lon="1.92833">
        <ele>2559</ele>
        <time>2017-10-08T10:19:34Z</time>
      </trkpt>
      <trkpt lat="42.54938" lon="1.92829">
        <ele>2561</ele>
        <time>2017-10-08T10:19:48Z</time>
      </trkpt>
      <trkpt lat="42.54941" lon="1.92823">
        <ele>2562</ele>
        <time>2017-10-08T10:20:01Z</time>
      </trkpt>
      <trkpt lat="42.54948" lon="1.92818">
        <ele>2565</ele>
        <time>2017-10-08T10:21:14Z</time>
      </trkpt>
      <trkpt lat="42.5495" lon="1.92813">
        <ele>2568</ele>
        <time>2017-10-08T10:21:31Z</time>
      </trkpt>
      <trkpt lat="42.5495" lon="1.92806">
        <ele>2569</ele>
        <time>2017-10-08T10:21:49Z</time>
      </trkpt>
      <trkpt lat="42.54955" lon="1.92799">
        <ele>2573</ele>
        <time>2017-10-08T10:22:09Z</time>
      </trkpt>
      <trkpt lat="42.54952" lon="1.92793">
        <ele>2574</ele>
        <time>2017-10-08T10:22:22Z</time>
      </trkpt>
      <trkpt lat="42.54951" lon="1.92787">
        <ele>2579</ele>
        <time>2017-10-08T10:22:46Z</time>
      </trkpt>
      <trkpt lat="42.54951" lon="1.92776">
        <ele>2584</ele>
        <time>2017-10-08T10:23:22Z</time>
      </trkpt>
      <trkpt lat="42.5495" lon="1.92767">
        <ele>2587</ele>
        <time>2017-10-08T10:23:33Z</time>
      </trkpt>
      <trkpt lat="42.5495" lon="1.92759">
        <ele>2590</ele>
        <time>2017-10-08T10:23:55Z</time>
      </trkpt>
      <trkpt lat="42.54952" lon="1.92751">
        <ele>2593</ele>
        <time>2017-10-08T10:24:12Z</time>
      </trkpt>
      <trkpt lat="42.54955" lon="1.92745">
        <ele>2597</ele>
        <time>2017-10-08T10:24:33Z</time>
      </trkpt>
      <trkpt lat="42.54954" lon="1.92731">
        <ele>2602</ele>
        <time>2017-10-08T10:25:20Z</time>
      </trkpt>
      <trkpt lat="42.54952" lon="1.92724">
        <ele>2603</ele>
        <time>2017-10-08T10:25:37Z</time>
      </trkpt>
      <trkpt lat="42.54956" lon="1.9272">
        <ele>2605</ele>
        <time>2017-10-08T10:25:47Z</time>
      </trkpt>
      <trkpt lat="42.54958" lon="1.92714">
        <ele>2606</ele>
        <time>2017-10-08T10:25:57Z</time>
      </trkpt>
      <trkpt lat="42.54958" lon="1.92698">
        <ele>2610</ele>
        <time>2017-10-08T10:26:30Z</time>
      </trkpt>
      <trkpt lat="42.54964" lon="1.92676">
        <ele>2618</ele>
        <time>2017-10-08T10:27:11Z</time>
      </trkpt>
      <trkpt lat="42.54963" lon="1.92669">
        <ele>2618</ele>
        <time>2017-10-08T10:27:27Z</time>
      </trkpt>
      <trkpt lat="42.54964" lon="1.92657">
        <ele>2620</ele>
        <time>2017-10-08T10:27:47Z</time>
      </trkpt>
      <trkpt lat="42.54957" lon="1.92641">
        <ele>2625</ele>
        <time>2017-10-08T10:28:13Z</time>
      </trkpt>
      <trkpt lat="42.54955" lon="1.92635">
        <ele>2625</ele>
        <time>2017-10-08T10:28:20Z</time>
      </trkpt>
      <trkpt lat="42.54958" lon="1.9263">
        <ele>2627</ele>
        <time>2017-10-08T10:28:43Z</time>
      </trkpt>
      <trkpt lat="42.54964" lon="1.92624">
        <ele>2629</ele>
        <time>2017-10-08T10:29:11Z</time>
      </trkpt>
      <trkpt lat="42.54967" lon="1.92619">
        <ele>2629</ele>
        <time>2017-10-08T10:29:17Z</time>
      </trkpt>
      <trkpt lat="42.54972" lon="1.92615">
        <ele>2629</ele>
        <time>2017-10-08T10:29:24Z</time>
      </trkpt>
      <trkpt lat="42.54977" lon="1.92615">
        <ele>2631</ele>
        <time>2017-10-08T10:29:42Z</time>
      </trkpt>
      <trkpt lat="42.5498" lon="1.92609">
        <ele>2634</ele>
        <time>2017-10-08T10:29:54Z</time>
      </trkpt>
      <trkpt lat="42.54984" lon="1.92606">
        <ele>2636</ele>
        <time>2017-10-08T10:30:01Z</time>
      </trkpt>
      <trkpt lat="42.54989" lon="1.92602">
        <ele>2637</ele>
        <time>2017-10-08T10:30:18Z</time>
      </trkpt>
      <trkpt lat="42.54998" lon="1.92591">
        <ele>2641</ele>
        <time>2017-10-08T10:30:49Z</time>
      </trkpt>
      <trkpt lat="42.55002" lon="1.92582">
        <ele>2643</ele>
        <time>2017-10-08T10:31:18Z</time>
      </trkpt>
      <trkpt lat="42.55004" lon="1.92569">
        <ele>2643</ele>
        <time>2017-10-08T10:31:33Z</time>
      </trkpt>
      <trkpt lat="42.55004" lon="1.92556">
        <ele>2645</ele>
        <time>2017-10-08T10:31:48Z</time>
      </trkpt>
      <trkpt lat="42.55008" lon="1.92547">
        <ele>2646</ele>
        <time>2017-10-08T10:32:01Z</time>
      </trkpt>
      <trkpt lat="42.55011" lon="1.92542">
        <ele>2647</ele>
        <time>2017-10-08T10:32:08Z</time>
      </trkpt>
      <trkpt lat="42.5502" lon="1.92516">
        <ele>2651</ele>
        <time>2017-10-08T10:32:47Z</time>
      </trkpt>
      <trkpt lat="42.55023" lon="1.92512">
        <ele>2652</ele>
        <time>2017-10-08T10:32:56Z</time>
      </trkpt>
      <trkpt lat="42.55026" lon="1.925">
        <ele>2655</ele>
        <time>2017-10-08T10:33:11Z</time>
      </trkpt>
      <trkpt lat="42.55025" lon="1.92494">
        <ele>2656</ele>
        <time>2017-10-08T10:33:19Z</time>
      </trkpt>
      <trkpt lat="42.55031" lon="1.92493">
        <ele>2658</ele>
        <time>2017-10-08T10:34:00Z</time>
      </trkpt>
      <trkpt lat="42.55034" lon="1.92483">
        <ele>2662</ele>
        <time>2017-10-08T10:34:17Z</time>
      </trkpt>
      <trkpt lat="42.55042" lon="1.92473">
        <ele>2663</ele>
        <time>2017-10-08T10:34:37Z</time>
      </trkpt>
      <trkpt lat="42.55044" lon="1.92466">
        <ele>2664</ele>
        <time>2017-10-08T10:34:45Z</time>
      </trkpt>
      <trkpt lat="42.55048" lon="1.92462">
        <ele>2664</ele>
        <time>2017-10-08T10:34:54Z</time>
      </trkpt>
      <trkpt lat="42.55051" lon="1.92454">
        <ele>2666</ele>
        <time>2017-10-08T10:35:10Z</time>
      </trkpt>
      <trkpt lat="42.55056" lon="1.92454">
        <ele>2667</ele>
        <time>2017-10-08T10:35:18Z</time>
      </trkpt>
      <trkpt lat="42.55061" lon="1.92451">
        <ele>2668</ele>
        <time>2017-10-08T10:35:34Z</time>
      </trkpt>
      <trkpt lat="42.55068" lon="1.9245">
        <ele>2671</ele>
        <time>2017-10-08T10:35:52Z</time>
      </trkpt>
      <trkpt lat="42.55074" lon="1.92449">
        <ele>2671</ele>
        <time>2017-10-08T10:36:12Z</time>
      </trkpt>
      <trkpt lat="42.55078" lon="1.92444">
        <ele>2673</ele>
        <time>2017-10-08T10:36:29Z</time>
      </trkpt>
      <trkpt lat="42.5508" lon="1.92438">
        <ele>2680</ele>
        <time>2017-10-08T10:41:43Z</time>
      </trkpt>
      <trkpt lat="42.55082" lon="1.92432">
        <ele>2681</ele>
        <time>2017-10-08T10:44:44Z</time>
      </trkpt>
      <trkpt lat="42.55085" lon="1.92426">
        <ele>2683</ele>
        <time>2017-10-08T10:45:07Z</time>
      </trkpt>
      <trkpt lat="42.55087" lon="1.92429">
        <ele>2686</ele>
        <time>2017-10-08T10:45:58Z</time>
      </trkpt>
      <trkpt lat="42.5508" lon="1.92432">
        <ele>2686</ele>
        <time>2017-10-08T10:46:14Z</time>
      </trkpt>
      <trkpt lat="42.55075" lon="1.92442">
        <ele>2683</ele>
        <time>2017-10-08T10:46:32Z</time>
      </trkpt>
      <trkpt lat="42.55071" lon="1.92453">
        <ele>2682</ele>
        <time>2017-10-08T10:46:42Z</time>
      </trkpt>
      <trkpt lat="42.5507" lon="1.9246">
        <ele>2682</ele>
        <time>2017-10-08T10:46:50Z</time>
      </trkpt>
      <trkpt lat="42.55069" lon="1.92466">
        <ele>2682</ele>
        <time>2017-10-08T10:46:56Z</time>
      </trkpt>
      <trkpt lat="42.55067" lon="1.92471">
        <ele>2682</ele>
        <time>2017-10-08T10:47:05Z</time>
      </trkpt>
      <trkpt lat="42.55059" lon="1.92493">
        <ele>2680</ele>
        <time>2017-10-08T10:47:46Z</time>
      </trkpt>
      <trkpt lat="42.55056" lon="1.925">
        <ele>2679</ele>
        <time>2017-10-08T10:47:59Z</time>
      </trkpt>
      <trkpt lat="42.55054" lon="1.92519">
        <ele>2678</ele>
        <time>2017-10-08T10:48:20Z</time>
      </trkpt>
      <trkpt lat="42.55047" lon="1.92527">
        <ele>2677</ele>
        <time>2017-10-08T10:48:38Z</time>
      </trkpt>
      <trkpt lat="42.55042" lon="1.9253">
        <ele>2676</ele>
        <time>2017-10-08T10:48:45Z</time>
      </trkpt>
      <trkpt lat="42.5504" lon="1.92536">
        <ele>2675</ele>
        <time>2017-10-08T10:48:52Z</time>
      </trkpt>
      <trkpt lat="42.55041" lon="1.9255">
        <ele>2672</ele>
        <time>2017-10-08T10:49:04Z</time>
      </trkpt>
      <trkpt lat="42.55041" lon="1.92556">
        <ele>2672</ele>
        <time>2017-10-08T10:49:10Z</time>
      </trkpt>
      <trkpt lat="42.5504" lon="1.92562">
        <ele>2670</ele>
        <time>2017-10-08T10:49:16Z</time>
      </trkpt>
      <trkpt lat="42.55042" lon="1.92575">
        <ele>2669</ele>
        <time>2017-10-08T10:49:28Z</time>
      </trkpt>
      <trkpt lat="42.55039" lon="1.9258">
        <ele>2669</ele>
        <time>2017-10-08T10:49:34Z</time>
      </trkpt>
      <trkpt lat="42.55027" lon="1.92587">
        <ele>2666</ele>
        <time>2017-10-08T10:50:04Z</time>
      </trkpt>
      <trkpt lat="42.55021" lon="1.9259">
        <ele>2663</ele>
        <time>2017-10-08T10:50:20Z</time>
      </trkpt>
      <trkpt lat="42.55017" lon="1.92594">
        <ele>2661</ele>
        <time>2017-10-08T10:50:26Z</time>
      </trkpt>
      <trkpt lat="42.55012" lon="1.92595">
        <ele>2660</ele>
        <time>2017-10-08T10:50:32Z</time>
      </trkpt>
      <trkpt lat="42.55008" lon="1.92591">
        <ele>2657</ele>
        <time>2017-10-08T10:50:38Z</time>
      </trkpt>
      <trkpt lat="42.55003" lon="1.92591">
        <ele>2656</ele>
        <time>2017-10-08T10:50:45Z</time>
      </trkpt>
      <trkpt lat="42.54998" lon="1.92591">
        <ele>2654</ele>
        <time>2017-10-08T10:50:51Z</time>
      </trkpt>
      <trkpt lat="42.54995" lon="1.92595">
        <ele>2653</ele>
        <time>2017-10-08T10:51:00Z</time>
      </trkpt>
      <trkpt lat="42.54992" lon="1.926">
        <ele>2650</ele>
        <time>2017-10-08T10:51:07Z</time>
      </trkpt>
      <trkpt lat="42.54988" lon="1.92604">
        <ele>2649</ele>
        <time>2017-10-08T10:51:16Z</time>
      </trkpt>
      <trkpt lat="42.54985" lon="1.92608">
        <ele>2648</ele>
        <time>2017-10-08T10:51:24Z</time>
      </trkpt>
      <trkpt lat="42.54981" lon="1.92612">
        <ele>2647</ele>
        <time>2017-10-08T10:51:32Z</time>
      </trkpt>
      <trkpt lat="42.54974" lon="1.92614">
        <ele>2644</ele>
        <time>2017-10-08T10:51:47Z</time>
      </trkpt>
      <trkpt lat="42.54972" lon="1.92619">
        <ele>2643</ele>
        <time>2017-10-08T10:51:54Z</time>
      </trkpt>
      <trkpt lat="42.54967" lon="1.92618">
        <ele>2641</ele>
        <time>2017-10-08T10:51:59Z</time>
      </trkpt>
      <trkpt lat="42.54959" lon="1.92626">
        <ele>2640</ele>
        <time>2017-10-08T10:52:12Z</time>
      </trkpt>
      <trkpt lat="42.54955" lon="1.92635">
        <ele>2637</ele>
        <time>2017-10-08T10:52:50Z</time>
      </trkpt>
      <trkpt lat="42.54951" lon="1.92646">
        <ele>2635</ele>
        <time>2017-10-08T10:53:06Z</time>
      </trkpt>
      <trkpt lat="42.5495" lon="1.92652">
        <ele>2634</ele>
        <time>2017-10-08T10:53:14Z</time>
      </trkpt>
      <trkpt lat="42.54947" lon="1.92657">
        <ele>2632</ele>
        <time>2017-10-08T10:53:47Z</time>
      </trkpt>
      <trkpt lat="42.54948" lon="1.92667">
        <ele>2631</ele>
        <time>2017-10-08T10:53:59Z</time>
      </trkpt>
      <trkpt lat="42.54951" lon="1.92672">
        <ele>2630</ele>
        <time>2017-10-08T10:54:04Z</time>
      </trkpt>
      <trkpt lat="42.54954" lon="1.92676">
        <ele>2630</ele>
        <time>2017-10-08T10:54:09Z</time>
      </trkpt>
      <trkpt lat="42.54957" lon="1.92682">
        <ele>2629</ele>
        <time>2017-10-08T10:54:16Z</time>
      </trkpt>
      <trkpt lat="42.5496" lon="1.92687">
        <ele>2629</ele>
        <time>2017-10-08T10:54:22Z</time>
      </trkpt>
      <trkpt lat="42.54956" lon="1.92692">
        <ele>2627</ele>
        <time>2017-10-08T10:54:31Z</time>
      </trkpt>
      <trkpt lat="42.54953" lon="1.92704">
        <ele>2625</ele>
        <time>2017-10-08T10:54:47Z</time>
      </trkpt>
      <trkpt lat="42.54949" lon="1.92707">
        <ele>2623</ele>
        <time>2017-10-08T10:54:56Z</time>
      </trkpt>
      <trkpt lat="42.54947" lon="1.92713">
        <ele>2622</ele>
        <time>2017-10-08T10:55:02Z</time>
      </trkpt>
      <trkpt lat="42.54946" lon="1.9272">
        <ele>2621</ele>
        <time>2017-10-08T10:55:10Z</time>
      </trkpt>
      <trkpt lat="42.54946" lon="1.92726">
        <ele>2620</ele>
        <time>2017-10-08T10:55:18Z</time>
      </trkpt>
      <trkpt lat="42.54947" lon="1.92735">
        <ele>2617</ele>
        <time>2017-10-08T10:55:34Z</time>
      </trkpt>
      <trkpt lat="42.54951" lon="1.92739">
        <ele>2617</ele>
        <time>2017-10-08T10:55:42Z</time>
      </trkpt>
      <trkpt lat="42.5495" lon="1.92745">
        <ele>2615</ele>
        <time>2017-10-08T10:55:54Z</time>
      </trkpt>
      <trkpt lat="42.54953" lon="1.92751">
        <ele>2615</ele>
        <time>2017-10-08T10:56:17Z</time>
      </trkpt>
      <trkpt lat="42.54951" lon="1.92759">
        <ele>2612</ele>
        <time>2017-10-08T10:56:40Z</time>
      </trkpt>
      <trkpt lat="42.54946" lon="1.92775">
        <ele>2608</ele>
        <time>2017-10-08T10:57:07Z</time>
      </trkpt>
      <trkpt lat="42.54948" lon="1.92797">
        <ele>2601</ele>
        <time>2017-10-08T10:57:48Z</time>
      </trkpt>
      <trkpt lat="42.54944" lon="1.92803">
        <ele>2596</ele>
        <time>2017-10-08T10:58:17Z</time>
      </trkpt>
      <trkpt lat="42.54942" lon="1.92808">
        <ele>2594</ele>
        <time>2017-10-08T10:59:05Z</time>
      </trkpt>
      <trkpt lat="42.54938" lon="1.92815">
        <ele>2589</ele>
        <time>2017-10-08T10:59:17Z</time>
      </trkpt>
      <trkpt lat="42.54938" lon="1.92822">
        <ele>2586</ele>
        <time>2017-10-08T10:59:26Z</time>
      </trkpt>
      <trkpt lat="42.54939" lon="1.92828">
        <ele>2583</ele>
        <time>2017-10-08T10:59:34Z</time>
      </trkpt>
      <trkpt lat="42.54936" lon="1.92832">
        <ele>2581</ele>
        <time>2017-10-08T10:59:44Z</time>
      </trkpt>
      <trkpt lat="42.54935" lon="1.92839">
        <ele>2578</ele>
        <time>2017-10-08T10:59:54Z</time>
      </trkpt>
      <trkpt lat="42.54934" lon="1.92845">
        <ele>2577</ele>
        <time>2017-10-08T11:00:01Z</time>
      </trkpt>
      <trkpt lat="42.5493" lon="1.92849">
        <ele>2575</ele>
        <time>2017-10-08T11:00:09Z</time>
      </trkpt>
      <trkpt lat="42.54929" lon="1.92862">
        <ele>2571</ele>
        <time>2017-10-08T11:00:25Z</time>
      </trkpt>
      <trkpt lat="42.54923" lon="1.9287">
        <ele>2568</ele>
        <time>2017-10-08T11:00:43Z</time>
      </trkpt>
      <trkpt lat="42.54922" lon="1.92895">
        <ele>2563</ele>
        <time>2017-10-08T11:01:11Z</time>
      </trkpt>
      <trkpt lat="42.54918" lon="1.92896">
        <ele>2562</ele>
        <time>2017-10-08T11:01:20Z</time>
      </trkpt>
      <trkpt lat="42.54915" lon="1.929">
        <ele>2559</ele>
        <time>2017-10-08T11:01:36Z</time>
      </trkpt>
      <trkpt lat="42.54917" lon="1.92912">
        <ele>2557</ele>
        <time>2017-10-08T11:01:52Z</time>
      </trkpt>
      <trkpt lat="42.54917" lon="1.92919">
        <ele>2555</ele>
        <time>2017-10-08T11:02:00Z</time>
      </trkpt>
      <trkpt lat="42.54913" lon="1.92932">
        <ele>2552</ele>
        <time>2017-10-08T11:02:11Z</time>
      </trkpt>
      <trkpt lat="42.54912" lon="1.92939">
        <ele>2551</ele>
        <time>2017-10-08T11:02:26Z</time>
      </trkpt>
      <trkpt lat="42.54909" lon="1.92943">
        <ele>2549</ele>
        <time>2017-10-08T11:02:33Z</time>
      </trkpt>
      <trkpt lat="42.54911" lon="1.92963">
        <ele>2545</ele>
        <time>2017-10-08T11:02:54Z</time>
      </trkpt>
      <trkpt lat="42.5491" lon="1.9297">
        <ele>2543</ele>
        <time>2017-10-08T11:03:01Z</time>
      </trkpt>
      <trkpt lat="42.54897" lon="1.92977">
        <ele>2539</ele>
        <time>2017-10-08T11:03:19Z</time>
      </trkpt>
      <trkpt lat="42.54887" lon="1.92974">
        <ele>2537</ele>
        <time>2017-10-08T11:03:30Z</time>
      </trkpt>
      <trkpt lat="42.54887" lon="1.92984">
        <ele>2533</ele>
        <time>2017-10-08T11:03:43Z</time>
      </trkpt>
      <trkpt lat="42.5488" lon="1.92994">
        <ele>2529</ele>
        <time>2017-10-08T11:03:58Z</time>
      </trkpt>
      <trkpt lat="42.5488" lon="1.93">
        <ele>2527</ele>
        <time>2017-10-08T11:04:04Z</time>
      </trkpt>
      <trkpt lat="42.54881" lon="1.93006">
        <ele>2527</ele>
        <time>2017-10-08T11:04:09Z</time>
      </trkpt>
      <trkpt lat="42.54879" lon="1.93014">
        <ele>2524</ele>
        <time>2017-10-08T11:04:56Z</time>
      </trkpt>
      <trkpt lat="42.54879" lon="1.93021">
        <ele>2523</ele>
        <time>2017-10-08T11:05:04Z</time>
      </trkpt>
      <trkpt lat="42.54877" lon="1.93032">
        <ele>2517</ele>
        <time>2017-10-08T11:05:29Z</time>
      </trkpt>
      <trkpt lat="42.54877" lon="1.9304">
        <ele>2514</ele>
        <time>2017-10-08T11:05:46Z</time>
      </trkpt>
      <trkpt lat="42.54872" lon="1.93041">
        <ele>2513</ele>
        <time>2017-10-08T11:05:55Z</time>
      </trkpt>
      <trkpt lat="42.54868" lon="1.93038">
        <ele>2511</ele>
        <time>2017-10-08T11:06:02Z</time>
      </trkpt>
      <trkpt lat="42.54863" lon="1.9304">
        <ele>2509</ele>
        <time>2017-10-08T11:06:12Z</time>
      </trkpt>
      <trkpt lat="42.54863" lon="1.93048">
        <ele>2504</ele>
        <time>2017-10-08T11:06:31Z</time>
      </trkpt>
      <trkpt lat="42.54862" lon="1.93054">
        <ele>2501</ele>
        <time>2017-10-08T11:06:40Z</time>
      </trkpt>
      <trkpt lat="42.5486" lon="1.9306">
        <ele>2499</ele>
        <time>2017-10-08T11:06:56Z</time>
      </trkpt>
      <trkpt lat="42.54861" lon="1.93067">
        <ele>2496</ele>
        <time>2017-10-08T11:07:02Z</time>
      </trkpt>
      <trkpt lat="42.54859" lon="1.93074">
        <ele>2494</ele>
        <time>2017-10-08T11:07:15Z</time>
      </trkpt>
      <trkpt lat="42.54854" lon="1.93072">
        <ele>2494</ele>
        <time>2017-10-08T11:07:20Z</time>
      </trkpt>
      <trkpt lat="42.54838" lon="1.93067">
        <ele>2488</ele>
        <time>2017-10-08T11:07:42Z</time>
      </trkpt>
      <trkpt lat="42.54833" lon="1.93066">
        <ele>2486</ele>
        <time>2017-10-08T11:07:47Z</time>
      </trkpt>
      <trkpt lat="42.54824" lon="1.93062">
        <ele>2483</ele>
        <time>2017-10-08T11:07:58Z</time>
      </trkpt>
      <trkpt lat="42.5482" lon="1.93057">
        <ele>2483</ele>
        <time>2017-10-08T11:08:06Z</time>
      </trkpt>
      <trkpt lat="42.54815" lon="1.93056">
        <ele>2482</ele>
        <time>2017-10-08T11:08:10Z</time>
      </trkpt>
      <trkpt lat="42.54818" lon="1.93048">
        <ele>2481</ele>
        <time>2017-10-08T11:08:21Z</time>
      </trkpt>
      <trkpt lat="42.54817" lon="1.93042">
        <ele>2481</ele>
        <time>2017-10-08T11:08:28Z</time>
      </trkpt>
      <trkpt lat="42.54801" lon="1.93037">
        <ele>2476</ele>
        <time>2017-10-08T11:08:50Z</time>
      </trkpt>
      <trkpt lat="42.54798" lon="1.93033">
        <ele>2474</ele>
        <time>2017-10-08T11:08:56Z</time>
      </trkpt>
      <trkpt lat="42.54794" lon="1.93028">
        <ele>2474</ele>
        <time>2017-10-08T11:09:00Z</time>
      </trkpt>
      <trkpt lat="42.5479" lon="1.93026">
        <ele>2473</ele>
        <time>2017-10-08T11:09:05Z</time>
      </trkpt>
      <trkpt lat="42.54783" lon="1.93016">
        <ele>2471</ele>
        <time>2017-10-08T11:09:14Z</time>
      </trkpt>
      <trkpt lat="42.54781" lon="1.9301">
        <ele>2470</ele>
        <time>2017-10-08T11:09:18Z</time>
      </trkpt>
      <trkpt lat="42.54779" lon="1.93004">
        <ele>2469</ele>
        <time>2017-10-08T11:09:22Z</time>
      </trkpt>
      <trkpt lat="42.5478" lon="1.92998">
        <ele>2469</ele>
        <time>2017-10-08T11:09:26Z</time>
      </trkpt>
      <trkpt lat="42.5478" lon="1.92991">
        <ele>2468</ele>
        <time>2017-10-08T11:09:31Z</time>
      </trkpt>
      <trkpt lat="42.54779" lon="1.92994">
        <ele>2467</ele>
        <time>2017-10-08T11:09:50Z</time>
      </trkpt>
      <trkpt lat="42.54774" lon="1.92996">
        <ele>2465</ele>
        <time>2017-10-08T11:09:57Z</time>
      </trkpt>
      <trkpt lat="42.54771" lon="1.92991">
        <ele>2463</ele>
        <time>2017-10-08T11:10:02Z</time>
      </trkpt>
      <trkpt lat="42.54762" lon="1.92984">
        <ele>2461</ele>
        <time>2017-10-08T11:10:10Z</time>
      </trkpt>
      <trkpt lat="42.54756" lon="1.92974">
        <ele>2461</ele>
        <time>2017-10-08T11:10:18Z</time>
      </trkpt>
      <trkpt lat="42.54739" lon="1.9295">
        <ele>2458</ele>
        <time>2017-10-08T11:10:39Z</time>
      </trkpt>
      <trkpt lat="42.54736" lon="1.92945">
        <ele>2458</ele>
        <time>2017-10-08T11:10:44Z</time>
      </trkpt>
      <trkpt lat="42.5473" lon="1.92934">
        <ele>2459</ele>
        <time>2017-10-08T11:10:55Z</time>
      </trkpt>
      <trkpt lat="42.5473" lon="1.92928">
        <ele>2459</ele>
        <time>2017-10-08T11:11:00Z</time>
      </trkpt>
      <trkpt lat="42.54726" lon="1.92924">
        <ele>2459</ele>
        <time>2017-10-08T11:11:06Z</time>
      </trkpt>
      <trkpt lat="42.54723" lon="1.92919">
        <ele>2460</ele>
        <time>2017-10-08T11:11:13Z</time>
      </trkpt>
      <trkpt lat="42.54721" lon="1.92913">
        <ele>2460</ele>
        <time>2017-10-08T11:11:21Z</time>
      </trkpt>
      <trkpt lat="42.54718" lon="1.92894">
        <ele>2461</ele>
        <time>2017-10-08T11:11:38Z</time>
      </trkpt>
      <trkpt lat="42.5472" lon="1.92886">
        <ele>2461</ele>
        <time>2017-10-08T11:11:44Z</time>
      </trkpt>
      <trkpt lat="42.54718" lon="1.92873">
        <ele>2461</ele>
        <time>2017-10-08T11:11:54Z</time>
      </trkpt>
      <trkpt lat="42.5472" lon="1.9286">
        <ele>2461</ele>
        <time>2017-10-08T11:12:04Z</time>
      </trkpt>
      <trkpt lat="42.54718" lon="1.92854">
        <ele>2460</ele>
        <time>2017-10-08T11:12:09Z</time>
      </trkpt>
      <trkpt lat="42.54716" lon="1.92848">
        <ele>2460</ele>
        <time>2017-10-08T11:12:14Z</time>
      </trkpt>
      <trkpt lat="42.54707" lon="1.92809">
        <ele>2461</ele>
        <time>2017-10-08T11:12:47Z</time>
      </trkpt>
      <trkpt lat="42.54705" lon="1.92803">
        <ele>2461</ele>
        <time>2017-10-08T11:12:52Z</time>
      </trkpt>
      <trkpt lat="42.54701" lon="1.92798">
        <ele>2461</ele>
        <time>2017-10-08T11:12:57Z</time>
      </trkpt>
      <trkpt lat="42.54679" lon="1.92779">
        <ele>2461</ele>
        <time>2017-10-08T11:13:22Z</time>
      </trkpt>
      <trkpt lat="42.54674" lon="1.92776">
        <ele>2461</ele>
        <time>2017-10-08T11:13:27Z</time>
      </trkpt>
      <trkpt lat="42.54659" lon="1.92771">
        <ele>2461</ele>
        <time>2017-10-08T11:13:42Z</time>
      </trkpt>
      <trkpt lat="42.54654" lon="1.92772">
        <ele>2461</ele>
        <time>2017-10-08T11:13:47Z</time>
      </trkpt>
      <trkpt lat="42.54644" lon="1.92771">
        <ele>2460</ele>
        <time>2017-10-08T11:13:57Z</time>
      </trkpt>
      <trkpt lat="42.5464" lon="1.92767">
        <ele>2459</ele>
        <time>2017-10-08T11:14:03Z</time>
      </trkpt>
      <trkpt lat="42.54636" lon="1.92756">
        <ele>2458</ele>
        <time>2017-10-08T11:14:15Z</time>
      </trkpt>
      <trkpt lat="42.54633" lon="1.92749">
        <ele>2456</ele>
        <time>2017-10-08T11:15:27Z</time>
      </trkpt>
      <trkpt lat="42.54627" lon="1.92743">
        <ele>2455</ele>
        <time>2017-10-08T11:17:23Z</time>
      </trkpt>
      <trkpt lat="42.54631" lon="1.92739">
        <ele>2454</ele>
        <time>2017-10-08T11:18:37Z</time>
      </trkpt>
      <trkpt lat="42.54632" lon="1.92734">
        <ele>2454</ele>
        <time>2017-10-08T11:18:42Z</time>
      </trkpt>
      <trkpt lat="42.54629" lon="1.92728">
        <ele>2454</ele>
        <time>2017-10-08T11:18:55Z</time>
      </trkpt>
      <trkpt lat="42.54629" lon="1.92722">
        <ele>2453</ele>
        <time>2017-10-08T11:19:01Z</time>
      </trkpt>
      <trkpt lat="42.54625" lon="1.92702">
        <ele>2450</ele>
        <time>2017-10-08T11:19:24Z</time>
      </trkpt>
      <trkpt lat="42.54622" lon="1.92697">
        <ele>2448</ele>
        <time>2017-10-08T11:19:42Z</time>
      </trkpt>
      <trkpt lat="42.54616" lon="1.92692">
        <ele>2446</ele>
        <time>2017-10-08T11:20:06Z</time>
      </trkpt>
      <trkpt lat="42.54607" lon="1.92702">
        <ele>2443</ele>
        <time>2017-10-08T11:20:25Z</time>
      </trkpt>
      <trkpt lat="42.54604" lon="1.92707">
        <ele>2442</ele>
        <time>2017-10-08T11:20:31Z</time>
      </trkpt>
      <trkpt lat="42.54599" lon="1.92709">
        <ele>2441</ele>
        <time>2017-10-08T11:20:38Z</time>
      </trkpt>
      <trkpt lat="42.54592" lon="1.92719">
        <ele>2439</ele>
        <time>2017-10-08T11:20:49Z</time>
      </trkpt>
      <trkpt lat="42.54588" lon="1.92721">
        <ele>2439</ele>
        <time>2017-10-08T11:20:57Z</time>
      </trkpt>
      <trkpt lat="42.54584" lon="1.92725">
        <ele>2438</ele>
        <time>2017-10-08T11:21:21Z</time>
      </trkpt>
      <trkpt lat="42.54584" lon="1.92732">
        <ele>2437</ele>
        <time>2017-10-08T11:21:26Z</time>
      </trkpt>
      <trkpt lat="42.54582" lon="1.92738">
        <ele>2436</ele>
        <time>2017-10-08T11:21:31Z</time>
      </trkpt>
      <trkpt lat="42.5458" lon="1.92743">
        <ele>2436</ele>
        <time>2017-10-08T11:21:36Z</time>
      </trkpt>
      <trkpt lat="42.54581" lon="1.92752">
        <ele>2436</ele>
        <time>2017-10-08T11:21:56Z</time>
      </trkpt>
      <trkpt lat="42.5458" lon="1.92758">
        <ele>2437</ele>
        <time>2017-10-08T11:22:01Z</time>
      </trkpt>
      <trkpt lat="42.54578" lon="1.92765">
        <ele>2437</ele>
        <time>2017-10-08T11:22:06Z</time>
      </trkpt>
      <trkpt lat="42.54572" lon="1.92775">
        <ele>2437</ele>
        <time>2017-10-08T11:22:16Z</time>
      </trkpt>
      <trkpt lat="42.54559" lon="1.92797">
        <ele>2436</ele>
        <time>2017-10-08T11:22:36Z</time>
      </trkpt>
      <trkpt lat="42.54557" lon="1.92803">
        <ele>2436</ele>
        <time>2017-10-08T11:22:40Z</time>
      </trkpt>
      <trkpt lat="42.54557" lon="1.92809">
        <ele>2436</ele>
        <time>2017-10-08T11:22:46Z</time>
      </trkpt>
      <trkpt lat="42.54554" lon="1.92814">
        <ele>2436</ele>
        <time>2017-10-08T11:22:54Z</time>
      </trkpt>
      <trkpt lat="42.54549" lon="1.92817">
        <ele>2435</ele>
        <time>2017-10-08T11:23:06Z</time>
      </trkpt>
      <trkpt lat="42.54544" lon="1.92817">
        <ele>2434</ele>
        <time>2017-10-08T11:23:14Z</time>
      </trkpt>
      <trkpt lat="42.54541" lon="1.92822">
        <ele>2433</ele>
        <time>2017-10-08T11:23:19Z</time>
      </trkpt>
      <trkpt lat="42.54539" lon="1.92829">
        <ele>2432</ele>
        <time>2017-10-08T11:23:25Z</time>
      </trkpt>
      <trkpt lat="42.5454" lon="1.92835">
        <ele>2432</ele>
        <time>2017-10-08T11:23:33Z</time>
      </trkpt>
      <trkpt lat="42.54539" lon="1.92842">
        <ele>2432</ele>
        <time>2017-10-08T11:23:40Z</time>
      </trkpt>
      <trkpt lat="42.5453" lon="1.92861">
        <ele>2431</ele>
        <time>2017-10-08T11:23:55Z</time>
      </trkpt>
      <trkpt lat="42.54529" lon="1.92867">
        <ele>2431</ele>
        <time>2017-10-08T11:24:00Z</time>
      </trkpt>
      <trkpt lat="42.54525" lon="1.92881">
        <ele>2432</ele>
        <time>2017-10-08T11:24:19Z</time>
      </trkpt>
      <trkpt lat="42.54526" lon="1.92888">
        <ele>2433</ele>
        <time>2017-10-08T11:24:26Z</time>
      </trkpt>
      <trkpt lat="42.54523" lon="1.92893">
        <ele>2433</ele>
        <time>2017-10-08T11:24:31Z</time>
      </trkpt>
      <trkpt lat="42.54522" lon="1.92906">
        <ele>2433</ele>
        <time>2017-10-08T11:24:51Z</time>
      </trkpt>
      <trkpt lat="42.5452" lon="1.92917">
        <ele>2433</ele>
        <time>2017-10-08T11:25:11Z</time>
      </trkpt>
      <trkpt lat="42.54516" lon="1.92922">
        <ele>2434</ele>
        <time>2017-10-08T11:25:19Z</time>
      </trkpt>
      <trkpt lat="42.54514" lon="1.92935">
        <ele>2433</ele>
        <time>2017-10-08T11:25:29Z</time>
      </trkpt>
      <trkpt lat="42.54512" lon="1.92941">
        <ele>2433</ele>
        <time>2017-10-08T11:25:34Z</time>
      </trkpt>
      <trkpt lat="42.54511" lon="1.92948">
        <ele>2434</ele>
        <time>2017-10-08T11:26:08Z</time>
      </trkpt>
      <trkpt lat="42.5451" lon="1.92961">
        <ele>2434</ele>
        <time>2017-10-08T11:26:21Z</time>
      </trkpt>
      <trkpt lat="42.54505" lon="1.92974">
        <ele>2434</ele>
        <time>2017-10-08T11:26:30Z</time>
      </trkpt>
      <trkpt lat="42.54504" lon="1.92981">
        <ele>2434</ele>
        <time>2017-10-08T11:26:35Z</time>
      </trkpt>
      <trkpt lat="42.54502" lon="1.93009">
        <ele>2437</ele>
        <time>2017-10-08T11:26:57Z</time>
      </trkpt>
      <trkpt lat="42.545" lon="1.93014">
        <ele>2437</ele>
        <time>2017-10-08T11:27:04Z</time>
      </trkpt>
      <trkpt lat="42.54496" lon="1.93023">
        <ele>2439</ele>
        <time>2017-10-08T11:27:48Z</time>
      </trkpt>
      <trkpt lat="42.54494" lon="1.93032">
        <ele>2438</ele>
        <time>2017-10-08T11:28:07Z</time>
      </trkpt>
      <trkpt lat="42.54489" lon="1.93035">
        <ele>2438</ele>
        <time>2017-10-08T11:28:16Z</time>
      </trkpt>
      <trkpt lat="42.54485" lon="1.93041">
        <ele>2437</ele>
        <time>2017-10-08T11:28:21Z</time>
      </trkpt>
      <trkpt lat="42.54479" lon="1.93048">
        <ele>2437</ele>
        <time>2017-10-08T11:28:38Z</time>
      </trkpt>
      <trkpt lat="42.54475" lon="1.93052">
        <ele>2437</ele>
        <time>2017-10-08T11:28:43Z</time>
      </trkpt>
      <trkpt lat="42.54473" lon="1.9306">
        <ele>2437</ele>
        <time>2017-10-08T11:29:06Z</time>
      </trkpt>
      <trkpt lat="42.54468" lon="1.93058">
        <ele>2437</ele>
        <time>2017-10-08T11:29:12Z</time>
      </trkpt>
      <trkpt lat="42.54463" lon="1.93058">
        <ele>2437</ele>
        <time>2017-10-08T11:29:19Z</time>
      </trkpt>
      <trkpt lat="42.54459" lon="1.93062">
        <ele>2436</ele>
        <time>2017-10-08T11:29:25Z</time>
      </trkpt>
      <trkpt lat="42.5445" lon="1.93066">
        <ele>2434</ele>
        <time>2017-10-08T11:29:37Z</time>
      </trkpt>
      <trkpt lat="42.54444" lon="1.93068">
        <ele>2433</ele>
        <time>2017-10-08T11:29:42Z</time>
      </trkpt>
      <trkpt lat="42.54438" lon="1.93064">
        <ele>2433</ele>
        <time>2017-10-08T11:29:57Z</time>
      </trkpt>
      <trkpt lat="42.54436" lon="1.93065">
        <ele>2433</ele>
        <time>2017-10-08T11:30:39Z</time>
      </trkpt>
      <trkpt lat="42.54434" lon="1.93072">
        <ele>2433</ele>
        <time>2017-10-08T11:30:44Z</time>
      </trkpt>
      <trkpt lat="42.54432" lon="1.93084">
        <ele>2433</ele>
        <time>2017-10-08T11:30:53Z</time>
      </trkpt>
      <trkpt lat="42.54432" lon="1.93091">
        <ele>2432</ele>
        <time>2017-10-08T11:30:59Z</time>
      </trkpt>
      <trkpt lat="42.54431" lon="1.93098">
        <ele>2432</ele>
        <time>2017-10-08T11:31:05Z</time>
      </trkpt>
      <trkpt lat="42.54429" lon="1.93104">
        <ele>2430</ele>
        <time>2017-10-08T11:31:11Z</time>
      </trkpt>
      <trkpt lat="42.5442" lon="1.93115">
        <ele>2429</ele>
        <time>2017-10-08T11:31:46Z</time>
      </trkpt>
      <trkpt lat="42.54418" lon="1.9312">
        <ele>2429</ele>
        <time>2017-10-08T11:31:51Z</time>
      </trkpt>
      <trkpt lat="42.54422" lon="1.93132">
        <ele>2428</ele>
        <time>2017-10-08T11:32:02Z</time>
      </trkpt>
      <trkpt lat="42.54422" lon="1.93139">
        <ele>2428</ele>
        <time>2017-10-08T11:32:07Z</time>
      </trkpt>
      <trkpt lat="42.5442" lon="1.93145">
        <ele>2427</ele>
        <time>2017-10-08T11:32:12Z</time>
      </trkpt>
      <trkpt lat="42.54417" lon="1.93151">
        <ele>2427</ele>
        <time>2017-10-08T11:32:19Z</time>
      </trkpt>
      <trkpt lat="42.54416" lon="1.93157">
        <ele>2426</ele>
        <time>2017-10-08T11:32:27Z</time>
      </trkpt>
      <trkpt lat="42.5441" lon="1.9317">
        <ele>2426</ele>
        <time>2017-10-08T11:33:03Z</time>
      </trkpt>
      <trkpt lat="42.54407" lon="1.93176">
        <ele>2425</ele>
        <time>2017-10-08T11:33:10Z</time>
      </trkpt>
      <trkpt lat="42.54398" lon="1.93191">
        <ele>2423</ele>
        <time>2017-10-08T11:33:29Z</time>
      </trkpt>
      <trkpt lat="42.54391" lon="1.93192">
        <ele>2421</ele>
        <time>2017-10-08T11:33:42Z</time>
      </trkpt>
      <trkpt lat="42.54388" lon="1.93213">
        <ele>2419</ele>
        <time>2017-10-08T11:33:58Z</time>
      </trkpt>
      <trkpt lat="42.54389" lon="1.93219">
        <ele>2418</ele>
        <time>2017-10-08T11:34:02Z</time>
      </trkpt>
      <trkpt lat="42.54383" lon="1.93231">
        <ele>2418</ele>
        <time>2017-10-08T11:34:12Z</time>
      </trkpt>
      <trkpt lat="42.54384" lon="1.93238">
        <ele>2418</ele>
        <time>2017-10-08T11:34:17Z</time>
      </trkpt>
      <trkpt lat="42.54382" lon="1.93244">
        <ele>2417</ele>
        <time>2017-10-08T11:34:22Z</time>
      </trkpt>
      <trkpt lat="42.54383" lon="1.93251">
        <ele>2417</ele>
        <time>2017-10-08T11:34:26Z</time>
      </trkpt>
      <trkpt lat="42.54381" lon="1.93257">
        <ele>2416</ele>
        <time>2017-10-08T11:34:30Z</time>
      </trkpt>
      <trkpt lat="42.54365" lon="1.93283">
        <ele>2413</ele>
        <time>2017-10-08T11:34:58Z</time>
      </trkpt>
      <trkpt lat="42.54354" lon="1.93301">
        <ele>2410</ele>
        <time>2017-10-08T11:35:32Z</time>
      </trkpt>
      <trkpt lat="42.5435" lon="1.93302">
        <ele>2409</ele>
        <time>2017-10-08T11:35:37Z</time>
      </trkpt>
      <trkpt lat="42.54346" lon="1.93306">
        <ele>2408</ele>
        <time>2017-10-08T11:35:43Z</time>
      </trkpt>
      <trkpt lat="42.54343" lon="1.93311">
        <ele>2406</ele>
        <time>2017-10-08T11:35:50Z</time>
      </trkpt>
      <trkpt lat="42.54338" lon="1.93312">
        <ele>2406</ele>
        <time>2017-10-08T11:35:56Z</time>
      </trkpt>
      <trkpt lat="42.54334" lon="1.93316">
        <ele>2404</ele>
        <time>2017-10-08T11:36:03Z</time>
      </trkpt>
      <trkpt lat="42.5433" lon="1.93321">
        <ele>2403</ele>
        <time>2017-10-08T11:36:10Z</time>
      </trkpt>
      <trkpt lat="42.54326" lon="1.93345">
        <ele>2397</ele>
        <time>2017-10-08T11:36:46Z</time>
      </trkpt>
      <trkpt lat="42.54324" lon="1.93379">
        <ele>2392</ele>
        <time>2017-10-08T11:37:14Z</time>
      </trkpt>
      <trkpt lat="42.54326" lon="1.93384">
        <ele>2391</ele>
        <time>2017-10-08T11:37:20Z</time>
      </trkpt>
      <trkpt lat="42.54326" lon="1.93392">
        <ele>2391</ele>
        <time>2017-10-08T11:37:44Z</time>
      </trkpt>
      <trkpt lat="42.54328" lon="1.93404">
        <ele>2390</ele>
        <time>2017-10-08T11:37:57Z</time>
      </trkpt>
      <trkpt lat="42.54327" lon="1.93411">
        <ele>2389</ele>
        <time>2017-10-08T11:38:04Z</time>
      </trkpt>
      <trkpt lat="42.54325" lon="1.93418">
        <ele>2388</ele>
        <time>2017-10-08T11:38:11Z</time>
      </trkpt>
      <trkpt lat="42.54327" lon="1.93424">
        <ele>2387</ele>
        <time>2017-10-08T11:38:17Z</time>
      </trkpt>
      <trkpt lat="42.54328" lon="1.93437">
        <ele>2385</ele>
        <time>2017-10-08T11:38:28Z</time>
      </trkpt>
      <trkpt lat="42.54325" lon="1.93441">
        <ele>2385</ele>
        <time>2017-10-08T11:38:34Z</time>
      </trkpt>
      <trkpt lat="42.54313" lon="1.93461">
        <ele>2381</ele>
        <time>2017-10-08T11:38:57Z</time>
      </trkpt>
      <trkpt lat="42.54315" lon="1.93475">
        <ele>2379</ele>
        <time>2017-10-08T11:39:14Z</time>
      </trkpt>
      <trkpt lat="42.54314" lon="1.93481">
        <ele>2378</ele>
        <time>2017-10-08T11:39:21Z</time>
      </trkpt>
      <trkpt lat="42.54315" lon="1.93488">
        <ele>2377</ele>
        <time>2017-10-08T11:39:27Z</time>
      </trkpt>
      <trkpt lat="42.54307" lon="1.93519">
        <ele>2373</ele>
        <time>2017-10-08T11:39:55Z</time>
      </trkpt>
      <trkpt lat="42.54305" lon="1.93538">
        <ele>2371</ele>
        <time>2017-10-08T11:40:11Z</time>
      </trkpt>
      <trkpt lat="42.54302" lon="1.93543">
        <ele>2370</ele>
        <time>2017-10-08T11:40:17Z</time>
      </trkpt>
      <trkpt lat="42.54301" lon="1.93549">
        <ele>2370</ele>
        <time>2017-10-08T11:40:23Z</time>
      </trkpt>
      <trkpt lat="42.54298" lon="1.93554">
        <ele>2369</ele>
        <time>2017-10-08T11:40:28Z</time>
      </trkpt>
      <trkpt lat="42.54293" lon="1.93558">
        <ele>2369</ele>
        <time>2017-10-08T11:40:33Z</time>
      </trkpt>
      <trkpt lat="42.54285" lon="1.93576">
        <ele>2368</ele>
        <time>2017-10-08T11:40:48Z</time>
      </trkpt>
      <trkpt lat="42.54278" lon="1.93585">
        <ele>2367</ele>
        <time>2017-10-08T11:40:58Z</time>
      </trkpt>
      <trkpt lat="42.5427" lon="1.93602">
        <ele>2365</ele>
        <time>2017-10-08T11:41:12Z</time>
      </trkpt>
      <trkpt lat="42.54269" lon="1.93609">
        <ele>2364</ele>
        <time>2017-10-08T11:41:17Z</time>
      </trkpt>
      <trkpt lat="42.54265" lon="1.93613">
        <ele>2364</ele>
        <time>2017-10-08T11:41:22Z</time>
      </trkpt>
      <trkpt lat="42.54263" lon="1.93619">
        <ele>2363</ele>
        <time>2017-10-08T11:41:28Z</time>
      </trkpt>
      <trkpt lat="42.5426" lon="1.93624">
        <ele>2362</ele>
        <time>2017-10-08T11:41:33Z</time>
      </trkpt>
      <trkpt lat="42.54256" lon="1.93643">
        <ele>2359</ele>
        <time>2017-10-08T11:41:50Z</time>
      </trkpt>
      <trkpt lat="42.54252" lon="1.93647">
        <ele>2358</ele>
        <time>2017-10-08T11:41:56Z</time>
      </trkpt>
      <trkpt lat="42.54248" lon="1.9365">
        <ele>2358</ele>
        <time>2017-10-08T11:42:01Z</time>
      </trkpt>
      <trkpt lat="42.54243" lon="1.93662">
        <ele>2357</ele>
        <time>2017-10-08T11:42:13Z</time>
      </trkpt>
      <trkpt lat="42.54242" lon="1.93668">
        <ele>2355</ele>
        <time>2017-10-08T11:42:18Z</time>
      </trkpt>
      <trkpt lat="42.54238" lon="1.93673">
        <ele>2355</ele>
        <time>2017-10-08T11:42:23Z</time>
      </trkpt>
      <trkpt lat="42.54235" lon="1.93676">
        <ele>2354</ele>
        <time>2017-10-08T11:42:31Z</time>
      </trkpt>
      <trkpt lat="42.54215" lon="1.93708">
        <ele>2351</ele>
        <time>2017-10-08T11:43:03Z</time>
      </trkpt>
      <trkpt lat="42.54212" lon="1.93712">
        <ele>2351</ele>
        <time>2017-10-08T11:43:08Z</time>
      </trkpt>
      <trkpt lat="42.54187" lon="1.93734">
        <ele>2348</ele>
        <time>2017-10-08T11:43:39Z</time>
      </trkpt>
      <trkpt lat="42.54183" lon="1.93738">
        <ele>2348</ele>
        <time>2017-10-08T11:43:44Z</time>
      </trkpt>
      <trkpt lat="42.54174" lon="1.93743">
        <ele>2347</ele>
        <time>2017-10-08T11:43:55Z</time>
      </trkpt>
      <trkpt lat="42.5417" lon="1.93748">
        <ele>2346</ele>
        <time>2017-10-08T11:44:00Z</time>
      </trkpt>
      <trkpt lat="42.5416" lon="1.93769">
        <ele>2343</ele>
        <time>2017-10-08T11:44:22Z</time>
      </trkpt>
      <trkpt lat="42.54157" lon="1.93773">
        <ele>2343</ele>
        <time>2017-10-08T11:44:27Z</time>
      </trkpt>
      <trkpt lat="42.54156" lon="1.93779">
        <ele>2342</ele>
        <time>2017-10-08T11:44:33Z</time>
      </trkpt>
      <trkpt lat="42.54144" lon="1.93802">
        <ele>2340</ele>
        <time>2017-10-08T11:44:54Z</time>
      </trkpt>
      <trkpt lat="42.54139" lon="1.93803">
        <ele>2340</ele>
        <time>2017-10-08T11:45:00Z</time>
      </trkpt>
      <trkpt lat="42.54132" lon="1.93812">
        <ele>2339</ele>
        <time>2017-10-08T11:45:10Z</time>
      </trkpt>
      <trkpt lat="42.54129" lon="1.93818">
        <ele>2338</ele>
        <time>2017-10-08T11:45:15Z</time>
      </trkpt>
      <trkpt lat="42.54121" lon="1.93825">
        <ele>2337</ele>
        <time>2017-10-08T11:45:25Z</time>
      </trkpt>
      <trkpt lat="42.54116" lon="1.93826">
        <ele>2337</ele>
        <time>2017-10-08T11:45:32Z</time>
      </trkpt>
      <trkpt lat="42.54111" lon="1.93824">
        <ele>2336</ele>
        <time>2017-10-08T11:45:38Z</time>
      </trkpt>
      <trkpt lat="42.54108" lon="1.93829">
        <ele>2336</ele>
        <time>2017-10-08T11:45:44Z</time>
      </trkpt>
      <trkpt lat="42.54107" lon="1.93836">
        <ele>2334</ele>
        <time>2017-10-08T11:45:50Z</time>
      </trkpt>
      <trkpt lat="42.54106" lon="1.93842">
        <ele>2334</ele>
        <time>2017-10-08T11:45:55Z</time>
      </trkpt>
      <trkpt lat="42.54105" lon="1.93848">
        <ele>2332</ele>
        <time>2017-10-08T11:46:10Z</time>
      </trkpt>
      <trkpt lat="42.54104" lon="1.93858">
        <ele>2331</ele>
        <time>2017-10-08T11:46:50Z</time>
      </trkpt>
      <trkpt lat="42.54101" lon="1.93865">
        <ele>2330</ele>
        <time>2017-10-08T11:47:09Z</time>
      </trkpt>
      <trkpt lat="42.54102" lon="1.93871">
        <ele>2329</ele>
        <time>2017-10-08T11:47:14Z</time>
      </trkpt>
      <trkpt lat="42.541" lon="1.93878">
        <ele>2328</ele>
        <time>2017-10-08T11:47:19Z</time>
      </trkpt>
      <trkpt lat="42.54101" lon="1.93884">
        <ele>2328</ele>
        <time>2017-10-08T11:47:24Z</time>
      </trkpt>
      <trkpt lat="42.54096" lon="1.93896">
        <ele>2326</ele>
        <time>2017-10-08T11:47:36Z</time>
      </trkpt>
      <trkpt lat="42.54092" lon="1.939">
        <ele>2325</ele>
        <time>2017-10-08T11:47:41Z</time>
      </trkpt>
      <trkpt lat="42.54079" lon="1.93909">
        <ele>2323</ele>
        <time>2017-10-08T11:47:58Z</time>
      </trkpt>
      <trkpt lat="42.54074" lon="1.9391">
        <ele>2322</ele>
        <time>2017-10-08T11:48:03Z</time>
      </trkpt>
      <trkpt lat="42.54064" lon="1.93913">
        <ele>2322</ele>
        <time>2017-10-08T11:48:16Z</time>
      </trkpt>
      <trkpt lat="42.54061" lon="1.93922">
        <ele>2320</ele>
        <time>2017-10-08T11:48:33Z</time>
      </trkpt>
      <trkpt lat="42.54064" lon="1.93928">
        <ele>2319</ele>
        <time>2017-10-08T11:48:40Z</time>
      </trkpt>
      <trkpt lat="42.54058" lon="1.93938">
        <ele>2317</ele>
        <time>2017-10-08T11:48:51Z</time>
      </trkpt>
      <trkpt lat="42.54056" lon="1.93945">
        <ele>2316</ele>
        <time>2017-10-08T11:48:59Z</time>
      </trkpt>
      <trkpt lat="42.54051" lon="1.93956">
        <ele>2314</ele>
        <time>2017-10-08T11:49:12Z</time>
      </trkpt>
      <trkpt lat="42.5405" lon="1.93962">
        <ele>2313</ele>
        <time>2017-10-08T11:49:21Z</time>
      </trkpt>
      <trkpt lat="42.54053" lon="1.93967">
        <ele>2312</ele>
        <time>2017-10-08T11:49:27Z</time>
      </trkpt>
      <trkpt lat="42.5405" lon="1.93973">
        <ele>2311</ele>
        <time>2017-10-08T11:49:32Z</time>
      </trkpt>
      <trkpt lat="42.54049" lon="1.9398">
        <ele>2311</ele>
        <time>2017-10-08T11:50:46Z</time>
      </trkpt>
      <trkpt lat="42.54043" lon="1.93988">
        <ele>2311</ele>
        <time>2017-10-08T11:53:36Z</time>
      </trkpt>
      <trkpt lat="42.54037" lon="1.93994">
        <ele>2309</ele>
        <time>2017-10-08T11:53:47Z</time>
      </trkpt>
      <trkpt lat="42.54026" lon="1.94008">
        <ele>2305</ele>
        <time>2017-10-08T11:54:07Z</time>
      </trkpt>
      <trkpt lat="42.54024" lon="1.94014">
        <ele>2304</ele>
        <time>2017-10-08T11:54:11Z</time>
      </trkpt>
      <trkpt lat="42.54021" lon="1.94026">
        <ele>2303</ele>
        <time>2017-10-08T11:54:21Z</time>
      </trkpt>
      <trkpt lat="42.54017" lon="1.9403">
        <ele>2302</ele>
        <time>2017-10-08T11:54:26Z</time>
      </trkpt>
      <trkpt lat="42.54012" lon="1.9403">
        <ele>2301</ele>
        <time>2017-10-08T11:54:35Z</time>
      </trkpt>
      <trkpt lat="42.54009" lon="1.94035">
        <ele>2299</ele>
        <time>2017-10-08T11:54:45Z</time>
      </trkpt>
      <trkpt lat="42.54005" lon="1.94044">
        <ele>2297</ele>
        <time>2017-10-08T11:54:57Z</time>
      </trkpt>
      <trkpt lat="42.53997" lon="1.94052">
        <ele>2295</ele>
        <time>2017-10-08T11:55:09Z</time>
      </trkpt>
      <trkpt lat="42.53996" lon="1.94059">
        <ele>2294</ele>
        <time>2017-10-08T11:55:15Z</time>
      </trkpt>
      <trkpt lat="42.53993" lon="1.94063">
        <ele>2293</ele>
        <time>2017-10-08T11:55:21Z</time>
      </trkpt>
      <trkpt lat="42.53989" lon="1.94067">
        <ele>2292</ele>
        <time>2017-10-08T11:55:27Z</time>
      </trkpt>
      <trkpt lat="42.53984" lon="1.94068">
        <ele>2291</ele>
        <time>2017-10-08T11:55:32Z</time>
      </trkpt>
      <trkpt lat="42.5398" lon="1.94072">
        <ele>2290</ele>
        <time>2017-10-08T11:55:39Z</time>
      </trkpt>
      <trkpt lat="42.53976" lon="1.94073">
        <ele>2289</ele>
        <time>2017-10-08T11:55:45Z</time>
      </trkpt>
      <trkpt lat="42.53974" lon="1.94079">
        <ele>2288</ele>
        <time>2017-10-08T11:55:52Z</time>
      </trkpt>
      <trkpt lat="42.53962" lon="1.94089">
        <ele>2285</ele>
        <time>2017-10-08T11:56:12Z</time>
      </trkpt>
      <trkpt lat="42.53956" lon="1.94097">
        <ele>2283</ele>
        <time>2017-10-08T11:56:26Z</time>
      </trkpt>
      <trkpt lat="42.53952" lon="1.94099">
        <ele>2282</ele>
        <time>2017-10-08T11:56:32Z</time>
      </trkpt>
      <trkpt lat="42.53942" lon="1.94098">
        <ele>2280</ele>
        <time>2017-10-08T11:56:49Z</time>
      </trkpt>
      <trkpt lat="42.53937" lon="1.941">
        <ele>2279</ele>
        <time>2017-10-08T11:56:55Z</time>
      </trkpt>
      <trkpt lat="42.53932" lon="1.94099">
        <ele>2278</ele>
        <time>2017-10-08T11:57:02Z</time>
      </trkpt>
      <trkpt lat="42.53927" lon="1.94095">
        <ele>2277</ele>
        <time>2017-10-08T11:57:07Z</time>
      </trkpt>
      <trkpt lat="42.53924" lon="1.9409">
        <ele>2276</ele>
        <time>2017-10-08T11:57:13Z</time>
      </trkpt>
      <trkpt lat="42.5392" lon="1.94086">
        <ele>2275</ele>
        <time>2017-10-08T11:57:20Z</time>
      </trkpt>
      <trkpt lat="42.53916" lon="1.94083">
        <ele>2274</ele>
        <time>2017-10-08T11:57:28Z</time>
      </trkpt>
      <trkpt lat="42.53915" lon="1.9409">
        <ele>2273</ele>
        <time>2017-10-08T11:57:35Z</time>
      </trkpt>
      <trkpt lat="42.53913" lon="1.94095">
        <ele>2271</ele>
        <time>2017-10-08T11:57:44Z</time>
      </trkpt>
      <trkpt lat="42.53901" lon="1.94106">
        <ele>2266</ele>
        <time>2017-10-08T11:58:20Z</time>
      </trkpt>
      <trkpt lat="42.53896" lon="1.94108">
        <ele>2265</ele>
        <time>2017-10-08T11:58:27Z</time>
      </trkpt>
      <trkpt lat="42.53895" lon="1.94114">
        <ele>2264</ele>
        <time>2017-10-08T11:58:35Z</time>
      </trkpt>
      <trkpt lat="42.53892" lon="1.94119">
        <ele>2263</ele>
        <time>2017-10-08T11:58:41Z</time>
      </trkpt>
      <trkpt lat="42.5389" lon="1.94125">
        <ele>2262</ele>
        <time>2017-10-08T11:58:49Z</time>
      </trkpt>
      <trkpt lat="42.53878" lon="1.94145">
        <ele>2257</ele>
        <time>2017-10-08T11:59:23Z</time>
      </trkpt>
      <trkpt lat="42.53876" lon="1.94151">
        <ele>2255</ele>
        <time>2017-10-08T11:59:32Z</time>
      </trkpt>
      <trkpt lat="42.5387" lon="1.94159">
        <ele>2252</ele>
        <time>2017-10-08T11:59:49Z</time>
      </trkpt>
      <trkpt lat="42.53867" lon="1.94168">
        <ele>2251</ele>
        <time>2017-10-08T12:00:03Z</time>
      </trkpt>
      <trkpt lat="42.53862" lon="1.94179">
        <ele>2249</ele>
        <time>2017-10-08T12:00:21Z</time>
      </trkpt>
      <trkpt lat="42.53858" lon="1.94182">
        <ele>2248</ele>
        <time>2017-10-08T12:00:28Z</time>
      </trkpt>
      <trkpt lat="42.53854" lon="1.94193">
        <ele>2244</ele>
        <time>2017-10-08T12:00:48Z</time>
      </trkpt>
      <trkpt lat="42.53851" lon="1.94199">
        <ele>2243</ele>
        <time>2017-10-08T12:01:09Z</time>
      </trkpt>
      <trkpt lat="42.53848" lon="1.94204">
        <ele>2241</ele>
        <time>2017-10-08T12:01:23Z</time>
      </trkpt>
      <trkpt lat="42.53845" lon="1.94209">
        <ele>2240</ele>
        <time>2017-10-08T12:01:30Z</time>
      </trkpt>
      <trkpt lat="42.53843" lon="1.94214">
        <ele>2238</ele>
        <time>2017-10-08T12:01:37Z</time>
      </trkpt>
      <trkpt lat="42.53841" lon="1.94225">
        <ele>2236</ele>
        <time>2017-10-08T12:01:54Z</time>
      </trkpt>
      <trkpt lat="42.53835" lon="1.94235">
        <ele>2234</ele>
        <time>2017-10-08T12:02:09Z</time>
      </trkpt>
      <trkpt lat="42.53831" lon="1.9424">
        <ele>2232</ele>
        <time>2017-10-08T12:03:53Z</time>
      </trkpt>
      <trkpt lat="42.53826" lon="1.94238">
        <ele>2231</ele>
        <time>2017-10-08T12:03:59Z</time>
      </trkpt>
      <trkpt lat="42.53814" lon="1.94249">
        <ele>2227</ele>
        <time>2017-10-08T12:04:23Z</time>
      </trkpt>
      <trkpt lat="42.53811" lon="1.94254">
        <ele>2226</ele>
        <time>2017-10-08T12:04:28Z</time>
      </trkpt>
      <trkpt lat="42.5379" lon="1.94269">
        <ele>2222</ele>
        <time>2017-10-08T12:05:02Z</time>
      </trkpt>
      <trkpt lat="42.53786" lon="1.94272">
        <ele>2220</ele>
        <time>2017-10-08T12:05:11Z</time>
      </trkpt>
      <trkpt lat="42.5377" lon="1.94275">
        <ele>2216</ele>
        <time>2017-10-08T12:05:54Z</time>
      </trkpt>
      <trkpt lat="42.53765" lon="1.94277">
        <ele>2215</ele>
        <time>2017-10-08T12:06:04Z</time>
      </trkpt>
      <trkpt lat="42.53761" lon="1.9428">
        <ele>2213</ele>
        <time>2017-10-08T12:06:12Z</time>
      </trkpt>
      <trkpt lat="42.53756" lon="1.94281">
        <ele>2212</ele>
        <time>2017-10-08T12:06:17Z</time>
      </trkpt>
      <trkpt lat="42.53755" lon="1.94287">
        <ele>2211</ele>
        <time>2017-10-08T12:06:23Z</time>
      </trkpt>
      <trkpt lat="42.53748" lon="1.94297">
        <ele>2209</ele>
        <time>2017-10-08T12:06:43Z</time>
      </trkpt>
      <trkpt lat="42.5374" lon="1.94303">
        <ele>2207</ele>
        <time>2017-10-08T12:06:56Z</time>
      </trkpt>
      <trkpt lat="42.53735" lon="1.94303">
        <ele>2206</ele>
        <time>2017-10-08T12:07:04Z</time>
      </trkpt>
      <trkpt lat="42.53726" lon="1.94308">
        <ele>2205</ele>
        <time>2017-10-08T12:07:19Z</time>
      </trkpt>
      <trkpt lat="42.53722" lon="1.94311">
        <ele>2204</ele>
        <time>2017-10-08T12:07:27Z</time>
      </trkpt>
      <trkpt lat="42.53713" lon="1.94317">
        <ele>2203</ele>
        <time>2017-10-08T12:07:50Z</time>
      </trkpt>
      <trkpt lat="42.53705" lon="1.94318">
        <ele>2202</ele>
        <time>2017-10-08T12:08:26Z</time>
      </trkpt>
      <trkpt lat="42.53702" lon="1.94313">
        <ele>2201</ele>
        <time>2017-10-08T12:08:32Z</time>
      </trkpt>
      <trkpt lat="42.53698" lon="1.94313">
        <ele>2200</ele>
        <time>2017-10-08T12:08:39Z</time>
      </trkpt>
      <trkpt lat="42.53693" lon="1.94315">
        <ele>2198</ele>
        <time>2017-10-08T12:09:02Z</time>
      </trkpt>
      <trkpt lat="42.53688" lon="1.94318">
        <ele>2196</ele>
        <time>2017-10-08T12:09:24Z</time>
      </trkpt>
      <trkpt lat="42.53683" lon="1.94318">
        <ele>2192</ele>
        <time>2017-10-08T12:09:40Z</time>
      </trkpt>
      <trkpt lat="42.5367" lon="1.94317">
        <ele>2189</ele>
        <time>2017-10-08T12:10:03Z</time>
      </trkpt>
      <trkpt lat="42.53666" lon="1.94322">
        <ele>2186</ele>
        <time>2017-10-08T12:10:23Z</time>
      </trkpt>
      <trkpt lat="42.53661" lon="1.94328">
        <ele>2185</ele>
        <time>2017-10-08T12:11:17Z</time>
      </trkpt>
      <trkpt lat="42.53657" lon="1.9433">
        <ele>2185</ele>
        <time>2017-10-08T12:11:22Z</time>
      </trkpt>
      <trkpt lat="42.53652" lon="1.94332">
        <ele>2183</ele>
        <time>2017-10-08T12:11:30Z</time>
      </trkpt>
      <trkpt lat="42.53648" lon="1.94342">
        <ele>2181</ele>
        <time>2017-10-08T12:11:44Z</time>
      </trkpt>
      <trkpt lat="42.53645" lon="1.94347">
        <ele>2180</ele>
        <time>2017-10-08T12:11:52Z</time>
      </trkpt>
      <trkpt lat="42.53644" lon="1.94358">
        <ele>2177</ele>
        <time>2017-10-08T12:12:10Z</time>
      </trkpt>
      <trkpt lat="42.5364" lon="1.94359">
        <ele>2177</ele>
        <time>2017-10-08T12:12:19Z</time>
      </trkpt>
      <trkpt lat="42.53635" lon="1.94358">
        <ele>2175</ele>
        <time>2017-10-08T12:12:26Z</time>
      </trkpt>
      <trkpt lat="42.5363" lon="1.9436">
        <ele>2174</ele>
        <time>2017-10-08T12:12:35Z</time>
      </trkpt>
      <trkpt lat="42.53623" lon="1.94381">
        <ele>2166</ele>
        <time>2017-10-08T12:13:16Z</time>
      </trkpt>
      <trkpt lat="42.53615" lon="1.9438">
        <ele>2165</ele>
        <time>2017-10-08T12:13:31Z</time>
      </trkpt>
      <trkpt lat="42.53611" lon="1.94384">
        <ele>2163</ele>
        <time>2017-10-08T12:13:48Z</time>
      </trkpt>
      <trkpt lat="42.53606" lon="1.94391">
        <ele>2160</ele>
        <time>2017-10-08T12:14:02Z</time>
      </trkpt>
      <trkpt lat="42.536" lon="1.94391">
        <ele>2158</ele>
        <time>2017-10-08T12:14:15Z</time>
      </trkpt>
      <trkpt lat="42.53597" lon="1.94397">
        <ele>2155</ele>
        <time>2017-10-08T12:14:32Z</time>
      </trkpt>
      <trkpt lat="42.53593" lon="1.94397">
        <ele>2154</ele>
        <time>2017-10-08T12:14:38Z</time>
      </trkpt>
      <trkpt lat="42.53588" lon="1.94401">
        <ele>2152</ele>
        <time>2017-10-08T12:14:45Z</time>
      </trkpt>
      <trkpt lat="42.53585" lon="1.94405">
        <ele>2150</ele>
        <time>2017-10-08T12:14:55Z</time>
      </trkpt>
      <trkpt lat="42.53577" lon="1.94416">
        <ele>2147</ele>
        <time>2017-10-08T12:15:11Z</time>
      </trkpt>
      <trkpt lat="42.53564" lon="1.94418">
        <ele>2145</ele>
        <time>2017-10-08T12:15:33Z</time>
      </trkpt>
      <trkpt lat="42.53554" lon="1.94425">
        <ele>2142</ele>
        <time>2017-10-08T12:15:54Z</time>
      </trkpt>
      <trkpt lat="42.5355" lon="1.94429">
        <ele>2141</ele>
        <time>2017-10-08T12:16:01Z</time>
      </trkpt>
      <trkpt lat="42.53541" lon="1.94424">
        <ele>2139</ele>
        <time>2017-10-08T12:16:16Z</time>
      </trkpt>
      <trkpt lat="42.53536" lon="1.94426">
        <ele>2138</ele>
        <time>2017-10-08T12:16:23Z</time>
      </trkpt>
      <trkpt lat="42.53522" lon="1.94423">
        <ele>2135</ele>
        <time>2017-10-08T12:16:44Z</time>
      </trkpt>
      <trkpt lat="42.53509" lon="1.94428">
        <ele>2131</ele>
        <time>2017-10-08T12:17:15Z</time>
      </trkpt>
      <trkpt lat="42.53506" lon="1.94432">
        <ele>2127</ele>
        <time>2017-10-08T12:17:33Z</time>
      </trkpt>
      <trkpt lat="42.53502" lon="1.94437">
        <ele>2126</ele>
        <time>2017-10-08T12:17:41Z</time>
      </trkpt>
      <trkpt lat="42.53498" lon="1.94441">
        <ele>2124</ele>
        <time>2017-10-08T12:17:49Z</time>
      </trkpt>
      <trkpt lat="42.53493" lon="1.9444">
        <ele>2124</ele>
        <time>2017-10-08T12:17:56Z</time>
      </trkpt>
      <trkpt lat="42.53488" lon="1.94437">
        <ele>2123</ele>
        <time>2017-10-08T12:18:01Z</time>
      </trkpt>
      <trkpt lat="42.53483" lon="1.94438">
        <ele>2122</ele>
        <time>2017-10-08T12:18:13Z</time>
      </trkpt>
      <trkpt lat="42.53479" lon="1.94441">
        <ele>2121</ele>
        <time>2017-10-08T12:18:20Z</time>
      </trkpt>
      <trkpt lat="42.53473" lon="1.94445">
        <ele>2118</ele>
        <time>2017-10-08T12:18:39Z</time>
      </trkpt>
      <trkpt lat="42.53466" lon="1.94446">
        <ele>2116</ele>
        <time>2017-10-08T12:20:14Z</time>
      </trkpt>
      <trkpt lat="42.53455" lon="1.94435">
        <ele>2113</ele>
        <time>2017-10-08T12:20:33Z</time>
      </trkpt>
      <trkpt lat="42.53437" lon="1.94424">
        <ele>2109</ele>
        <time>2017-10-08T12:21:04Z</time>
      </trkpt>
      <trkpt lat="42.53429" lon="1.94417">
        <ele>2107</ele>
        <time>2017-10-08T12:21:14Z</time>
      </trkpt>
      <trkpt lat="42.53425" lon="1.94412">
        <ele>2107</ele>
        <time>2017-10-08T12:21:20Z</time>
      </trkpt>
      <trkpt lat="42.53417" lon="1.94411">
        <ele>2106</ele>
        <time>2017-10-08T12:21:40Z</time>
      </trkpt>
      <trkpt lat="42.53408" lon="1.94405">
        <ele>2105</ele>
        <time>2017-10-08T12:21:52Z</time>
      </trkpt>
      <trkpt lat="42.53405" lon="1.94411">
        <ele>2104</ele>
        <time>2017-10-08T12:22:00Z</time>
      </trkpt>
      <trkpt lat="42.53394" lon="1.94416">
        <ele>2101</ele>
        <time>2017-10-08T12:22:21Z</time>
      </trkpt>
      <trkpt lat="42.53385" lon="1.94417">
        <ele>2098</ele>
        <time>2017-10-08T12:22:33Z</time>
      </trkpt>
      <trkpt lat="42.53375" lon="1.94412">
        <ele>2095</ele>
        <time>2017-10-08T12:22:44Z</time>
      </trkpt>
      <trkpt lat="42.53357" lon="1.94409">
        <ele>2092</ele>
        <time>2017-10-08T12:23:08Z</time>
      </trkpt>
      <trkpt lat="42.53353" lon="1.94415">
        <ele>2091</ele>
        <time>2017-10-08T12:23:20Z</time>
      </trkpt>
      <trkpt lat="42.53347" lon="1.94416">
        <ele>2091</ele>
        <time>2017-10-08T12:23:27Z</time>
      </trkpt>
      <trkpt lat="42.53338" lon="1.94416">
        <ele>2089</ele>
        <time>2017-10-08T12:23:39Z</time>
      </trkpt>
      <trkpt lat="42.53333" lon="1.94414">
        <ele>2089</ele>
        <time>2017-10-08T12:23:46Z</time>
      </trkpt>
      <trkpt lat="42.53328" lon="1.94415">
        <ele>2087</ele>
        <time>2017-10-08T12:23:54Z</time>
      </trkpt>
      <trkpt lat="42.53324" lon="1.94418">
        <ele>2086</ele>
        <time>2017-10-08T12:24:01Z</time>
      </trkpt>
      <trkpt lat="42.53319" lon="1.94419">
        <ele>2085</ele>
        <time>2017-10-08T12:24:08Z</time>
      </trkpt>
      <trkpt lat="42.53315" lon="1.94424">
        <ele>2084</ele>
        <time>2017-10-08T12:24:33Z</time>
      </trkpt>
      <trkpt lat="42.53313" lon="1.94419">
        <ele>2080</ele>
        <time>2017-10-08T12:31:34Z</time>
      </trkpt>
      <trkpt lat="42.53314" lon="1.94419">
        <ele>2079</ele>
        <time>2017-10-08T12:31:57Z</time>
      </trkpt>
      <trkpt lat="42.53318" lon="1.9442">
        <ele>2079</ele>
        <time>2017-10-08T12:32:03Z</time>
      </trkpt>
      <trkpt lat="42.53313" lon="1.94426">
        <ele>2077</ele>
        <time>2017-10-08T12:33:56Z</time>
      </trkpt>
      <trkpt lat="42.5331" lon="1.94431">
        <ele>2076</ele>
        <time>2017-10-08T12:34:01Z</time>
      </trkpt>
      <trkpt lat="42.53306" lon="1.94434">
        <ele>2076</ele>
        <time>2017-10-08T12:34:08Z</time>
      </trkpt>
      <trkpt lat="42.53298" lon="1.94442">
        <ele>2076</ele>
        <time>2017-10-08T12:34:18Z</time>
      </trkpt>
      <trkpt lat="42.53294" lon="1.94444">
        <ele>2076</ele>
        <time>2017-10-08T12:34:25Z</time>
      </trkpt>
      <trkpt lat="42.53289" lon="1.94444">
        <ele>2076</ele>
        <time>2017-10-08T12:34:30Z</time>
      </trkpt>
      <trkpt lat="42.53284" lon="1.9444">
        <ele>2076</ele>
        <time>2017-10-08T12:34:35Z</time>
      </trkpt>
      <trkpt lat="42.53274" lon="1.9444">
        <ele>2075</ele>
        <time>2017-10-08T12:34:45Z</time>
      </trkpt>
      <trkpt lat="42.5327" lon="1.94443">
        <ele>2075</ele>
        <time>2017-10-08T12:34:49Z</time>
      </trkpt>
      <trkpt lat="42.53264" lon="1.94453">
        <ele>2075</ele>
        <time>2017-10-08T12:34:57Z</time>
      </trkpt>
      <trkpt lat="42.5326" lon="1.94465">
        <ele>2074</ele>
        <time>2017-10-08T12:35:07Z</time>
      </trkpt>
      <trkpt lat="42.53261" lon="1.94471">
        <ele>2074</ele>
        <time>2017-10-08T12:35:12Z</time>
      </trkpt>
      <trkpt lat="42.5326" lon="1.94485">
        <ele>2073</ele>
        <time>2017-10-08T12:35:22Z</time>
      </trkpt>
      <trkpt lat="42.53252" lon="1.94502">
        <ele>2073</ele>
        <time>2017-10-08T12:35:38Z</time>
      </trkpt>
      <trkpt lat="42.53246" lon="1.94513">
        <ele>2072</ele>
        <time>2017-10-08T12:35:49Z</time>
      </trkpt>
      <trkpt lat="42.53239" lon="1.94553">
        <ele>2069</ele>
        <time>2017-10-08T12:36:19Z</time>
      </trkpt>
      <trkpt lat="42.53235" lon="1.94572">
        <ele>2068</ele>
        <time>2017-10-08T12:36:34Z</time>
      </trkpt>
      <trkpt lat="42.53232" lon="1.94578">
        <ele>2068</ele>
        <time>2017-10-08T12:36:39Z</time>
      </trkpt>
      <trkpt lat="42.53229" lon="1.94598">
        <ele>2068</ele>
        <time>2017-10-08T12:36:53Z</time>
      </trkpt>
      <trkpt lat="42.53228" lon="1.94617">
        <ele>2067</ele>
        <time>2017-10-08T12:37:05Z</time>
      </trkpt>
      <trkpt lat="42.53223" lon="1.94635">
        <ele>2066</ele>
        <time>2017-10-08T12:37:18Z</time>
      </trkpt>
      <trkpt lat="42.53222" lon="1.94643">
        <ele>2066</ele>
        <time>2017-10-08T12:37:24Z</time>
      </trkpt>
      <trkpt lat="42.53216" lon="1.94662">
        <ele>2065</ele>
        <time>2017-10-08T12:37:57Z</time>
      </trkpt>
      <trkpt lat="42.53208" lon="1.94681">
        <ele>2064</ele>
        <time>2017-10-08T12:38:11Z</time>
      </trkpt>
      <trkpt lat="42.53201" lon="1.94729">
        <ele>2061</ele>
        <time>2017-10-08T12:38:44Z</time>
      </trkpt>
      <trkpt lat="42.53188" lon="1.94773">
        <ele>2059</ele>
        <time>2017-10-08T12:39:16Z</time>
      </trkpt>
      <trkpt lat="42.53182" lon="1.94808">
        <ele>2058</ele>
        <time>2017-10-08T12:39:37Z</time>
      </trkpt>
      <trkpt lat="42.5318" lon="1.94813">
        <ele>2057</ele>
        <time>2017-10-08T12:39:41Z</time>
      </trkpt>
      <trkpt lat="42.53177" lon="1.94819">
        <ele>2057</ele>
        <time>2017-10-08T12:39:46Z</time>
      </trkpt>
      <trkpt lat="42.53164" lon="1.94826">
        <ele>2056</ele>
        <time>2017-10-08T12:39:58Z</time>
      </trkpt>
      <trkpt lat="42.53133" lon="1.94863">
        <ele>2053</ele>
        <time>2017-10-08T12:40:31Z</time>
      </trkpt>
      <trkpt lat="42.53129" lon="1.94866">
        <ele>2052</ele>
        <time>2017-10-08T12:40:35Z</time>
      </trkpt>
      <trkpt lat="42.53093" lon="1.94882">
        <ele>2050</ele>
        <time>2017-10-08T12:41:07Z</time>
      </trkpt>
      <trkpt lat="42.53075" lon="1.94893">
        <ele>2049</ele>
        <time>2017-10-08T12:41:24Z</time>
      </trkpt>
      <trkpt lat="42.53059" lon="1.9491">
        <ele>2048</ele>
        <time>2017-10-08T12:41:40Z</time>
      </trkpt>
      <trkpt lat="42.53034" lon="1.94945">
        <ele>2046</ele>
        <time>2017-10-08T12:42:11Z</time>
      </trkpt>
      <trkpt lat="42.53014" lon="1.94984">
        <ele>2043</ele>
        <time>2017-10-08T12:42:43Z</time>
      </trkpt>
      <trkpt lat="42.53001" lon="1.95028">
        <ele>2040</ele>
        <time>2017-10-08T12:43:17Z</time>
      </trkpt>
      <trkpt lat="42.52987" lon="1.95074">
        <ele>2036</ele>
        <time>2017-10-08T12:43:51Z</time>
      </trkpt>
      <trkpt lat="42.52976" lon="1.95111">
        <ele>2033</ele>
        <time>2017-10-08T12:44:17Z</time>
      </trkpt>
      <trkpt lat="42.52968" lon="1.95163">
        <ele>2029</ele>
        <time>2017-10-08T12:44:49Z</time>
      </trkpt>
      <trkpt lat="42.52967" lon="1.95171">
        <ele>2029</ele>
        <time>2017-10-08T12:44:54Z</time>
      </trkpt>
      <trkpt lat="42.52967" lon="1.95177">
        <ele>2029</ele>
        <time>2017-10-08T12:44:58Z</time>
      </trkpt>
      <trkpt lat="42.52963" lon="1.95198">
        <ele>2028</ele>
        <time>2017-10-08T12:45:10Z</time>
      </trkpt>
      <trkpt lat="42.52964" lon="1.95245">
        <ele>2025</ele>
        <time>2017-10-08T12:45:39Z</time>
      </trkpt>
      <trkpt lat="42.52962" lon="1.95252">
        <ele>2024</ele>
        <time>2017-10-08T12:45:43Z</time>
      </trkpt>
      <trkpt lat="42.52948" lon="1.9528">
        <ele>2022</ele>
        <time>2017-10-08T12:46:04Z</time>
      </trkpt>
      <trkpt lat="42.52926" lon="1.95308">
        <ele>2020</ele>
        <time>2017-10-08T12:46:31Z</time>
      </trkpt>
      <trkpt lat="42.52916" lon="1.9531">
        <ele>2019</ele>
        <time>2017-10-08T12:46:43Z</time>
      </trkpt>
      <trkpt lat="42.52906" lon="1.95316">
        <ele>2018</ele>
        <time>2017-10-08T12:46:53Z</time>
      </trkpt>
      <trkpt lat="42.52892" lon="1.95319">
        <ele>2017</ele>
        <time>2017-10-08T12:47:09Z</time>
      </trkpt>
      <trkpt lat="42.52878" lon="1.95328">
        <ele>2015</ele>
        <time>2017-10-08T12:47:28Z</time>
      </trkpt>
      <trkpt lat="42.52867" lon="1.95349">
        <ele>2013</ele>
        <time>2017-10-08T12:47:53Z</time>
      </trkpt>
      <trkpt lat="42.52864" lon="1.95362">
        <ele>2012</ele>
        <time>2017-10-08T12:48:09Z</time>
      </trkpt>
      <trkpt lat="42.52865" lon="1.95369">
        <ele>2012</ele>
        <time>2017-10-08T12:48:16Z</time>
      </trkpt>
      <trkpt lat="42.52864" lon="1.95376">
        <ele>2012</ele>
        <time>2017-10-08T12:48:23Z</time>
      </trkpt>
      <trkpt lat="42.52853" lon="1.95406">
        <ele>2009</ele>
        <time>2017-10-08T12:48:48Z</time>
      </trkpt>
      <trkpt lat="42.52853" lon="1.95412">
        <ele>2008</ele>
        <time>2017-10-08T12:48:52Z</time>
      </trkpt>
      <trkpt lat="42.52843" lon="1.95444">
        <ele>2005</ele>
        <time>2017-10-08T12:49:16Z</time>
      </trkpt>
      <trkpt lat="42.52829" lon="1.95471">
        <ele>2002</ele>
        <time>2017-10-08T12:49:47Z</time>
      </trkpt>
      <trkpt lat="42.52824" lon="1.95482">
        <ele>2001</ele>
        <time>2017-10-08T12:49:56Z</time>
      </trkpt>
      <trkpt lat="42.52812" lon="1.95526">
        <ele>1998</ele>
        <time>2017-10-08T12:50:27Z</time>
      </trkpt>
      <trkpt lat="42.52803" lon="1.95566">
        <ele>1995</ele>
        <time>2017-10-08T12:50:59Z</time>
      </trkpt>
      <trkpt lat="42.52794" lon="1.95613">
        <ele>1991</ele>
        <time>2017-10-08T12:51:31Z</time>
      </trkpt>
      <trkpt lat="42.5279" lon="1.95626">
        <ele>1990</ele>
        <time>2017-10-08T12:51:42Z</time>
      </trkpt>
      <trkpt lat="42.52786" lon="1.95645">
        <ele>1989</ele>
        <time>2017-10-08T12:51:57Z</time>
      </trkpt>
      <trkpt lat="42.52781" lon="1.95665">
        <ele>1988</ele>
        <time>2017-10-08T12:52:12Z</time>
      </trkpt>
      <trkpt lat="42.52779" lon="1.95678">
        <ele>1987</ele>
        <time>2017-10-08T12:52:21Z</time>
      </trkpt>
      <trkpt lat="42.52778" lon="1.95684">
        <ele>1986</ele>
        <time>2017-10-08T12:52:26Z</time>
      </trkpt>
      <trkpt lat="42.52774" lon="1.95689">
        <ele>1986</ele>
        <time>2017-10-08T12:52:31Z</time>
      </trkpt>
      <trkpt lat="42.5277" lon="1.95686">
        <ele>1985</ele>
        <time>2017-10-08T12:52:37Z</time>
      </trkpt>
      <trkpt lat="42.52765" lon="1.95639">
        <ele>1983</ele>
        <time>2017-10-08T12:53:11Z</time>
      </trkpt>
      <trkpt lat="42.52762" lon="1.95605">
        <ele>1982</ele>
        <time>2017-10-08T12:53:36Z</time>
      </trkpt>
      <trkpt lat="42.52754" lon="1.95581">
        <ele>1980</ele>
        <time>2017-10-08T12:53:55Z</time>
      </trkpt>
      <trkpt lat="42.5275" lon="1.95577">
        <ele>1979</ele>
        <time>2017-10-08T12:54:21Z</time>
      </trkpt>
      <trkpt lat="42.5275" lon="1.9557">
        <ele>1978</ele>
        <time>2017-10-08T12:54:34Z</time>
      </trkpt>
      <trkpt lat="42.52744" lon="1.95552">
        <ele>1977</ele>
        <time>2017-10-08T12:54:47Z</time>
      </trkpt>
      <trkpt lat="42.5274" lon="1.95518">
        <ele>1974</ele>
        <time>2017-10-08T12:55:09Z</time>
      </trkpt>
      <trkpt lat="42.52746" lon="1.95509">
        <ele>1975</ele>
        <time>2017-10-08T12:55:27Z</time>
      </trkpt>
      <trkpt lat="42.52745" lon="1.95485">
        <ele>1974</ele>
        <time>2017-10-08T12:55:56Z</time>
      </trkpt>
      <trkpt lat="42.52742" lon="1.95472">
        <ele>1974</ele>
        <time>2017-10-08T12:56:06Z</time>
      </trkpt>
      <trkpt lat="42.52742" lon="1.95465">
        <ele>1974</ele>
        <time>2017-10-08T12:56:13Z</time>
      </trkpt>
      <trkpt lat="42.52736" lon="1.95458">
        <ele>1972</ele>
        <time>2017-10-08T12:56:31Z</time>
      </trkpt>
      <trkpt lat="42.52734" lon="1.95452">
        <ele>1971</ele>
        <time>2017-10-08T12:56:35Z</time>
      </trkpt>
      <trkpt lat="42.52733" lon="1.95404">
        <ele>1968</ele>
        <time>2017-10-08T12:57:07Z</time>
      </trkpt>
      <trkpt lat="42.52732" lon="1.9539">
        <ele>1967</ele>
        <time>2017-10-08T12:57:17Z</time>
      </trkpt>
      <trkpt lat="42.52734" lon="1.95378">
        <ele>1966</ele>
        <time>2017-10-08T12:57:27Z</time>
      </trkpt>
      <trkpt lat="42.52733" lon="1.95371">
        <ele>1966</ele>
        <time>2017-10-08T12:57:31Z</time>
      </trkpt>
      <trkpt lat="42.52733" lon="1.95364">
        <ele>1965</ele>
        <time>2017-10-08T12:57:36Z</time>
      </trkpt>
      <trkpt lat="42.52726" lon="1.95316">
        <ele>1962</ele>
        <time>2017-10-08T12:58:09Z</time>
      </trkpt>
      <trkpt lat="42.52721" lon="1.95269">
        <ele>1959</ele>
        <time>2017-10-08T12:58:42Z</time>
      </trkpt>
      <trkpt lat="42.52721" lon="1.95261">
        <ele>1958</ele>
        <time>2017-10-08T12:58:47Z</time>
      </trkpt>
      <trkpt lat="42.52712" lon="1.95237">
        <ele>1956</ele>
        <time>2017-10-08T12:59:04Z</time>
      </trkpt>
      <trkpt lat="42.52697" lon="1.952">
        <ele>1953</ele>
        <time>2017-10-08T12:59:34Z</time>
      </trkpt>
      <trkpt lat="42.52687" lon="1.95175">
        <ele>1952</ele>
        <time>2017-10-08T12:59:52Z</time>
      </trkpt>
      <trkpt lat="42.52664" lon="1.95138">
        <ele>1949</ele>
        <time>2017-10-08T13:00:25Z</time>
      </trkpt>
      <trkpt lat="42.52656" lon="1.95121">
        <ele>1947</ele>
        <time>2017-10-08T13:00:39Z</time>
      </trkpt>
      <trkpt lat="42.52652" lon="1.95117">
        <ele>1947</ele>
        <time>2017-10-08T13:00:43Z</time>
      </trkpt>
      <trkpt lat="42.5264" lon="1.95094">
        <ele>1946</ele>
        <time>2017-10-08T13:01:02Z</time>
      </trkpt>
      <trkpt lat="42.52636" lon="1.9509">
        <ele>1945</ele>
        <time>2017-10-08T13:01:07Z</time>
      </trkpt>
      <trkpt lat="42.52631" lon="1.95085">
        <ele>1945</ele>
        <time>2017-10-08T13:01:12Z</time>
      </trkpt>
      <trkpt lat="42.52623" lon="1.95079">
        <ele>1944</ele>
        <time>2017-10-08T13:01:21Z</time>
      </trkpt>
      <trkpt lat="42.52618" lon="1.95078">
        <ele>1943</ele>
        <time>2017-10-08T13:01:26Z</time>
      </trkpt>
      <trkpt lat="42.52613" lon="1.95077">
        <ele>1942</ele>
        <time>2017-10-08T13:01:30Z</time>
      </trkpt>
      <trkpt lat="42.5261" lon="1.95073">
        <ele>1942</ele>
        <time>2017-10-08T13:01:34Z</time>
      </trkpt>
      <trkpt lat="42.52594" lon="1.95047">
        <ele>1940</ele>
        <time>2017-10-08T13:01:58Z</time>
      </trkpt>
      <trkpt lat="42.52586" lon="1.95045">
        <ele>1939</ele>
        <time>2017-10-08T13:02:11Z</time>
      </trkpt>
      <trkpt lat="42.52582" lon="1.95042">
        <ele>1939</ele>
        <time>2017-10-08T13:02:18Z</time>
      </trkpt>
      <trkpt lat="42.52578" lon="1.9505">
        <ele>1938</ele>
        <time>2017-10-08T13:05:29Z</time>
      </trkpt>
      <trkpt lat="42.52571" lon="1.95062">
        <ele>1935</ele>
        <time>2017-10-08T13:05:38Z</time>
      </trkpt>
      <trkpt lat="42.52555" lon="1.95087">
        <ele>1931</ele>
        <time>2017-10-08T13:06:03Z</time>
      </trkpt>
      <trkpt lat="42.52543" lon="1.95115">
        <ele>1929</ele>
        <time>2017-10-08T13:06:27Z</time>
      </trkpt>
      <trkpt lat="42.5253" lon="1.9516">
        <ele>1926</ele>
        <time>2017-10-08T13:06:58Z</time>
      </trkpt>
      <trkpt lat="42.52528" lon="1.95169">
        <ele>1925</ele>
        <time>2017-10-08T13:07:17Z</time>
      </trkpt>
      <trkpt lat="42.52522" lon="1.95175">
        <ele>1924</ele>
        <time>2017-10-08T13:07:32Z</time>
      </trkpt>
      <trkpt lat="42.52518" lon="1.95178">
        <ele>1924</ele>
        <time>2017-10-08T13:07:36Z</time>
      </trkpt>
      <trkpt lat="42.52515" lon="1.95183">
        <ele>1923</ele>
        <time>2017-10-08T13:07:40Z</time>
      </trkpt>
      <trkpt lat="42.5249" lon="1.95216">
        <ele>1918</ele>
        <time>2017-10-08T13:08:13Z</time>
      </trkpt>
      <trkpt lat="42.52481" lon="1.95224">
        <ele>1917</ele>
        <time>2017-10-08T13:08:22Z</time>
      </trkpt>
      <trkpt lat="42.52477" lon="1.95229">
        <ele>1916</ele>
        <time>2017-10-08T13:08:26Z</time>
      </trkpt>
      <trkpt lat="42.52474" lon="1.95233">
        <ele>1915</ele>
        <time>2017-10-08T13:08:30Z</time>
      </trkpt>
      <trkpt lat="42.52464" lon="1.9525">
        <ele>1914</ele>
        <time>2017-10-08T13:08:45Z</time>
      </trkpt>
      <trkpt lat="42.52452" lon="1.95263">
        <ele>1913</ele>
        <time>2017-10-08T13:09:02Z</time>
      </trkpt>
      <trkpt lat="42.52443" lon="1.95269">
        <ele>1913</ele>
        <time>2017-10-08T13:09:27Z</time>
      </trkpt>
      <trkpt lat="42.52433" lon="1.95272">
        <ele>1913</ele>
        <time>2017-10-08T13:09:38Z</time>
      </trkpt>
      <trkpt lat="42.52428" lon="1.95274">
        <ele>1912</ele>
        <time>2017-10-08T13:09:43Z</time>
      </trkpt>
      <trkpt lat="42.52419" lon="1.95274">
        <ele>1911</ele>
        <time>2017-10-08T13:09:53Z</time>
      </trkpt>
      <trkpt lat="42.52414" lon="1.95276">
        <ele>1911</ele>
        <time>2017-10-08T13:09:58Z</time>
      </trkpt>
      <trkpt lat="42.52409" lon="1.95276">
        <ele>1911</ele>
        <time>2017-10-08T13:10:03Z</time>
      </trkpt>
      <trkpt lat="42.524" lon="1.95278">
        <ele>1910</ele>
        <time>2017-10-08T13:10:13Z</time>
      </trkpt>
      <trkpt lat="42.5239" lon="1.95283">
        <ele>1910</ele>
        <time>2017-10-08T13:10:22Z</time>
      </trkpt>
      <trkpt lat="42.52386" lon="1.95283">
        <ele>1910</ele>
        <time>2017-10-08T13:10:26Z</time>
      </trkpt>
      <trkpt lat="42.52355" lon="1.95295">
        <ele>1907</ele>
        <time>2017-10-08T13:10:56Z</time>
      </trkpt>
      <trkpt lat="42.5235" lon="1.95295">
        <ele>1907</ele>
        <time>2017-10-08T13:11:00Z</time>
      </trkpt>
      <trkpt lat="42.52341" lon="1.95301">
        <ele>1907</ele>
        <time>2017-10-08T13:11:09Z</time>
      </trkpt>
      <trkpt lat="42.52338" lon="1.95306">
        <ele>1906</ele>
        <time>2017-10-08T13:11:14Z</time>
      </trkpt>
      <trkpt lat="42.52326" lon="1.95317">
        <ele>1905</ele>
        <time>2017-10-08T13:11:27Z</time>
      </trkpt>
      <trkpt lat="42.52305" lon="1.95348">
        <ele>1903</ele>
        <time>2017-10-08T13:12:00Z</time>
      </trkpt>
      <trkpt lat="42.52297" lon="1.95356">
        <ele>1901</ele>
        <time>2017-10-08T13:12:10Z</time>
      </trkpt>
      <trkpt lat="42.52293" lon="1.95361">
        <ele>1901</ele>
        <time>2017-10-08T13:12:16Z</time>
      </trkpt>
      <trkpt lat="42.5229" lon="1.95365">
        <ele>1900</ele>
        <time>2017-10-08T13:12:20Z</time>
      </trkpt>
      <trkpt lat="42.52283" lon="1.95375">
        <ele>1899</ele>
        <time>2017-10-08T13:12:29Z</time>
      </trkpt>
      <trkpt lat="42.52264" lon="1.95388">
        <ele>1897</ele>
        <time>2017-10-08T13:12:46Z</time>
      </trkpt>
      <trkpt lat="42.52251" lon="1.95394">
        <ele>1896</ele>
        <time>2017-10-08T13:13:01Z</time>
      </trkpt>
      <trkpt lat="42.52246" lon="1.95397">
        <ele>1895</ele>
        <time>2017-10-08T13:13:11Z</time>
      </trkpt>
      <trkpt lat="42.52241" lon="1.95395">
        <ele>1895</ele>
        <time>2017-10-08T13:13:16Z</time>
      </trkpt>
      <trkpt lat="42.52232" lon="1.95395">
        <ele>1894</ele>
        <time>2017-10-08T13:13:25Z</time>
      </trkpt>
      <trkpt lat="42.52212" lon="1.95395">
        <ele>1892</ele>
        <time>2017-10-08T13:13:44Z</time>
      </trkpt>
      <trkpt lat="42.52201" lon="1.95393">
        <ele>1890</ele>
        <time>2017-10-08T13:13:54Z</time>
      </trkpt>
      <trkpt lat="42.52197" lon="1.95389">
        <ele>1889</ele>
        <time>2017-10-08T13:13:59Z</time>
      </trkpt>
      <trkpt lat="42.52193" lon="1.95385">
        <ele>1888</ele>
        <time>2017-10-08T13:14:22Z</time>
      </trkpt>
      <trkpt lat="42.5219" lon="1.9538">
        <ele>1887</ele>
        <time>2017-10-08T13:14:30Z</time>
      </trkpt>
      <trkpt lat="42.52179" lon="1.95366">
        <ele>1886</ele>
        <time>2017-10-08T13:14:44Z</time>
      </trkpt>
      <trkpt lat="42.52156" lon="1.9533">
        <ele>1883</ele>
        <time>2017-10-08T13:15:15Z</time>
      </trkpt>
      <trkpt lat="42.52153" lon="1.95324">
        <ele>1882</ele>
        <time>2017-10-08T13:15:22Z</time>
      </trkpt>
      <trkpt lat="42.5215" lon="1.95319">
        <ele>1882</ele>
        <time>2017-10-08T13:15:26Z</time>
      </trkpt>
      <trkpt lat="42.52146" lon="1.95314">
        <ele>1882</ele>
        <time>2017-10-08T13:15:30Z</time>
      </trkpt>
      <trkpt lat="42.52143" lon="1.95309">
        <ele>1882</ele>
        <time>2017-10-08T13:15:34Z</time>
      </trkpt>
      <trkpt lat="42.5212" lon="1.95272">
        <ele>1878</ele>
        <time>2017-10-08T13:16:06Z</time>
      </trkpt>
      <trkpt lat="42.52105" lon="1.95255">
        <ele>1876</ele>
        <time>2017-10-08T13:16:24Z</time>
      </trkpt>
      <trkpt lat="42.52096" lon="1.95248">
        <ele>1875</ele>
        <time>2017-10-08T13:16:34Z</time>
      </trkpt>
      <trkpt lat="42.52091" lon="1.95248">
        <ele>1875</ele>
        <time>2017-10-08T13:16:39Z</time>
      </trkpt>
      <trkpt lat="42.52077" lon="1.95255">
        <ele>1874</ele>
        <time>2017-10-08T13:16:53Z</time>
      </trkpt>
      <trkpt lat="42.52042" lon="1.95252">
        <ele>1871</ele>
        <time>2017-10-08T13:17:27Z</time>
      </trkpt>
      <trkpt lat="42.52008" lon="1.95259">
        <ele>1868</ele>
        <time>2017-10-08T13:17:59Z</time>
      </trkpt>
      <trkpt lat="42.51987" lon="1.95261">
        <ele>1866</ele>
        <time>2017-10-08T13:18:19Z</time>
      </trkpt>
      <trkpt lat="42.51977" lon="1.9526">
        <ele>1865</ele>
        <time>2017-10-08T13:18:29Z</time>
      </trkpt>
      <trkpt lat="42.51968" lon="1.95254">
        <ele>1864</ele>
        <time>2017-10-08T13:18:39Z</time>
      </trkpt>
      <trkpt lat="42.5196" lon="1.95245">
        <ele>1864</ele>
        <time>2017-10-08T13:18:48Z</time>
      </trkpt>
      <trkpt lat="42.51954" lon="1.95234">
        <ele>1863</ele>
        <time>2017-10-08T13:18:57Z</time>
      </trkpt>
      <trkpt lat="42.51933" lon="1.95205">
        <ele>1862</ele>
        <time>2017-10-08T13:19:23Z</time>
      </trkpt>
      <trkpt lat="42.51912" lon="1.9519">
        <ele>1861</ele>
        <time>2017-10-08T13:19:44Z</time>
      </trkpt>
      <trkpt lat="42.51893" lon="1.9519">
        <ele>1860</ele>
        <time>2017-10-08T13:21:55Z</time>
      </trkpt>
      <trkpt lat="42.51888" lon="1.95192">
        <ele>1860</ele>
        <time>2017-10-08T13:21:59Z</time>
      </trkpt>
      <trkpt lat="42.51873" lon="1.95197">
        <ele>1860</ele>
        <time>2017-10-08T13:22:13Z</time>
      </trkpt>
      <trkpt lat="42.51869" lon="1.952">
        <ele>1859</ele>
        <time>2017-10-08T13:22:17Z</time>
      </trkpt>
      <trkpt lat="42.51853" lon="1.95206">
        <ele>1858</ele>
        <time>2017-10-08T13:22:32Z</time>
      </trkpt>
      <trkpt lat="42.51848" lon="1.95208">
        <ele>1858</ele>
        <time>2017-10-08T13:22:49Z</time>
      </trkpt>
      <trkpt lat="42.51834" lon="1.95213">
        <ele>1857</ele>
        <time>2017-10-08T13:23:03Z</time>
      </trkpt>
      <trkpt lat="42.51821" lon="1.95207">
        <ele>1856</ele>
        <time>2017-10-08T13:23:40Z</time>
      </trkpt>
      <trkpt lat="42.51818" lon="1.95201">
        <ele>1856</ele>
        <time>2017-10-08T13:23:57Z</time>
      </trkpt>
      <trkpt lat="42.51804" lon="1.95182">
        <ele>1855</ele>
        <time>2017-10-08T13:24:15Z</time>
      </trkpt>
      <trkpt lat="42.51801" lon="1.95176">
        <ele>1855</ele>
        <time>2017-10-08T13:24:20Z</time>
      </trkpt>
      <trkpt lat="42.51797" lon="1.95174">
        <ele>1855</ele>
        <time>2017-10-08T13:24:25Z</time>
      </trkpt>
      <trkpt lat="42.51793" lon="1.95175">
        <ele>1855</ele>
        <time>2017-10-08T13:24:36Z</time>
      </trkpt>
      <trkpt lat="42.51788" lon="1.95164">
        <ele>1855</ele>
        <time>2017-10-08T13:24:44Z</time>
      </trkpt>
      <trkpt lat="42.51781" lon="1.95154">
        <ele>1855</ele>
        <time>2017-10-08T13:24:54Z</time>
      </trkpt>
      <trkpt lat="42.51779" lon="1.95147">
        <ele>1854</ele>
        <time>2017-10-08T13:25:16Z</time>
      </trkpt>
      <trkpt lat="42.51774" lon="1.95147">
        <ele>1854</ele>
        <time>2017-10-08T13:25:21Z</time>
      </trkpt>
      <trkpt lat="42.51768" lon="1.95146">
        <ele>1854</ele>
        <time>2017-10-08T13:25:26Z</time>
      </trkpt>
      <trkpt lat="42.5175" lon="1.95136">
        <ele>1853</ele>
        <time>2017-10-08T13:25:42Z</time>
      </trkpt>
      <trkpt lat="42.51721" lon="1.95099">
        <ele>1851</ele>
        <time>2017-10-08T13:26:17Z</time>
      </trkpt>
      <trkpt lat="42.51714" lon="1.95089">
        <ele>1851</ele>
        <time>2017-10-08T13:26:25Z</time>
      </trkpt>
      <trkpt lat="42.51681" lon="1.9507">
        <ele>1849</ele>
        <time>2017-10-08T13:26:56Z</time>
      </trkpt>
      <trkpt lat="42.51657" lon="1.9506">
        <ele>1845</ele>
        <time>2017-10-08T13:27:22Z</time>
      </trkpt>
      <trkpt lat="42.51648" lon="1.95053">
        <ele>1844</ele>
        <time>2017-10-08T13:27:31Z</time>
      </trkpt>
      <trkpt lat="42.51638" lon="1.95049">
        <ele>1843</ele>
        <time>2017-10-08T13:27:41Z</time>
      </trkpt>
      <trkpt lat="42.51627" lon="1.95047">
        <ele>1842</ele>
        <time>2017-10-08T13:27:51Z</time>
      </trkpt>
      <trkpt lat="42.51619" lon="1.95041">
        <ele>1841</ele>
        <time>2017-10-08T13:28:00Z</time>
      </trkpt>
      <trkpt lat="42.51614" lon="1.95039">
        <ele>1840</ele>
        <time>2017-10-08T13:28:05Z</time>
      </trkpt>
      <trkpt lat="42.51584" lon="1.95017">
        <ele>1837</ele>
        <time>2017-10-08T13:28:36Z</time>
      </trkpt>
      <trkpt lat="42.51577" lon="1.95016">
        <ele>1834</ele>
        <time>2017-10-08T13:28:49Z</time>
      </trkpt>
      <trkpt lat="42.51573" lon="1.95017">
        <ele>1833</ele>
        <time>2017-10-08T13:29:08Z</time>
      </trkpt>
      <trkpt lat="42.51568" lon="1.95018">
        <ele>1831</ele>
        <time>2017-10-08T13:29:17Z</time>
      </trkpt>
      <trkpt lat="42.51565" lon="1.95013">
        <ele>1830</ele>
        <time>2017-10-08T13:29:24Z</time>
      </trkpt>
      <trkpt lat="42.5156" lon="1.95012">
        <ele>1828</ele>
        <time>2017-10-08T13:29:33Z</time>
      </trkpt>
      <trkpt lat="42.51555" lon="1.95013">
        <ele>1826</ele>
        <time>2017-10-08T13:29:42Z</time>
      </trkpt>
      <trkpt lat="42.51545" lon="1.95012">
        <ele>1823</ele>
        <time>2017-10-08T13:29:56Z</time>
      </trkpt>
      <trkpt lat="42.51525" lon="1.94993">
        <ele>1816</ele>
        <time>2017-10-08T13:30:34Z</time>
      </trkpt>
      <trkpt lat="42.51517" lon="1.94985">
        <ele>1813</ele>
        <time>2017-10-08T13:30:47Z</time>
      </trkpt>
      <trkpt lat="42.51512" lon="1.94985">
        <ele>1812</ele>
        <time>2017-10-08T13:30:54Z</time>
      </trkpt>
      <trkpt lat="42.51503" lon="1.9499">
        <ele>1808</ele>
        <time>2017-10-08T13:31:11Z</time>
      </trkpt>
      <trkpt lat="42.51493" lon="1.94989">
        <ele>1806</ele>
        <time>2017-10-08T13:31:23Z</time>
      </trkpt>
      <trkpt lat="42.51489" lon="1.94991">
        <ele>1805</ele>
        <time>2017-10-08T13:31:28Z</time>
      </trkpt>
      <trkpt lat="42.51477" lon="1.95004">
        <ele>1800</ele>
        <time>2017-10-08T13:31:44Z</time>
      </trkpt>
      <trkpt lat="42.51473" lon="1.95006">
        <ele>1799</ele>
        <time>2017-10-08T13:31:48Z</time>
      </trkpt>
      <trkpt lat="42.5147" lon="1.95012">
        <ele>1798</ele>
        <time>2017-10-08T13:31:52Z</time>
      </trkpt>
      <trkpt lat="42.51457" lon="1.95025">
        <ele>1795</ele>
        <time>2017-10-08T13:32:07Z</time>
      </trkpt>
      <trkpt lat="42.51452" lon="1.95027">
        <ele>1794</ele>
        <time>2017-10-08T13:32:12Z</time>
      </trkpt>
      <trkpt lat="42.51448" lon="1.95026">
        <ele>1793</ele>
        <time>2017-10-08T13:32:17Z</time>
      </trkpt>
      <trkpt lat="42.51444" lon="1.95029">
        <ele>1792</ele>
        <time>2017-10-08T13:32:22Z</time>
      </trkpt>
      <trkpt lat="42.51433" lon="1.95043">
        <ele>1790</ele>
        <time>2017-10-08T13:32:36Z</time>
      </trkpt>
      <trkpt lat="42.51428" lon="1.95046">
        <ele>1789</ele>
        <time>2017-10-08T13:32:41Z</time>
      </trkpt>
      <trkpt lat="42.51411" lon="1.95046">
        <ele>1788</ele>
        <time>2017-10-08T13:32:56Z</time>
      </trkpt>
      <trkpt lat="42.51406" lon="1.95044">
        <ele>1787</ele>
        <time>2017-10-08T13:33:01Z</time>
      </trkpt>
      <trkpt lat="42.51398" lon="1.95039">
        <ele>1787</ele>
        <time>2017-10-08T13:33:11Z</time>
      </trkpt>
      <trkpt lat="42.51377" lon="1.95035">
        <ele>1784</ele>
        <time>2017-10-08T13:33:31Z</time>
      </trkpt>
      <trkpt lat="42.51351" lon="1.95037">
        <ele>1782</ele>
        <time>2017-10-08T13:33:51Z</time>
      </trkpt>
      <trkpt lat="42.51347" lon="1.95037">
        <ele>1782</ele>
        <time>2017-10-08T13:33:55Z</time>
      </trkpt>
      <trkpt lat="42.51316" lon="1.95034">
        <ele>1780</ele>
        <time>2017-10-08T13:34:22Z</time>
      </trkpt>
      <trkpt lat="42.51292" lon="1.95039">
        <ele>1778</ele>
        <time>2017-10-08T13:34:42Z</time>
      </trkpt>
      <trkpt lat="42.51278" lon="1.95035">
        <ele>1777</ele>
        <time>2017-10-08T13:34:54Z</time>
      </trkpt>
      <trkpt lat="42.51273" lon="1.95037">
        <ele>1777</ele>
        <time>2017-10-08T13:34:58Z</time>
      </trkpt>
      <trkpt lat="42.51269" lon="1.95037">
        <ele>1776</ele>
        <time>2017-10-08T13:35:02Z</time>
      </trkpt>
      <trkpt lat="42.5126" lon="1.9504">
        <ele>1776</ele>
        <time>2017-10-08T13:35:10Z</time>
      </trkpt>
      <trkpt lat="42.5125" lon="1.95039">
        <ele>1775</ele>
        <time>2017-10-08T13:35:19Z</time>
      </trkpt>
      <trkpt lat="42.51245" lon="1.95038">
        <ele>1774</ele>
        <time>2017-10-08T13:35:24Z</time>
      </trkpt>
      <trkpt lat="42.5124" lon="1.95039">
        <ele>1774</ele>
        <time>2017-10-08T13:35:29Z</time>
      </trkpt>
      <trkpt lat="42.51238" lon="1.95045">
        <ele>1773</ele>
        <time>2017-10-08T13:35:37Z</time>
      </trkpt>
      <trkpt lat="42.51234" lon="1.95049">
        <ele>1773</ele>
        <time>2017-10-08T13:35:42Z</time>
      </trkpt>
      <trkpt lat="42.5123" lon="1.9505">
        <ele>1773</ele>
        <time>2017-10-08T13:35:47Z</time>
      </trkpt>
      <trkpt lat="42.51221" lon="1.95046">
        <ele>1772</ele>
        <time>2017-10-08T13:35:57Z</time>
      </trkpt>
      <trkpt lat="42.51216" lon="1.95048">
        <ele>1772</ele>
        <time>2017-10-08T13:36:05Z</time>
      </trkpt>
      <trkpt lat="42.51209" lon="1.9505">
        <ele>1770</ele>
        <time>2017-10-08T13:36:19Z</time>
      </trkpt>
      <trkpt lat="42.51205" lon="1.95054">
        <ele>1770</ele>
        <time>2017-10-08T13:36:28Z</time>
      </trkpt>
      <trkpt lat="42.51206" lon="1.9506">
        <ele>1770</ele>
        <time>2017-10-08T13:36:36Z</time>
      </trkpt>
      <trkpt lat="42.51209" lon="1.95064">
        <ele>1770</ele>
        <time>2017-10-08T13:36:42Z</time>
      </trkpt>
      <trkpt lat="42.51211" lon="1.9507">
        <ele>1770</ele>
        <time>2017-10-08T13:36:48Z</time>
      </trkpt>
      <trkpt lat="42.51214" lon="1.95075">
        <ele>1770</ele>
        <time>2017-10-08T13:36:55Z</time>
      </trkpt>
      <trkpt lat="42.51216" lon="1.95081">
        <ele>1769</ele>
        <time>2017-10-08T13:37:01Z</time>
      </trkpt>
      <trkpt lat="42.51219" lon="1.95094">
        <ele>1767</ele>
        <time>2017-10-08T13:37:16Z</time>
      </trkpt>
      <trkpt lat="42.51228" lon="1.95099">
        <ele>1764</ele>
        <time>2017-10-08T13:37:45Z</time>
      </trkpt>
      <trkpt lat="42.51231" lon="1.95105">
        <ele>1763</ele>
        <time>2017-10-08T13:38:04Z</time>
      </trkpt>
      <trkpt lat="42.51228" lon="1.95115">
        <ele>1759</ele>
        <time>2017-10-08T13:38:22Z</time>
      </trkpt>
      <trkpt lat="42.51225" lon="1.95119">
        <ele>1757</ele>
        <time>2017-10-08T13:38:30Z</time>
      </trkpt>
      <trkpt lat="42.51216" lon="1.95126">
        <ele>1754</ele>
        <time>2017-10-08T13:38:44Z</time>
      </trkpt>
      <trkpt lat="42.51209" lon="1.95128">
        <ele>1752</ele>
        <time>2017-10-08T13:38:59Z</time>
      </trkpt>
      <trkpt lat="42.51211" lon="1.95134">
        <ele>1750</ele>
        <time>2017-10-08T13:39:09Z</time>
      </trkpt>
      <trkpt lat="42.51213" lon="1.95144">
        <ele>1748</ele>
        <time>2017-10-08T13:40:05Z</time>
      </trkpt>
      <trkpt lat="42.51222" lon="1.95151">
        <ele>1743</ele>
        <time>2017-10-08T13:40:27Z</time>
      </trkpt>
      <trkpt lat="42.51226" lon="1.95153">
        <ele>1741</ele>
        <time>2017-10-08T13:40:41Z</time>
      </trkpt>
      <trkpt lat="42.51234" lon="1.95158">
        <ele>1739</ele>
        <time>2017-10-08T13:41:12Z</time>
      </trkpt>
      <trkpt lat="42.51251" lon="1.9517">
        <ele>1735</ele>
        <time>2017-10-08T13:41:43Z</time>
      </trkpt>
      <trkpt lat="42.51256" lon="1.95172">
        <ele>1734</ele>
        <time>2017-10-08T13:41:50Z</time>
      </trkpt>
      <trkpt lat="42.51266" lon="1.95176">
        <ele>1732</ele>
        <time>2017-10-08T13:42:08Z</time>
      </trkpt>
      <trkpt lat="42.51276" lon="1.95186">
        <ele>1730</ele>
        <time>2017-10-08T13:42:31Z</time>
      </trkpt>
      <trkpt lat="42.51285" lon="1.95192">
        <ele>1728</ele>
        <time>2017-10-08T13:42:47Z</time>
      </trkpt>
      <trkpt lat="42.51296" lon="1.95205">
        <ele>1724</ele>
        <time>2017-10-08T13:43:08Z</time>
      </trkpt>
      <trkpt lat="42.51301" lon="1.95207">
        <ele>1723</ele>
        <time>2017-10-08T13:43:14Z</time>
      </trkpt>
      <trkpt lat="42.51305" lon="1.95212">
        <ele>1722</ele>
        <time>2017-10-08T13:43:20Z</time>
      </trkpt>
      <trkpt lat="42.51309" lon="1.95215">
        <ele>1721</ele>
        <time>2017-10-08T13:43:25Z</time>
      </trkpt>
      <trkpt lat="42.51311" lon="1.95221">
        <ele>1719</ele>
        <time>2017-10-08T13:43:33Z</time>
      </trkpt>
      <trkpt lat="42.5132" lon="1.95225">
        <ele>1717</ele>
        <time>2017-10-08T13:43:46Z</time>
      </trkpt>
      <trkpt lat="42.5133" lon="1.95228">
        <ele>1717</ele>
        <time>2017-10-08T13:43:58Z</time>
      </trkpt>
      <trkpt lat="42.51349" lon="1.95237">
        <ele>1713</ele>
        <time>2017-10-08T13:44:26Z</time>
      </trkpt>
      <trkpt lat="42.51357" lon="1.95244">
        <ele>1711</ele>
        <time>2017-10-08T13:44:43Z</time>
      </trkpt>
      <trkpt lat="42.51359" lon="1.9525">
        <ele>1709</ele>
        <time>2017-10-08T13:44:50Z</time>
      </trkpt>
      <trkpt lat="42.51364" lon="1.95253">
        <ele>1708</ele>
        <time>2017-10-08T13:44:55Z</time>
      </trkpt>
      <trkpt lat="42.51377" lon="1.95261">
        <ele>1704</ele>
        <time>2017-10-08T13:45:12Z</time>
      </trkpt>
      <trkpt lat="42.51382" lon="1.95261">
        <ele>1704</ele>
        <time>2017-10-08T13:45:17Z</time>
      </trkpt>
      <trkpt lat="42.51391" lon="1.95266">
        <ele>1702</ele>
        <time>2017-10-08T13:45:29Z</time>
      </trkpt>
      <trkpt lat="42.51402" lon="1.95269">
        <ele>1699</ele>
        <time>2017-10-08T13:45:49Z</time>
      </trkpt>
      <trkpt lat="42.51412" lon="1.95275">
        <ele>1697</ele>
        <time>2017-10-08T13:45:59Z</time>
      </trkpt>
      <trkpt lat="42.51416" lon="1.95276">
        <ele>1696</ele>
        <time>2017-10-08T13:46:05Z</time>
      </trkpt>
      <trkpt lat="42.51429" lon="1.95287">
        <ele>1691</ele>
        <time>2017-10-08T13:46:28Z</time>
      </trkpt>
      <trkpt lat="42.51432" lon="1.95295">
        <ele>1690</ele>
        <time>2017-10-08T13:46:43Z</time>
      </trkpt>
      <trkpt lat="42.51438" lon="1.95296">
        <ele>1688</ele>
        <time>2017-10-08T13:46:49Z</time>
      </trkpt>
      <trkpt lat="42.51444" lon="1.953">
        <ele>1686</ele>
        <time>2017-10-08T13:47:08Z</time>
      </trkpt>
      <trkpt lat="42.51454" lon="1.95302">
        <ele>1683</ele>
        <time>2017-10-08T13:47:24Z</time>
      </trkpt>
      <trkpt lat="42.51456" lon="1.95308">
        <ele>1681</ele>
        <time>2017-10-08T13:47:32Z</time>
      </trkpt>
      <trkpt lat="42.51464" lon="1.95316">
        <ele>1678</ele>
        <time>2017-10-08T13:47:46Z</time>
      </trkpt>
      <trkpt lat="42.51468" lon="1.95318">
        <ele>1676</ele>
        <time>2017-10-08T13:47:55Z</time>
      </trkpt>
      <trkpt lat="42.51472" lon="1.95323">
        <ele>1674</ele>
        <time>2017-10-08T13:48:07Z</time>
      </trkpt>
      <trkpt lat="42.5148" lon="1.95333">
        <ele>1670</ele>
        <time>2017-10-08T13:48:19Z</time>
      </trkpt>
      <trkpt lat="42.51486" lon="1.9534">
        <ele>1668</ele>
        <time>2017-10-08T13:48:55Z</time>
      </trkpt>
      <trkpt lat="42.51491" lon="1.95341">
        <ele>1666</ele>
        <time>2017-10-08T13:49:02Z</time>
      </trkpt>
      <trkpt lat="42.51496" lon="1.95344">
        <ele>1666</ele>
        <time>2017-10-08T13:49:07Z</time>
      </trkpt>
      <trkpt lat="42.51501" lon="1.95348">
        <ele>1664</ele>
        <time>2017-10-08T13:49:15Z</time>
      </trkpt>
      <trkpt lat="42.51505" lon="1.95351">
        <ele>1663</ele>
        <time>2017-10-08T13:49:19Z</time>
      </trkpt>
      <trkpt lat="42.51509" lon="1.95355">
        <ele>1662</ele>
        <time>2017-10-08T13:49:23Z</time>
      </trkpt>
      <trkpt lat="42.51514" lon="1.95357">
        <ele>1661</ele>
        <time>2017-10-08T13:49:29Z</time>
      </trkpt>
      <trkpt lat="42.51522" lon="1.95366">
        <ele>1658</ele>
        <time>2017-10-08T13:49:41Z</time>
      </trkpt>
      <trkpt lat="42.51527" lon="1.95369">
        <ele>1658</ele>
        <time>2017-10-08T13:49:46Z</time>
      </trkpt>
      <trkpt lat="42.51532" lon="1.9537">
        <ele>1657</ele>
        <time>2017-10-08T13:49:52Z</time>
      </trkpt>
      <trkpt lat="42.51535" lon="1.95375">
        <ele>1656</ele>
        <time>2017-10-08T13:49:57Z</time>
      </trkpt>
      <trkpt lat="42.51544" lon="1.95381">
        <ele>1654</ele>
        <time>2017-10-08T13:50:07Z</time>
      </trkpt>
      <trkpt lat="42.51559" lon="1.95396">
        <ele>1651</ele>
        <time>2017-10-08T13:50:29Z</time>
      </trkpt>
      <trkpt lat="42.51564" lon="1.95398">
        <ele>1650</ele>
        <time>2017-10-08T13:50:35Z</time>
      </trkpt>
      <trkpt lat="42.51568" lon="1.95403">
        <ele>1649</ele>
        <time>2017-10-08T13:50:43Z</time>
      </trkpt>
      <trkpt lat="42.51577" lon="1.95418">
        <ele>1644</ele>
        <time>2017-10-08T13:51:04Z</time>
      </trkpt>
      <trkpt lat="42.51586" lon="1.95446">
        <ele>1637</ele>
        <time>2017-10-08T13:51:41Z</time>
      </trkpt>
      <trkpt lat="42.51581" lon="1.95447">
        <ele>1636</ele>
        <time>2017-10-08T13:51:47Z</time>
      </trkpt>
      <trkpt lat="42.51576" lon="1.95445">
        <ele>1634</ele>
        <time>2017-10-08T13:51:55Z</time>
      </trkpt>
      <trkpt lat="42.51571" lon="1.95446">
        <ele>1632</ele>
        <time>2017-10-08T13:52:04Z</time>
      </trkpt>
      <trkpt lat="42.51561" lon="1.95444">
        <ele>1628</ele>
        <time>2017-10-08T13:52:24Z</time>
      </trkpt>
      <trkpt lat="42.51558" lon="1.95461">
        <ele>1623</ele>
        <time>2017-10-08T13:52:53Z</time>
      </trkpt>
      <trkpt lat="42.51556" lon="1.95467">
        <ele>1621</ele>
        <time>2017-10-08T13:52:58Z</time>
      </trkpt>
      <trkpt lat="42.51562" lon="1.95478">
        <ele>1619</ele>
        <time>2017-10-08T13:53:09Z</time>
      </trkpt>
      <trkpt lat="42.51564" lon="1.95484">
        <ele>1618</ele>
        <time>2017-10-08T13:53:15Z</time>
      </trkpt>
      <trkpt lat="42.51565" lon="1.9549">
        <ele>1618</ele>
        <time>2017-10-08T13:53:20Z</time>
      </trkpt>
      <trkpt lat="42.51572" lon="1.95495">
        <ele>1617</ele>
        <time>2017-10-08T13:53:32Z</time>
      </trkpt>
      <trkpt lat="42.51577" lon="1.95495">
        <ele>1617</ele>
        <time>2017-10-08T13:53:40Z</time>
      </trkpt>
      <trkpt lat="42.51582" lon="1.95495">
        <ele>1617</ele>
        <time>2017-10-08T13:53:47Z</time>
      </trkpt>
      <trkpt lat="42.51587" lon="1.95498">
        <ele>1617</ele>
        <time>2017-10-08T13:53:52Z</time>
      </trkpt>
      <trkpt lat="42.51591" lon="1.955">
        <ele>1616</ele>
        <time>2017-10-08T13:53:57Z</time>
      </trkpt>
      <trkpt lat="42.51593" lon="1.95506">
        <ele>1615</ele>
        <time>2017-10-08T13:54:04Z</time>
      </trkpt>
      <trkpt lat="42.51588" lon="1.95509">
        <ele>1614</ele>
        <time>2017-10-08T13:54:22Z</time>
      </trkpt>
      <trkpt lat="42.51586" lon="1.95514">
        <ele>1612</ele>
        <time>2017-10-08T13:54:29Z</time>
      </trkpt>
      <trkpt lat="42.51576" lon="1.95514">
        <ele>1611</ele>
        <time>2017-10-08T13:54:41Z</time>
      </trkpt>
      <trkpt lat="42.51581" lon="1.95521">
        <ele>1610</ele>
        <time>2017-10-08T13:55:19Z</time>
      </trkpt>
      <trkpt lat="42.51582" lon="1.95527">
        <ele>1608</ele>
        <time>2017-10-08T13:55:25Z</time>
      </trkpt>
      <trkpt lat="42.51586" lon="1.95531">
        <ele>1607</ele>
        <time>2017-10-08T13:55:32Z</time>
      </trkpt>
      <trkpt lat="42.51583" lon="1.95539">
        <ele>1605</ele>
        <time>2017-10-08T13:55:58Z</time>
      </trkpt>
      <trkpt lat="42.51581" lon="1.95545">
        <ele>1602</ele>
        <time>2017-10-08T13:56:05Z</time>
      </trkpt>
      <trkpt lat="42.5158" lon="1.95551">
        <ele>1601</ele>
        <time>2017-10-08T13:56:13Z</time>
      </trkpt>
      <trkpt lat="42.51578" lon="1.95558">
        <ele>1599</ele>
        <time>2017-10-08T13:56:41Z</time>
      </trkpt>
      <trkpt lat="42.51582" lon="1.95561">
        <ele>1599</ele>
        <time>2017-10-08T13:56:48Z</time>
      </trkpt>
      <trkpt lat="42.51592" lon="1.95576">
        <ele>1597</ele>
        <time>2017-10-08T13:57:07Z</time>
      </trkpt>
      <trkpt lat="42.51591" lon="1.95589">
        <ele>1595</ele>
        <time>2017-10-08T13:57:24Z</time>
      </trkpt>
      <trkpt lat="42.51593" lon="1.95602">
        <ele>1594</ele>
        <time>2017-10-08T13:57:35Z</time>
      </trkpt>
      <trkpt lat="42.51594" lon="1.95608">
        <ele>1594</ele>
        <time>2017-10-08T13:57:50Z</time>
      </trkpt>
      <trkpt lat="42.51599" lon="1.95612">
        <ele>1593</ele>
        <time>2017-10-08T13:57:57Z</time>
      </trkpt>
      <trkpt lat="42.51598" lon="1.95626">
        <ele>1593</ele>
        <time>2017-10-08T13:58:36Z</time>
      </trkpt>
      <trkpt lat="42.51589" lon="1.95627">
        <ele>1593</ele>
        <time>2017-10-08T13:58:46Z</time>
      </trkpt>
      <trkpt lat="42.51573" lon="1.95637">
        <ele>1589</ele>
        <time>2017-10-08T13:59:16Z</time>
      </trkpt>
      <trkpt lat="42.5157" lon="1.95642">
        <ele>1588</ele>
        <time>2017-10-08T13:59:20Z</time>
      </trkpt>
      <trkpt lat="42.51563" lon="1.95651">
        <ele>1585</ele>
        <time>2017-10-08T13:59:44Z</time>
      </trkpt>
      <trkpt lat="42.51554" lon="1.95655">
        <ele>1583</ele>
        <time>2017-10-08T13:59:54Z</time>
      </trkpt>
      <trkpt lat="42.51545" lon="1.9566">
        <ele>1581</ele>
        <time>2017-10-08T14:00:06Z</time>
      </trkpt>
      <trkpt lat="42.51539" lon="1.95649">
        <ele>1581</ele>
        <time>2017-10-08T14:00:17Z</time>
      </trkpt>
      <trkpt lat="42.51535" lon="1.95645">
        <ele>1581</ele>
        <time>2017-10-08T14:00:23Z</time>
      </trkpt>
      <trkpt lat="42.51533" lon="1.95636">
        <ele>1582</ele>
        <time>2017-10-08T14:00:43Z</time>
      </trkpt>
      <trkpt lat="42.51529" lon="1.95631">
        <ele>1582</ele>
        <time>2017-10-08T14:00:51Z</time>
      </trkpt>
      <trkpt lat="42.51525" lon="1.95633">
        <ele>1582</ele>
        <time>2017-10-08T14:01:51Z</time>
      </trkpt>
    </trkseg>
  </trk>
</gpx>